<?xml version="1.0" encoding="UTF-8" standalone="no" ?>
<gpx xmlns="http://www.topografix.com/GPX/1/1" xmlns:xsi="http://www.w3.org/2001/XMLSchema-instance" xsi:schemaLocation="http://www.topografix.com/GPX/1/1 http://www.topografix.com/GPX/1/1/gpx.xsd" version="1.1" creator="VisuGPX - https://www.visugpx.com">
  <metadata>
    <name>Boucle Loché/Chemillé - 2 jours</name>
    <desc><![CDATA[CDTE 37]]></desc>
  </metadata>
  <trk>
    <name><![CDATA[loché sur indrois_40]]></name>
    <desc><![CDATA[Aucune description disponible]]></desc>
    <extensions>
      <line xmlns="http://www.topografix.com/GPX/gpx_style/0/2">
        <color>0000FF</color>
        <width>4</width>
      </line>
    </extensions>
    <trkseg>
      <trkpt lat="47.15268" lon="1.19678">
        <ele>91.6</ele>
        <time>2016-01-01T00:00:00Z</time>
      </trkpt>
      <trkpt lat="47.15268" lon="1.19678">
        <ele>91.6</ele>
        <time>2016-01-01T00:00:00Z</time>
      </trkpt>
      <trkpt lat="47.15268" lon="1.19678">
        <ele>91.6</ele>
        <time>2016-01-01T00:00:00Z</time>
      </trkpt>
      <trkpt lat="47.15268" lon="1.19678">
        <ele>91.6</ele>
        <time>2016-01-01T00:00:00Z</time>
      </trkpt>
      <trkpt lat="47.15273" lon="1.19654">
        <ele>91.5</ele>
        <time>2016-01-01T00:00:00Z</time>
      </trkpt>
      <trkpt lat="47.15273" lon="1.19654">
        <ele>91.5</ele>
        <time>2016-01-01T00:00:00Z</time>
      </trkpt>
      <trkpt lat="47.15273" lon="1.19654">
        <ele>91.5</ele>
        <time>2016-01-01T00:00:00Z</time>
      </trkpt>
      <trkpt lat="47.15273" lon="1.19654">
        <ele>91.5</ele>
        <time>2016-01-01T00:00:00Z</time>
      </trkpt>
      <trkpt lat="47.15288" lon="1.19595">
        <ele>91.2</ele>
        <time>2016-01-01T00:00:00Z</time>
      </trkpt>
      <trkpt lat="47.15288" lon="1.19595">
        <ele>91.2</ele>
        <time>2016-01-01T00:00:00Z</time>
      </trkpt>
      <trkpt lat="47.15288" lon="1.19595">
        <ele>91.2</ele>
        <time>2016-01-01T00:00:00Z</time>
      </trkpt>
      <trkpt lat="47.15288" lon="1.19595">
        <ele>91.2</ele>
        <time>2016-01-01T00:00:00Z</time>
      </trkpt>
      <trkpt lat="47.15299" lon="1.19556">
        <ele>91.1</ele>
        <time>2016-01-01T00:00:00Z</time>
      </trkpt>
      <trkpt lat="47.15299" lon="1.19556">
        <ele>91.1</ele>
        <time>2016-01-01T00:00:00Z</time>
      </trkpt>
      <trkpt lat="47.15299" lon="1.19556">
        <ele>91.1</ele>
        <time>2016-01-01T00:00:00Z</time>
      </trkpt>
      <trkpt lat="47.15299" lon="1.19556">
        <ele>91.1</ele>
        <time>2016-01-01T00:00:00Z</time>
      </trkpt>
      <trkpt lat="47.15302" lon="1.19539">
        <ele>91.1</ele>
        <time>2016-01-01T00:00:00Z</time>
      </trkpt>
      <trkpt lat="47.15302" lon="1.19539">
        <ele>91.1</ele>
        <time>2016-01-01T00:00:00Z</time>
      </trkpt>
      <trkpt lat="47.15302" lon="1.19539">
        <ele>91.1</ele>
        <time>2016-01-01T00:00:00Z</time>
      </trkpt>
      <trkpt lat="47.15302" lon="1.19539">
        <ele>91.1</ele>
        <time>2016-01-01T00:00:00Z</time>
      </trkpt>
      <trkpt lat="47.15305" lon="1.19521">
        <ele>91.2</ele>
        <time>2016-01-01T00:00:00Z</time>
      </trkpt>
      <trkpt lat="47.15305" lon="1.19521">
        <ele>91.2</ele>
        <time>2016-01-01T00:00:00Z</time>
      </trkpt>
      <trkpt lat="47.15305" lon="1.19521">
        <ele>91.2</ele>
        <time>2016-01-01T00:00:00Z</time>
      </trkpt>
      <trkpt lat="47.15305" lon="1.19521">
        <ele>91.2</ele>
        <time>2016-01-01T00:00:00Z</time>
      </trkpt>
      <trkpt lat="47.15307" lon="1.19487">
        <ele>92</ele>
        <time>2016-01-01T00:00:00Z</time>
      </trkpt>
      <trkpt lat="47.15307" lon="1.19487">
        <ele>92</ele>
        <time>2016-01-01T00:00:00Z</time>
      </trkpt>
      <trkpt lat="47.15307" lon="1.19487">
        <ele>92</ele>
        <time>2016-01-01T00:00:00Z</time>
      </trkpt>
      <trkpt lat="47.15307" lon="1.19487">
        <ele>92</ele>
        <time>2016-01-01T00:00:00Z</time>
      </trkpt>
      <trkpt lat="47.15309" lon="1.19452">
        <ele>94.1</ele>
        <time>2016-01-01T00:00:00Z</time>
      </trkpt>
      <trkpt lat="47.15309" lon="1.19452">
        <ele>94.1</ele>
        <time>2016-01-01T00:00:00Z</time>
      </trkpt>
      <trkpt lat="47.15309" lon="1.19452">
        <ele>94.1</ele>
        <time>2016-01-01T00:00:00Z</time>
      </trkpt>
      <trkpt lat="47.15309" lon="1.19452">
        <ele>94.1</ele>
        <time>2016-01-01T00:00:00Z</time>
      </trkpt>
      <trkpt lat="47.1531" lon="1.19426">
        <ele>95.5</ele>
        <time>2016-01-01T00:00:00Z</time>
      </trkpt>
      <trkpt lat="47.1531" lon="1.19426">
        <ele>95.5</ele>
        <time>2016-01-01T00:00:00Z</time>
      </trkpt>
      <trkpt lat="47.1531" lon="1.19426">
        <ele>95.5</ele>
        <time>2016-01-01T00:00:00Z</time>
      </trkpt>
      <trkpt lat="47.1531" lon="1.19426">
        <ele>95.5</ele>
        <time>2016-01-01T00:00:00Z</time>
      </trkpt>
      <trkpt lat="47.15315" lon="1.19401">
        <ele>96.3</ele>
        <time>2016-01-01T00:00:00Z</time>
      </trkpt>
      <trkpt lat="47.15315" lon="1.19401">
        <ele>96.3</ele>
        <time>2016-01-01T00:00:00Z</time>
      </trkpt>
      <trkpt lat="47.15315" lon="1.19401">
        <ele>96.3</ele>
        <time>2016-01-01T00:00:00Z</time>
      </trkpt>
      <trkpt lat="47.15315" lon="1.19401">
        <ele>96.3</ele>
        <time>2016-01-01T00:00:00Z</time>
      </trkpt>
      <trkpt lat="47.15325" lon="1.19356">
        <ele>96.4</ele>
        <time>2016-01-01T00:00:00Z</time>
      </trkpt>
      <trkpt lat="47.15325" lon="1.19356">
        <ele>96.4</ele>
        <time>2016-01-01T00:00:00Z</time>
      </trkpt>
      <trkpt lat="47.15325" lon="1.19356">
        <ele>96.4</ele>
        <time>2016-01-01T00:00:00Z</time>
      </trkpt>
      <trkpt lat="47.15325" lon="1.19356">
        <ele>96.4</ele>
        <time>2016-01-01T00:00:00Z</time>
      </trkpt>
      <trkpt lat="47.15341" lon="1.19298">
        <ele>94.6</ele>
        <time>2016-01-01T00:00:00Z</time>
      </trkpt>
      <trkpt lat="47.15341" lon="1.19298">
        <ele>94.6</ele>
        <time>2016-01-01T00:00:00Z</time>
      </trkpt>
      <trkpt lat="47.15341" lon="1.19298">
        <ele>94.6</ele>
        <time>2016-01-01T00:00:00Z</time>
      </trkpt>
      <trkpt lat="47.15341" lon="1.19298">
        <ele>94.6</ele>
        <time>2016-01-01T00:00:00Z</time>
      </trkpt>
      <trkpt lat="47.15352" lon="1.19266">
        <ele>93</ele>
        <time>2016-01-01T00:00:00Z</time>
      </trkpt>
      <trkpt lat="47.15352" lon="1.19266">
        <ele>93</ele>
        <time>2016-01-01T00:00:00Z</time>
      </trkpt>
      <trkpt lat="47.15352" lon="1.19266">
        <ele>93</ele>
        <time>2016-01-01T00:00:00Z</time>
      </trkpt>
      <trkpt lat="47.15352" lon="1.19266">
        <ele>93</ele>
        <time>2016-01-01T00:00:00Z</time>
      </trkpt>
      <trkpt lat="47.15358" lon="1.19244">
        <ele>92.5</ele>
        <time>2016-01-01T00:00:00Z</time>
      </trkpt>
      <trkpt lat="47.15358" lon="1.19244">
        <ele>92.5</ele>
        <time>2016-01-01T00:00:00Z</time>
      </trkpt>
      <trkpt lat="47.15358" lon="1.19244">
        <ele>92.5</ele>
        <time>2016-01-01T00:00:00Z</time>
      </trkpt>
      <trkpt lat="47.15358" lon="1.19244">
        <ele>92.5</ele>
        <time>2016-01-01T00:00:00Z</time>
      </trkpt>
      <trkpt lat="47.15363" lon="1.19231">
        <ele>92.8</ele>
        <time>2016-01-01T00:00:00Z</time>
      </trkpt>
      <trkpt lat="47.15363" lon="1.19231">
        <ele>92.8</ele>
        <time>2016-01-01T00:00:00Z</time>
      </trkpt>
      <trkpt lat="47.15363" lon="1.19231">
        <ele>92.8</ele>
        <time>2016-01-01T00:00:00Z</time>
      </trkpt>
      <trkpt lat="47.15363" lon="1.19231">
        <ele>92.8</ele>
        <time>2016-01-01T00:00:00Z</time>
      </trkpt>
      <trkpt lat="47.15366" lon="1.19222">
        <ele>93</ele>
        <time>2016-01-01T00:00:00Z</time>
      </trkpt>
      <trkpt lat="47.15366" lon="1.19222">
        <ele>93</ele>
        <time>2016-01-01T00:00:00Z</time>
      </trkpt>
      <trkpt lat="47.15366" lon="1.19222">
        <ele>93</ele>
        <time>2016-01-01T00:00:00Z</time>
      </trkpt>
      <trkpt lat="47.15366" lon="1.19222">
        <ele>93</ele>
        <time>2016-01-01T00:00:00Z</time>
      </trkpt>
      <trkpt lat="47.1537" lon="1.19205">
        <ele>93.5</ele>
        <time>2016-01-01T00:00:00Z</time>
      </trkpt>
      <trkpt lat="47.1537" lon="1.19205">
        <ele>93.5</ele>
        <time>2016-01-01T00:00:00Z</time>
      </trkpt>
      <trkpt lat="47.1537" lon="1.19205">
        <ele>93.5</ele>
        <time>2016-01-01T00:00:00Z</time>
      </trkpt>
      <trkpt lat="47.1537" lon="1.19205">
        <ele>93.5</ele>
        <time>2016-01-01T00:00:00Z</time>
      </trkpt>
      <trkpt lat="47.15374" lon="1.1919">
        <ele>93.9</ele>
        <time>2016-01-01T00:00:00Z</time>
      </trkpt>
      <trkpt lat="47.15374" lon="1.1919">
        <ele>93.9</ele>
        <time>2016-01-01T00:00:00Z</time>
      </trkpt>
      <trkpt lat="47.15374" lon="1.1919">
        <ele>93.9</ele>
        <time>2016-01-01T00:00:00Z</time>
      </trkpt>
      <trkpt lat="47.15374" lon="1.1919">
        <ele>93.9</ele>
        <time>2016-01-01T00:00:00Z</time>
      </trkpt>
      <trkpt lat="47.15377" lon="1.19168">
        <ele>94.8</ele>
        <time>2016-01-01T00:00:00Z</time>
      </trkpt>
      <trkpt lat="47.15377" lon="1.19168">
        <ele>94.8</ele>
        <time>2016-01-01T00:00:00Z</time>
      </trkpt>
      <trkpt lat="47.15377" lon="1.19168">
        <ele>94.8</ele>
        <time>2016-01-01T00:00:00Z</time>
      </trkpt>
      <trkpt lat="47.15377" lon="1.19168">
        <ele>94.8</ele>
        <time>2016-01-01T00:00:00Z</time>
      </trkpt>
      <trkpt lat="47.15381" lon="1.19153">
        <ele>95.6</ele>
        <time>2016-01-01T00:00:00Z</time>
      </trkpt>
      <trkpt lat="47.15381" lon="1.19153">
        <ele>95.6</ele>
        <time>2016-01-01T00:00:00Z</time>
      </trkpt>
      <trkpt lat="47.15381" lon="1.19153">
        <ele>95.6</ele>
        <time>2016-01-01T00:00:00Z</time>
      </trkpt>
      <trkpt lat="47.15381" lon="1.19153">
        <ele>95.6</ele>
        <time>2016-01-01T00:00:00Z</time>
      </trkpt>
      <trkpt lat="47.15391" lon="1.19126">
        <ele>96.6</ele>
        <time>2016-01-01T00:00:00Z</time>
      </trkpt>
      <trkpt lat="47.15391" lon="1.19126">
        <ele>96.6</ele>
        <time>2016-01-01T00:00:00Z</time>
      </trkpt>
      <trkpt lat="47.15391" lon="1.19126">
        <ele>96.6</ele>
        <time>2016-01-01T00:00:00Z</time>
      </trkpt>
      <trkpt lat="47.15391" lon="1.19126">
        <ele>96.6</ele>
        <time>2016-01-01T00:00:00Z</time>
      </trkpt>
      <trkpt lat="47.15404" lon="1.19096">
        <ele>97.4</ele>
        <time>2016-01-01T00:00:00Z</time>
      </trkpt>
      <trkpt lat="47.15404" lon="1.19096">
        <ele>97.4</ele>
        <time>2016-01-01T00:00:00Z</time>
      </trkpt>
      <trkpt lat="47.15404" lon="1.19096">
        <ele>97.4</ele>
        <time>2016-01-01T00:00:00Z</time>
      </trkpt>
      <trkpt lat="47.15404" lon="1.19096">
        <ele>97.4</ele>
        <time>2016-01-01T00:00:00Z</time>
      </trkpt>
      <trkpt lat="47.15421" lon="1.19064">
        <ele>98.1</ele>
        <time>2016-01-01T00:00:00Z</time>
      </trkpt>
      <trkpt lat="47.15421" lon="1.19064">
        <ele>98.1</ele>
        <time>2016-01-01T00:00:00Z</time>
      </trkpt>
      <trkpt lat="47.15421" lon="1.19064">
        <ele>98.1</ele>
        <time>2016-01-01T00:00:00Z</time>
      </trkpt>
      <trkpt lat="47.15421" lon="1.19064">
        <ele>98.1</ele>
        <time>2016-01-01T00:00:00Z</time>
      </trkpt>
      <trkpt lat="47.1544" lon="1.19034">
        <ele>98.3</ele>
        <time>2016-01-01T00:00:00Z</time>
      </trkpt>
      <trkpt lat="47.1544" lon="1.19034">
        <ele>98.3</ele>
        <time>2016-01-01T00:00:00Z</time>
      </trkpt>
      <trkpt lat="47.1544" lon="1.19034">
        <ele>98.3</ele>
        <time>2016-01-01T00:00:00Z</time>
      </trkpt>
      <trkpt lat="47.1544" lon="1.19034">
        <ele>98.3</ele>
        <time>2016-01-01T00:00:00Z</time>
      </trkpt>
      <trkpt lat="47.15458" lon="1.19015">
        <ele>97.7</ele>
        <time>2016-01-01T00:00:00Z</time>
      </trkpt>
      <trkpt lat="47.15458" lon="1.19015">
        <ele>97.7</ele>
        <time>2016-01-01T00:00:00Z</time>
      </trkpt>
      <trkpt lat="47.15458" lon="1.19015">
        <ele>97.7</ele>
        <time>2016-01-01T00:00:00Z</time>
      </trkpt>
      <trkpt lat="47.15458" lon="1.19015">
        <ele>97.7</ele>
        <time>2016-01-01T00:00:00Z</time>
      </trkpt>
      <trkpt lat="47.15476" lon="1.18996">
        <ele>96.9</ele>
        <time>2016-01-01T00:00:00Z</time>
      </trkpt>
      <trkpt lat="47.15476" lon="1.18996">
        <ele>96.9</ele>
        <time>2016-01-01T00:00:00Z</time>
      </trkpt>
      <trkpt lat="47.15476" lon="1.18996">
        <ele>96.9</ele>
        <time>2016-01-01T00:00:00Z</time>
      </trkpt>
      <trkpt lat="47.15476" lon="1.18996">
        <ele>96.9</ele>
        <time>2016-01-01T00:00:00Z</time>
      </trkpt>
      <trkpt lat="47.1551" lon="1.18971">
        <ele>96.2</ele>
        <time>2016-01-01T00:00:00Z</time>
      </trkpt>
      <trkpt lat="47.1551" lon="1.18971">
        <ele>96.2</ele>
        <time>2016-01-01T00:00:00Z</time>
      </trkpt>
      <trkpt lat="47.1551" lon="1.18971">
        <ele>96.2</ele>
        <time>2016-01-01T00:00:00Z</time>
      </trkpt>
      <trkpt lat="47.1551" lon="1.18971">
        <ele>96.2</ele>
        <time>2016-01-01T00:00:00Z</time>
      </trkpt>
      <trkpt lat="47.15549" lon="1.18946">
        <ele>96.1</ele>
        <time>2016-01-01T00:00:00Z</time>
      </trkpt>
      <trkpt lat="47.15549" lon="1.18946">
        <ele>96.1</ele>
        <time>2016-01-01T00:00:00Z</time>
      </trkpt>
      <trkpt lat="47.15549" lon="1.18946">
        <ele>96.1</ele>
        <time>2016-01-01T00:00:00Z</time>
      </trkpt>
      <trkpt lat="47.15549" lon="1.18946">
        <ele>96.1</ele>
        <time>2016-01-01T00:00:00Z</time>
      </trkpt>
      <trkpt lat="47.15594" lon="1.18918">
        <ele>95.5</ele>
        <time>2016-01-01T00:00:00Z</time>
      </trkpt>
      <trkpt lat="47.15594" lon="1.18918">
        <ele>95.5</ele>
        <time>2016-01-01T00:00:00Z</time>
      </trkpt>
      <trkpt lat="47.15594" lon="1.18918">
        <ele>95.5</ele>
        <time>2016-01-01T00:00:00Z</time>
      </trkpt>
      <trkpt lat="47.15594" lon="1.18918">
        <ele>95.5</ele>
        <time>2016-01-01T00:00:00Z</time>
      </trkpt>
      <trkpt lat="47.15617" lon="1.18901">
        <ele>95.9</ele>
        <time>2016-01-01T00:00:00Z</time>
      </trkpt>
      <trkpt lat="47.15617" lon="1.18901">
        <ele>95.9</ele>
        <time>2016-01-01T00:00:00Z</time>
      </trkpt>
      <trkpt lat="47.15617" lon="1.18901">
        <ele>95.9</ele>
        <time>2016-01-01T00:00:00Z</time>
      </trkpt>
      <trkpt lat="47.15617" lon="1.18901">
        <ele>95.9</ele>
        <time>2016-01-01T00:00:00Z</time>
      </trkpt>
      <trkpt lat="47.15637" lon="1.18882">
        <ele>96.7</ele>
        <time>2016-01-01T00:00:00Z</time>
      </trkpt>
      <trkpt lat="47.15637" lon="1.18882">
        <ele>96.7</ele>
        <time>2016-01-01T00:00:00Z</time>
      </trkpt>
      <trkpt lat="47.15637" lon="1.18882">
        <ele>96.7</ele>
        <time>2016-01-01T00:00:00Z</time>
      </trkpt>
      <trkpt lat="47.15637" lon="1.18882">
        <ele>96.7</ele>
        <time>2016-01-01T00:00:00Z</time>
      </trkpt>
      <trkpt lat="47.15654" lon="1.18859">
        <ele>98.1</ele>
        <time>2016-01-01T00:00:00Z</time>
      </trkpt>
      <trkpt lat="47.15654" lon="1.18859">
        <ele>98.1</ele>
        <time>2016-01-01T00:00:00Z</time>
      </trkpt>
      <trkpt lat="47.15654" lon="1.18859">
        <ele>98.1</ele>
        <time>2016-01-01T00:00:00Z</time>
      </trkpt>
      <trkpt lat="47.15654" lon="1.18859">
        <ele>98.1</ele>
        <time>2016-01-01T00:00:00Z</time>
      </trkpt>
      <trkpt lat="47.15669" lon="1.18827">
        <ele>100.1</ele>
        <time>2016-01-01T00:00:00Z</time>
      </trkpt>
      <trkpt lat="47.15669" lon="1.18827">
        <ele>100.1</ele>
        <time>2016-01-01T00:00:00Z</time>
      </trkpt>
      <trkpt lat="47.15669" lon="1.18827">
        <ele>100.1</ele>
        <time>2016-01-01T00:00:00Z</time>
      </trkpt>
      <trkpt lat="47.15669" lon="1.18827">
        <ele>100.1</ele>
        <time>2016-01-01T00:00:00Z</time>
      </trkpt>
      <trkpt lat="47.15677" lon="1.18806">
        <ele>100.3</ele>
        <time>2016-01-01T00:00:00Z</time>
      </trkpt>
      <trkpt lat="47.15677" lon="1.18806">
        <ele>100.3</ele>
        <time>2016-01-01T00:00:00Z</time>
      </trkpt>
      <trkpt lat="47.15677" lon="1.18806">
        <ele>100.3</ele>
        <time>2016-01-01T00:00:00Z</time>
      </trkpt>
      <trkpt lat="47.15677" lon="1.18806">
        <ele>100.3</ele>
        <time>2016-01-01T00:00:00Z</time>
      </trkpt>
      <trkpt lat="47.15683" lon="1.18785">
        <ele>100.7</ele>
        <time>2016-01-01T00:00:00Z</time>
      </trkpt>
      <trkpt lat="47.15683" lon="1.18785">
        <ele>100.7</ele>
        <time>2016-01-01T00:00:00Z</time>
      </trkpt>
      <trkpt lat="47.15683" lon="1.18785">
        <ele>100.7</ele>
        <time>2016-01-01T00:00:00Z</time>
      </trkpt>
      <trkpt lat="47.15683" lon="1.18785">
        <ele>100.7</ele>
        <time>2016-01-01T00:00:00Z</time>
      </trkpt>
      <trkpt lat="47.15685" lon="1.18766">
        <ele>101.3</ele>
        <time>2016-01-01T00:00:00Z</time>
      </trkpt>
      <trkpt lat="47.15685" lon="1.18766">
        <ele>101.3</ele>
        <time>2016-01-01T00:00:00Z</time>
      </trkpt>
      <trkpt lat="47.15685" lon="1.18766">
        <ele>101.3</ele>
        <time>2016-01-01T00:00:00Z</time>
      </trkpt>
      <trkpt lat="47.15685" lon="1.18766">
        <ele>101.3</ele>
        <time>2016-01-01T00:00:00Z</time>
      </trkpt>
      <trkpt lat="47.15687" lon="1.18744">
        <ele>101.7</ele>
        <time>2016-01-01T00:00:00Z</time>
      </trkpt>
      <trkpt lat="47.15687" lon="1.18744">
        <ele>101.7</ele>
        <time>2016-01-01T00:00:00Z</time>
      </trkpt>
      <trkpt lat="47.15687" lon="1.18744">
        <ele>101.7</ele>
        <time>2016-01-01T00:00:00Z</time>
      </trkpt>
      <trkpt lat="47.15687" lon="1.18744">
        <ele>101.7</ele>
        <time>2016-01-01T00:00:00Z</time>
      </trkpt>
      <trkpt lat="47.15687" lon="1.18717">
        <ele>101.1</ele>
        <time>2016-01-01T00:00:00Z</time>
      </trkpt>
      <trkpt lat="47.15687" lon="1.18717">
        <ele>101.1</ele>
        <time>2016-01-01T00:00:00Z</time>
      </trkpt>
      <trkpt lat="47.15687" lon="1.18717">
        <ele>101.1</ele>
        <time>2016-01-01T00:00:00Z</time>
      </trkpt>
      <trkpt lat="47.15687" lon="1.18717">
        <ele>101.1</ele>
        <time>2016-01-01T00:00:00Z</time>
      </trkpt>
      <trkpt lat="47.15686" lon="1.18684">
        <ele>100.4</ele>
        <time>2016-01-01T00:00:00Z</time>
      </trkpt>
      <trkpt lat="47.15686" lon="1.18684">
        <ele>100.4</ele>
        <time>2016-01-01T00:00:00Z</time>
      </trkpt>
      <trkpt lat="47.15686" lon="1.18684">
        <ele>100.4</ele>
        <time>2016-01-01T00:00:00Z</time>
      </trkpt>
      <trkpt lat="47.15686" lon="1.18684">
        <ele>100.4</ele>
        <time>2016-01-01T00:00:00Z</time>
      </trkpt>
      <trkpt lat="47.15683" lon="1.18656">
        <ele>100.2</ele>
        <time>2016-01-01T00:00:00Z</time>
      </trkpt>
      <trkpt lat="47.15683" lon="1.18656">
        <ele>100.2</ele>
        <time>2016-01-01T00:00:00Z</time>
      </trkpt>
      <trkpt lat="47.15683" lon="1.18656">
        <ele>100.2</ele>
        <time>2016-01-01T00:00:00Z</time>
      </trkpt>
      <trkpt lat="47.15683" lon="1.18656">
        <ele>100.2</ele>
        <time>2016-01-01T00:00:00Z</time>
      </trkpt>
      <trkpt lat="47.15682" lon="1.18646">
        <ele>100.2</ele>
        <time>2016-01-01T00:00:00Z</time>
      </trkpt>
      <trkpt lat="47.15682" lon="1.18646">
        <ele>100.2</ele>
        <time>2016-01-01T00:00:00Z</time>
      </trkpt>
      <trkpt lat="47.15682" lon="1.18646">
        <ele>100.2</ele>
        <time>2016-01-01T00:00:00Z</time>
      </trkpt>
      <trkpt lat="47.15682" lon="1.18646">
        <ele>100.2</ele>
        <time>2016-01-01T00:00:00Z</time>
      </trkpt>
      <trkpt lat="47.15674" lon="1.18554">
        <ele>99.5</ele>
        <time>2016-01-01T00:00:00Z</time>
      </trkpt>
      <trkpt lat="47.15674" lon="1.18554">
        <ele>99.5</ele>
        <time>2016-01-01T00:00:00Z</time>
      </trkpt>
      <trkpt lat="47.15674" lon="1.18554">
        <ele>99.5</ele>
        <time>2016-01-01T00:00:00Z</time>
      </trkpt>
      <trkpt lat="47.15674" lon="1.18554">
        <ele>99.5</ele>
        <time>2016-01-01T00:00:00Z</time>
      </trkpt>
      <trkpt lat="47.15664" lon="1.18456">
        <ele>98.3</ele>
        <time>2016-01-01T00:00:00Z</time>
      </trkpt>
      <trkpt lat="47.15664" lon="1.18456">
        <ele>98.3</ele>
        <time>2016-01-01T00:00:00Z</time>
      </trkpt>
      <trkpt lat="47.15664" lon="1.18456">
        <ele>98.3</ele>
        <time>2016-01-01T00:00:00Z</time>
      </trkpt>
      <trkpt lat="47.15664" lon="1.18456">
        <ele>98.3</ele>
        <time>2016-01-01T00:00:00Z</time>
      </trkpt>
      <trkpt lat="47.15652" lon="1.18346">
        <ele>97.4</ele>
        <time>2016-01-01T00:00:00Z</time>
      </trkpt>
      <trkpt lat="47.15652" lon="1.18346">
        <ele>97.4</ele>
        <time>2016-01-01T00:00:00Z</time>
      </trkpt>
      <trkpt lat="47.15652" lon="1.18346">
        <ele>97.4</ele>
        <time>2016-01-01T00:00:00Z</time>
      </trkpt>
      <trkpt lat="47.15652" lon="1.18346">
        <ele>97.4</ele>
        <time>2016-01-01T00:00:00Z</time>
      </trkpt>
      <trkpt lat="47.15641" lon="1.18252">
        <ele>97.7</ele>
        <time>2016-01-01T00:00:00Z</time>
      </trkpt>
      <trkpt lat="47.15641" lon="1.18252">
        <ele>97.7</ele>
        <time>2016-01-01T00:00:00Z</time>
      </trkpt>
      <trkpt lat="47.15641" lon="1.18252">
        <ele>97.7</ele>
        <time>2016-01-01T00:00:00Z</time>
      </trkpt>
      <trkpt lat="47.15641" lon="1.18252">
        <ele>97.7</ele>
        <time>2016-01-01T00:00:00Z</time>
      </trkpt>
      <trkpt lat="47.1561" lon="1.17951">
        <ele>101</ele>
        <time>2016-01-01T00:00:00Z</time>
      </trkpt>
      <trkpt lat="47.1561" lon="1.17951">
        <ele>101</ele>
        <time>2016-01-01T00:00:00Z</time>
      </trkpt>
      <trkpt lat="47.1561" lon="1.17951">
        <ele>101</ele>
        <time>2016-01-01T00:00:00Z</time>
      </trkpt>
      <trkpt lat="47.1561" lon="1.17951">
        <ele>101</ele>
        <time>2016-01-01T00:00:00Z</time>
      </trkpt>
      <trkpt lat="47.15605" lon="1.17909">
        <ele>100.8</ele>
        <time>2016-01-01T00:00:00Z</time>
      </trkpt>
      <trkpt lat="47.15605" lon="1.17909">
        <ele>100.8</ele>
        <time>2016-01-01T00:00:00Z</time>
      </trkpt>
      <trkpt lat="47.15605" lon="1.17909">
        <ele>100.8</ele>
        <time>2016-01-01T00:00:00Z</time>
      </trkpt>
      <trkpt lat="47.15605" lon="1.17909">
        <ele>100.8</ele>
        <time>2016-01-01T00:00:00Z</time>
      </trkpt>
      <trkpt lat="47.15601" lon="1.1787">
        <ele>100</ele>
        <time>2016-01-01T00:00:00Z</time>
      </trkpt>
      <trkpt lat="47.15601" lon="1.1787">
        <ele>100</ele>
        <time>2016-01-01T00:00:00Z</time>
      </trkpt>
      <trkpt lat="47.15601" lon="1.1787">
        <ele>100</ele>
        <time>2016-01-01T00:00:00Z</time>
      </trkpt>
      <trkpt lat="47.15601" lon="1.1787">
        <ele>100</ele>
        <time>2016-01-01T00:00:00Z</time>
      </trkpt>
      <trkpt lat="47.15599" lon="1.17823">
        <ele>99.2</ele>
        <time>2016-01-01T00:00:00Z</time>
      </trkpt>
      <trkpt lat="47.15599" lon="1.17823">
        <ele>99.2</ele>
        <time>2016-01-01T00:00:00Z</time>
      </trkpt>
      <trkpt lat="47.15599" lon="1.17823">
        <ele>99.2</ele>
        <time>2016-01-01T00:00:00Z</time>
      </trkpt>
      <trkpt lat="47.15599" lon="1.17823">
        <ele>99.2</ele>
        <time>2016-01-01T00:00:00Z</time>
      </trkpt>
      <trkpt lat="47.15598" lon="1.17781">
        <ele>100</ele>
        <time>2016-01-01T00:00:00Z</time>
      </trkpt>
      <trkpt lat="47.15598" lon="1.17781">
        <ele>100</ele>
        <time>2016-01-01T00:00:00Z</time>
      </trkpt>
      <trkpt lat="47.15598" lon="1.17781">
        <ele>100</ele>
        <time>2016-01-01T00:00:00Z</time>
      </trkpt>
      <trkpt lat="47.15598" lon="1.17781">
        <ele>100</ele>
        <time>2016-01-01T00:00:00Z</time>
      </trkpt>
      <trkpt lat="47.15599" lon="1.17739">
        <ele>100.9</ele>
        <time>2016-01-01T00:00:00Z</time>
      </trkpt>
      <trkpt lat="47.15599" lon="1.17739">
        <ele>100.9</ele>
        <time>2016-01-01T00:00:00Z</time>
      </trkpt>
      <trkpt lat="47.15599" lon="1.17739">
        <ele>100.9</ele>
        <time>2016-01-01T00:00:00Z</time>
      </trkpt>
      <trkpt lat="47.15599" lon="1.17739">
        <ele>100.9</ele>
        <time>2016-01-01T00:00:00Z</time>
      </trkpt>
      <trkpt lat="47.15601" lon="1.1769">
        <ele>102.3</ele>
        <time>2016-01-01T00:00:00Z</time>
      </trkpt>
      <trkpt lat="47.15601" lon="1.1769">
        <ele>102.3</ele>
        <time>2016-01-01T00:00:00Z</time>
      </trkpt>
      <trkpt lat="47.15601" lon="1.1769">
        <ele>102.3</ele>
        <time>2016-01-01T00:00:00Z</time>
      </trkpt>
      <trkpt lat="47.15601" lon="1.1769">
        <ele>102.3</ele>
        <time>2016-01-01T00:00:00Z</time>
      </trkpt>
      <trkpt lat="47.15606" lon="1.1765">
        <ele>102.8</ele>
        <time>2016-01-01T00:00:00Z</time>
      </trkpt>
      <trkpt lat="47.15606" lon="1.1765">
        <ele>102.8</ele>
        <time>2016-01-01T00:00:00Z</time>
      </trkpt>
      <trkpt lat="47.15606" lon="1.1765">
        <ele>102.8</ele>
        <time>2016-01-01T00:00:00Z</time>
      </trkpt>
      <trkpt lat="47.15606" lon="1.1765">
        <ele>102.8</ele>
        <time>2016-01-01T00:00:00Z</time>
      </trkpt>
      <trkpt lat="47.15616" lon="1.1759">
        <ele>102.4</ele>
        <time>2016-01-01T00:00:00Z</time>
      </trkpt>
      <trkpt lat="47.15616" lon="1.1759">
        <ele>102.4</ele>
        <time>2016-01-01T00:00:00Z</time>
      </trkpt>
      <trkpt lat="47.15616" lon="1.1759">
        <ele>102.4</ele>
        <time>2016-01-01T00:00:00Z</time>
      </trkpt>
      <trkpt lat="47.15616" lon="1.1759">
        <ele>102.4</ele>
        <time>2016-01-01T00:00:00Z</time>
      </trkpt>
      <trkpt lat="47.15626" lon="1.1754">
        <ele>102.6</ele>
        <time>2016-01-01T00:00:00Z</time>
      </trkpt>
      <trkpt lat="47.15626" lon="1.1754">
        <ele>102.6</ele>
        <time>2016-01-01T00:00:00Z</time>
      </trkpt>
      <trkpt lat="47.15626" lon="1.1754">
        <ele>102.6</ele>
        <time>2016-01-01T00:00:00Z</time>
      </trkpt>
      <trkpt lat="47.15626" lon="1.1754">
        <ele>102.6</ele>
        <time>2016-01-01T00:00:00Z</time>
      </trkpt>
      <trkpt lat="47.15642" lon="1.17486">
        <ele>102.2</ele>
        <time>2016-01-01T00:00:00Z</time>
      </trkpt>
      <trkpt lat="47.15642" lon="1.17486">
        <ele>102.2</ele>
        <time>2016-01-01T00:00:00Z</time>
      </trkpt>
      <trkpt lat="47.15642" lon="1.17486">
        <ele>102.2</ele>
        <time>2016-01-01T00:00:00Z</time>
      </trkpt>
      <trkpt lat="47.15642" lon="1.17486">
        <ele>102.2</ele>
        <time>2016-01-01T00:00:00Z</time>
      </trkpt>
      <trkpt lat="47.15655" lon="1.17451">
        <ele>101.9</ele>
        <time>2016-01-01T00:00:00Z</time>
      </trkpt>
      <trkpt lat="47.15655" lon="1.17451">
        <ele>101.9</ele>
        <time>2016-01-01T00:00:00Z</time>
      </trkpt>
      <trkpt lat="47.15655" lon="1.17451">
        <ele>101.9</ele>
        <time>2016-01-01T00:00:00Z</time>
      </trkpt>
      <trkpt lat="47.15655" lon="1.17451">
        <ele>101.9</ele>
        <time>2016-01-01T00:00:00Z</time>
      </trkpt>
      <trkpt lat="47.15679" lon="1.174">
        <ele>102.5</ele>
        <time>2016-01-01T00:00:00Z</time>
      </trkpt>
      <trkpt lat="47.15679" lon="1.174">
        <ele>102.5</ele>
        <time>2016-01-01T00:00:00Z</time>
      </trkpt>
      <trkpt lat="47.15679" lon="1.174">
        <ele>102.5</ele>
        <time>2016-01-01T00:00:00Z</time>
      </trkpt>
      <trkpt lat="47.15679" lon="1.174">
        <ele>102.5</ele>
        <time>2016-01-01T00:00:00Z</time>
      </trkpt>
      <trkpt lat="47.15722" lon="1.17319">
        <ele>102.5</ele>
        <time>2016-01-01T00:00:00Z</time>
      </trkpt>
      <trkpt lat="47.15722" lon="1.17319">
        <ele>102.5</ele>
        <time>2016-01-01T00:00:00Z</time>
      </trkpt>
      <trkpt lat="47.15722" lon="1.17319">
        <ele>102.5</ele>
        <time>2016-01-01T00:00:00Z</time>
      </trkpt>
      <trkpt lat="47.15722" lon="1.17319">
        <ele>102.5</ele>
        <time>2016-01-01T00:00:00Z</time>
      </trkpt>
      <trkpt lat="47.15758" lon="1.17262">
        <ele>101.3</ele>
        <time>2016-01-01T00:00:00Z</time>
      </trkpt>
      <trkpt lat="47.15758" lon="1.17262">
        <ele>101.3</ele>
        <time>2016-01-01T00:00:00Z</time>
      </trkpt>
      <trkpt lat="47.15758" lon="1.17262">
        <ele>101.3</ele>
        <time>2016-01-01T00:00:00Z</time>
      </trkpt>
      <trkpt lat="47.15758" lon="1.17262">
        <ele>101.3</ele>
        <time>2016-01-01T00:00:00Z</time>
      </trkpt>
      <trkpt lat="47.15793" lon="1.17198">
        <ele>98.5</ele>
        <time>2016-01-01T00:00:00Z</time>
      </trkpt>
      <trkpt lat="47.15793" lon="1.17198">
        <ele>98.5</ele>
        <time>2016-01-01T00:00:00Z</time>
      </trkpt>
      <trkpt lat="47.15793" lon="1.17198">
        <ele>98.5</ele>
        <time>2016-01-01T00:00:00Z</time>
      </trkpt>
      <trkpt lat="47.15793" lon="1.17198">
        <ele>98.5</ele>
        <time>2016-01-01T00:00:00Z</time>
      </trkpt>
      <trkpt lat="47.15804" lon="1.1718">
        <ele>97.4</ele>
        <time>2016-01-01T00:00:00Z</time>
      </trkpt>
      <trkpt lat="47.15804" lon="1.1718">
        <ele>97.4</ele>
        <time>2016-01-01T00:00:00Z</time>
      </trkpt>
      <trkpt lat="47.15804" lon="1.1718">
        <ele>97.4</ele>
        <time>2016-01-01T00:00:00Z</time>
      </trkpt>
      <trkpt lat="47.15804" lon="1.1718">
        <ele>97.4</ele>
        <time>2016-01-01T00:00:00Z</time>
      </trkpt>
      <trkpt lat="47.15837" lon="1.17123">
        <ele>96.4</ele>
        <time>2016-01-01T00:00:00Z</time>
      </trkpt>
      <trkpt lat="47.15837" lon="1.17123">
        <ele>96.4</ele>
        <time>2016-01-01T00:00:00Z</time>
      </trkpt>
      <trkpt lat="47.15837" lon="1.17123">
        <ele>96.4</ele>
        <time>2016-01-01T00:00:00Z</time>
      </trkpt>
      <trkpt lat="47.15837" lon="1.17123">
        <ele>96.4</ele>
        <time>2016-01-01T00:00:00Z</time>
      </trkpt>
      <trkpt lat="47.15864" lon="1.17084">
        <ele>96</ele>
        <time>2016-01-01T00:00:00Z</time>
      </trkpt>
      <trkpt lat="47.15864" lon="1.17084">
        <ele>96</ele>
        <time>2016-01-01T00:00:00Z</time>
      </trkpt>
      <trkpt lat="47.15864" lon="1.17084">
        <ele>96</ele>
        <time>2016-01-01T00:00:00Z</time>
      </trkpt>
      <trkpt lat="47.15864" lon="1.17084">
        <ele>96</ele>
        <time>2016-01-01T00:00:00Z</time>
      </trkpt>
      <trkpt lat="47.15893" lon="1.17036">
        <ele>94.9</ele>
        <time>2016-01-01T00:00:00Z</time>
      </trkpt>
      <trkpt lat="47.15893" lon="1.17036">
        <ele>94.9</ele>
        <time>2016-01-01T00:00:00Z</time>
      </trkpt>
      <trkpt lat="47.15893" lon="1.17036">
        <ele>94.9</ele>
        <time>2016-01-01T00:00:00Z</time>
      </trkpt>
      <trkpt lat="47.15893" lon="1.17036">
        <ele>94.9</ele>
        <time>2016-01-01T00:00:00Z</time>
      </trkpt>
      <trkpt lat="47.15924" lon="1.16988">
        <ele>93.1</ele>
        <time>2016-01-01T00:00:00Z</time>
      </trkpt>
      <trkpt lat="47.15924" lon="1.16988">
        <ele>93.1</ele>
        <time>2016-01-01T00:00:00Z</time>
      </trkpt>
      <trkpt lat="47.15924" lon="1.16988">
        <ele>93.1</ele>
        <time>2016-01-01T00:00:00Z</time>
      </trkpt>
      <trkpt lat="47.15924" lon="1.16988">
        <ele>93.1</ele>
        <time>2016-01-01T00:00:00Z</time>
      </trkpt>
      <trkpt lat="47.15959" lon="1.16922">
        <ele>93.3</ele>
        <time>2016-01-01T00:00:00Z</time>
      </trkpt>
      <trkpt lat="47.15959" lon="1.16922">
        <ele>93.3</ele>
        <time>2016-01-01T00:00:00Z</time>
      </trkpt>
      <trkpt lat="47.15959" lon="1.16922">
        <ele>93.3</ele>
        <time>2016-01-01T00:00:00Z</time>
      </trkpt>
      <trkpt lat="47.15959" lon="1.16922">
        <ele>93.3</ele>
        <time>2016-01-01T00:00:00Z</time>
      </trkpt>
      <trkpt lat="47.15976" lon="1.16885">
        <ele>93</ele>
        <time>2016-01-01T00:00:00Z</time>
      </trkpt>
      <trkpt lat="47.15976" lon="1.16885">
        <ele>93</ele>
        <time>2016-01-01T00:00:00Z</time>
      </trkpt>
      <trkpt lat="47.15976" lon="1.16885">
        <ele>93</ele>
        <time>2016-01-01T00:00:00Z</time>
      </trkpt>
      <trkpt lat="47.15976" lon="1.16885">
        <ele>93</ele>
        <time>2016-01-01T00:00:00Z</time>
      </trkpt>
      <trkpt lat="47.15991" lon="1.16851">
        <ele>93</ele>
        <time>2016-01-01T00:00:00Z</time>
      </trkpt>
      <trkpt lat="47.15991" lon="1.16851">
        <ele>93</ele>
        <time>2016-01-01T00:00:00Z</time>
      </trkpt>
      <trkpt lat="47.15991" lon="1.16851">
        <ele>93</ele>
        <time>2016-01-01T00:00:00Z</time>
      </trkpt>
      <trkpt lat="47.15991" lon="1.16851">
        <ele>93</ele>
        <time>2016-01-01T00:00:00Z</time>
      </trkpt>
      <trkpt lat="47.1601" lon="1.16799">
        <ele>93</ele>
        <time>2016-01-01T00:00:00Z</time>
      </trkpt>
      <trkpt lat="47.1601" lon="1.16799">
        <ele>93</ele>
        <time>2016-01-01T00:00:00Z</time>
      </trkpt>
      <trkpt lat="47.1601" lon="1.16799">
        <ele>93</ele>
        <time>2016-01-01T00:00:00Z</time>
      </trkpt>
      <trkpt lat="47.1601" lon="1.16799">
        <ele>93</ele>
        <time>2016-01-01T00:00:00Z</time>
      </trkpt>
      <trkpt lat="47.16017" lon="1.16795">
        <ele>92.7</ele>
        <time>2016-01-01T00:00:00Z</time>
      </trkpt>
      <trkpt lat="47.16017" lon="1.16795">
        <ele>92.7</ele>
        <time>2016-01-01T00:00:00Z</time>
      </trkpt>
      <trkpt lat="47.16017" lon="1.16795">
        <ele>92.7</ele>
        <time>2016-01-01T00:00:00Z</time>
      </trkpt>
      <trkpt lat="47.16017" lon="1.16795">
        <ele>92.7</ele>
        <time>2016-01-01T00:00:00Z</time>
      </trkpt>
      <trkpt lat="47.1603" lon="1.16789">
        <ele>92.3</ele>
        <time>2016-01-01T00:00:00Z</time>
      </trkpt>
      <trkpt lat="47.1603" lon="1.16789">
        <ele>92.3</ele>
        <time>2016-01-01T00:00:00Z</time>
      </trkpt>
      <trkpt lat="47.1603" lon="1.16789">
        <ele>92.3</ele>
        <time>2016-01-01T00:00:00Z</time>
      </trkpt>
      <trkpt lat="47.1603" lon="1.16789">
        <ele>92.3</ele>
        <time>2016-01-01T00:00:00Z</time>
      </trkpt>
      <trkpt lat="47.16059" lon="1.16769">
        <ele>91.5</ele>
        <time>2016-01-01T00:00:00Z</time>
      </trkpt>
      <trkpt lat="47.16059" lon="1.16769">
        <ele>91.5</ele>
        <time>2016-01-01T00:00:00Z</time>
      </trkpt>
      <trkpt lat="47.16059" lon="1.16769">
        <ele>91.5</ele>
        <time>2016-01-01T00:00:00Z</time>
      </trkpt>
      <trkpt lat="47.16059" lon="1.16769">
        <ele>91.5</ele>
        <time>2016-01-01T00:00:00Z</time>
      </trkpt>
      <trkpt lat="47.16083" lon="1.16755">
        <ele>90.9</ele>
        <time>2016-01-01T00:00:00Z</time>
      </trkpt>
      <trkpt lat="47.16083" lon="1.16755">
        <ele>90.9</ele>
        <time>2016-01-01T00:00:00Z</time>
      </trkpt>
      <trkpt lat="47.16083" lon="1.16755">
        <ele>90.9</ele>
        <time>2016-01-01T00:00:00Z</time>
      </trkpt>
      <trkpt lat="47.16083" lon="1.16755">
        <ele>90.9</ele>
        <time>2016-01-01T00:00:00Z</time>
      </trkpt>
      <trkpt lat="47.16091" lon="1.16752">
        <ele>91</ele>
        <time>2016-01-01T00:00:00Z</time>
      </trkpt>
      <trkpt lat="47.16091" lon="1.16752">
        <ele>91</ele>
        <time>2016-01-01T00:00:00Z</time>
      </trkpt>
      <trkpt lat="47.16091" lon="1.16752">
        <ele>91</ele>
        <time>2016-01-01T00:00:00Z</time>
      </trkpt>
      <trkpt lat="47.16091" lon="1.16752">
        <ele>91</ele>
        <time>2016-01-01T00:00:00Z</time>
      </trkpt>
      <trkpt lat="47.16102" lon="1.16752">
        <ele>91.2</ele>
        <time>2016-01-01T00:00:00Z</time>
      </trkpt>
      <trkpt lat="47.16102" lon="1.16752">
        <ele>91.2</ele>
        <time>2016-01-01T00:00:00Z</time>
      </trkpt>
      <trkpt lat="47.16102" lon="1.16752">
        <ele>91.2</ele>
        <time>2016-01-01T00:00:00Z</time>
      </trkpt>
      <trkpt lat="47.16102" lon="1.16752">
        <ele>91.2</ele>
        <time>2016-01-01T00:00:00Z</time>
      </trkpt>
      <trkpt lat="47.16112" lon="1.16758">
        <ele>91.1</ele>
        <time>2016-01-01T00:00:00Z</time>
      </trkpt>
      <trkpt lat="47.16112" lon="1.16758">
        <ele>91.1</ele>
        <time>2016-01-01T00:00:00Z</time>
      </trkpt>
      <trkpt lat="47.16112" lon="1.16758">
        <ele>91.1</ele>
        <time>2016-01-01T00:00:00Z</time>
      </trkpt>
      <trkpt lat="47.16112" lon="1.16758">
        <ele>91.1</ele>
        <time>2016-01-01T00:00:00Z</time>
      </trkpt>
      <trkpt lat="47.16128" lon="1.1677">
        <ele>90.8</ele>
        <time>2016-01-01T00:00:00Z</time>
      </trkpt>
      <trkpt lat="47.16128" lon="1.1677">
        <ele>90.8</ele>
        <time>2016-01-01T00:00:00Z</time>
      </trkpt>
      <trkpt lat="47.16128" lon="1.1677">
        <ele>90.8</ele>
        <time>2016-01-01T00:00:00Z</time>
      </trkpt>
      <trkpt lat="47.16128" lon="1.1677">
        <ele>90.8</ele>
        <time>2016-01-01T00:00:00Z</time>
      </trkpt>
      <trkpt lat="47.16159" lon="1.16796">
        <ele>89.8</ele>
        <time>2016-01-01T00:00:00Z</time>
      </trkpt>
      <trkpt lat="47.16159" lon="1.16796">
        <ele>89.8</ele>
        <time>2016-01-01T00:00:00Z</time>
      </trkpt>
      <trkpt lat="47.16159" lon="1.16796">
        <ele>89.8</ele>
        <time>2016-01-01T00:00:00Z</time>
      </trkpt>
      <trkpt lat="47.16159" lon="1.16796">
        <ele>89.8</ele>
        <time>2016-01-01T00:00:00Z</time>
      </trkpt>
      <trkpt lat="47.16168" lon="1.16801">
        <ele>89.6</ele>
        <time>2016-01-01T00:00:00Z</time>
      </trkpt>
      <trkpt lat="47.16168" lon="1.16801">
        <ele>89.6</ele>
        <time>2016-01-01T00:00:00Z</time>
      </trkpt>
      <trkpt lat="47.16168" lon="1.16801">
        <ele>89.6</ele>
        <time>2016-01-01T00:00:00Z</time>
      </trkpt>
      <trkpt lat="47.16168" lon="1.16801">
        <ele>89.6</ele>
        <time>2016-01-01T00:00:00Z</time>
      </trkpt>
      <trkpt lat="47.16177" lon="1.168">
        <ele>89.5</ele>
        <time>2016-01-01T00:00:00Z</time>
      </trkpt>
      <trkpt lat="47.16177" lon="1.168">
        <ele>89.5</ele>
        <time>2016-01-01T00:00:00Z</time>
      </trkpt>
      <trkpt lat="47.16177" lon="1.168">
        <ele>89.5</ele>
        <time>2016-01-01T00:00:00Z</time>
      </trkpt>
      <trkpt lat="47.16177" lon="1.168">
        <ele>89.5</ele>
        <time>2016-01-01T00:00:00Z</time>
      </trkpt>
      <trkpt lat="47.16177" lon="1.1679">
        <ele>89.9</ele>
        <time>2016-01-01T00:00:00Z</time>
      </trkpt>
      <trkpt lat="47.16177" lon="1.1679">
        <ele>89.9</ele>
        <time>2016-01-01T00:00:00Z</time>
      </trkpt>
      <trkpt lat="47.16177" lon="1.1679">
        <ele>89.9</ele>
        <time>2016-01-01T00:00:00Z</time>
      </trkpt>
      <trkpt lat="47.16177" lon="1.1679">
        <ele>89.9</ele>
        <time>2016-01-01T00:00:00Z</time>
      </trkpt>
      <trkpt lat="47.16179" lon="1.16778">
        <ele>90.3</ele>
        <time>2016-01-01T00:00:00Z</time>
      </trkpt>
      <trkpt lat="47.16179" lon="1.16778">
        <ele>90.3</ele>
        <time>2016-01-01T00:00:00Z</time>
      </trkpt>
      <trkpt lat="47.16179" lon="1.16778">
        <ele>90.3</ele>
        <time>2016-01-01T00:00:00Z</time>
      </trkpt>
      <trkpt lat="47.16179" lon="1.16778">
        <ele>90.3</ele>
        <time>2016-01-01T00:00:00Z</time>
      </trkpt>
      <trkpt lat="47.16188" lon="1.16741">
        <ele>91.2</ele>
        <time>2016-01-01T00:00:00Z</time>
      </trkpt>
      <trkpt lat="47.16188" lon="1.16741">
        <ele>91.2</ele>
        <time>2016-01-01T00:00:00Z</time>
      </trkpt>
      <trkpt lat="47.16188" lon="1.16741">
        <ele>91.2</ele>
        <time>2016-01-01T00:00:00Z</time>
      </trkpt>
      <trkpt lat="47.16188" lon="1.16741">
        <ele>91.2</ele>
        <time>2016-01-01T00:00:00Z</time>
      </trkpt>
      <trkpt lat="47.16193" lon="1.16714">
        <ele>91.6</ele>
        <time>2016-01-01T00:00:00Z</time>
      </trkpt>
      <trkpt lat="47.16193" lon="1.16714">
        <ele>91.6</ele>
        <time>2016-01-01T00:00:00Z</time>
      </trkpt>
      <trkpt lat="47.16193" lon="1.16714">
        <ele>91.6</ele>
        <time>2016-01-01T00:00:00Z</time>
      </trkpt>
      <trkpt lat="47.16193" lon="1.16714">
        <ele>91.6</ele>
        <time>2016-01-01T00:00:00Z</time>
      </trkpt>
      <trkpt lat="47.16199" lon="1.16681">
        <ele>92.1</ele>
        <time>2016-01-01T00:00:00Z</time>
      </trkpt>
      <trkpt lat="47.16199" lon="1.16681">
        <ele>92.1</ele>
        <time>2016-01-01T00:00:00Z</time>
      </trkpt>
      <trkpt lat="47.16199" lon="1.16681">
        <ele>92.1</ele>
        <time>2016-01-01T00:00:00Z</time>
      </trkpt>
      <trkpt lat="47.16199" lon="1.16681">
        <ele>92.1</ele>
        <time>2016-01-01T00:00:00Z</time>
      </trkpt>
      <trkpt lat="47.16203" lon="1.16659">
        <ele>92.3</ele>
        <time>2016-01-01T00:00:00Z</time>
      </trkpt>
      <trkpt lat="47.16203" lon="1.16659">
        <ele>92.3</ele>
        <time>2016-01-01T00:00:00Z</time>
      </trkpt>
      <trkpt lat="47.16203" lon="1.16659">
        <ele>92.3</ele>
        <time>2016-01-01T00:00:00Z</time>
      </trkpt>
      <trkpt lat="47.16203" lon="1.16659">
        <ele>92.3</ele>
        <time>2016-01-01T00:00:00Z</time>
      </trkpt>
      <trkpt lat="47.16194" lon="1.16647">
        <ele>92.8</ele>
        <time>2016-01-01T00:00:00Z</time>
      </trkpt>
      <trkpt lat="47.16194" lon="1.16647">
        <ele>92.8</ele>
        <time>2016-01-01T00:00:00Z</time>
      </trkpt>
      <trkpt lat="47.16194" lon="1.16647">
        <ele>92.8</ele>
        <time>2016-01-01T00:00:00Z</time>
      </trkpt>
      <trkpt lat="47.16194" lon="1.16647">
        <ele>92.8</ele>
        <time>2016-01-01T00:00:00Z</time>
      </trkpt>
      <trkpt lat="47.16179" lon="1.16621">
        <ele>93.6</ele>
        <time>2016-01-01T00:00:00Z</time>
      </trkpt>
      <trkpt lat="47.16179" lon="1.16621">
        <ele>93.6</ele>
        <time>2016-01-01T00:00:00Z</time>
      </trkpt>
      <trkpt lat="47.16179" lon="1.16621">
        <ele>93.6</ele>
        <time>2016-01-01T00:00:00Z</time>
      </trkpt>
      <trkpt lat="47.16179" lon="1.16621">
        <ele>93.6</ele>
        <time>2016-01-01T00:00:00Z</time>
      </trkpt>
      <trkpt lat="47.16173" lon="1.16611">
        <ele>93.8</ele>
        <time>2016-01-01T00:00:00Z</time>
      </trkpt>
      <trkpt lat="47.16173" lon="1.16611">
        <ele>93.8</ele>
        <time>2016-01-01T00:00:00Z</time>
      </trkpt>
      <trkpt lat="47.16173" lon="1.16611">
        <ele>93.8</ele>
        <time>2016-01-01T00:00:00Z</time>
      </trkpt>
      <trkpt lat="47.16173" lon="1.16611">
        <ele>93.8</ele>
        <time>2016-01-01T00:00:00Z</time>
      </trkpt>
      <trkpt lat="47.16169" lon="1.16605">
        <ele>93.9</ele>
        <time>2016-01-01T00:00:00Z</time>
      </trkpt>
      <trkpt lat="47.16169" lon="1.16605">
        <ele>93.9</ele>
        <time>2016-01-01T00:00:00Z</time>
      </trkpt>
      <trkpt lat="47.16169" lon="1.16605">
        <ele>93.9</ele>
        <time>2016-01-01T00:00:00Z</time>
      </trkpt>
      <trkpt lat="47.16169" lon="1.16605">
        <ele>93.9</ele>
        <time>2016-01-01T00:00:00Z</time>
      </trkpt>
      <trkpt lat="47.16161" lon="1.16589">
        <ele>94.1</ele>
        <time>2016-01-01T00:00:00Z</time>
      </trkpt>
      <trkpt lat="47.16161" lon="1.16589">
        <ele>94.1</ele>
        <time>2016-01-01T00:00:00Z</time>
      </trkpt>
      <trkpt lat="47.16161" lon="1.16589">
        <ele>94.1</ele>
        <time>2016-01-01T00:00:00Z</time>
      </trkpt>
      <trkpt lat="47.16161" lon="1.16589">
        <ele>94.1</ele>
        <time>2016-01-01T00:00:00Z</time>
      </trkpt>
      <trkpt lat="47.1614" lon="1.16548">
        <ele>94.8</ele>
        <time>2016-01-01T00:00:00Z</time>
      </trkpt>
      <trkpt lat="47.1614" lon="1.16548">
        <ele>94.8</ele>
        <time>2016-01-01T00:00:00Z</time>
      </trkpt>
      <trkpt lat="47.1614" lon="1.16548">
        <ele>94.8</ele>
        <time>2016-01-01T00:00:00Z</time>
      </trkpt>
      <trkpt lat="47.1614" lon="1.16548">
        <ele>94.8</ele>
        <time>2016-01-01T00:00:00Z</time>
      </trkpt>
      <trkpt lat="47.16134" lon="1.16541">
        <ele>94.9</ele>
        <time>2016-01-01T00:00:00Z</time>
      </trkpt>
      <trkpt lat="47.16134" lon="1.16541">
        <ele>94.9</ele>
        <time>2016-01-01T00:00:00Z</time>
      </trkpt>
      <trkpt lat="47.16134" lon="1.16541">
        <ele>94.9</ele>
        <time>2016-01-01T00:00:00Z</time>
      </trkpt>
      <trkpt lat="47.16134" lon="1.16541">
        <ele>94.9</ele>
        <time>2016-01-01T00:00:00Z</time>
      </trkpt>
      <trkpt lat="47.16131" lon="1.16537">
        <ele>95</ele>
        <time>2016-01-01T00:00:00Z</time>
      </trkpt>
      <trkpt lat="47.16131" lon="1.16537">
        <ele>95</ele>
        <time>2016-01-01T00:00:00Z</time>
      </trkpt>
      <trkpt lat="47.16131" lon="1.16537">
        <ele>95</ele>
        <time>2016-01-01T00:00:00Z</time>
      </trkpt>
      <trkpt lat="47.16131" lon="1.16537">
        <ele>95</ele>
        <time>2016-01-01T00:00:00Z</time>
      </trkpt>
      <trkpt lat="47.1612" lon="1.16515">
        <ele>95.4</ele>
        <time>2016-01-01T00:00:00Z</time>
      </trkpt>
      <trkpt lat="47.1612" lon="1.16515">
        <ele>95.4</ele>
        <time>2016-01-01T00:00:00Z</time>
      </trkpt>
      <trkpt lat="47.1612" lon="1.16515">
        <ele>95.4</ele>
        <time>2016-01-01T00:00:00Z</time>
      </trkpt>
      <trkpt lat="47.1612" lon="1.16515">
        <ele>95.4</ele>
        <time>2016-01-01T00:00:00Z</time>
      </trkpt>
      <trkpt lat="47.16118" lon="1.16511">
        <ele>95.5</ele>
        <time>2016-01-01T00:00:00Z</time>
      </trkpt>
      <trkpt lat="47.16118" lon="1.16511">
        <ele>95.5</ele>
        <time>2016-01-01T00:00:00Z</time>
      </trkpt>
      <trkpt lat="47.16118" lon="1.16511">
        <ele>95.5</ele>
        <time>2016-01-01T00:00:00Z</time>
      </trkpt>
      <trkpt lat="47.16118" lon="1.16511">
        <ele>95.5</ele>
        <time>2016-01-01T00:00:00Z</time>
      </trkpt>
      <trkpt lat="47.16117" lon="1.16507">
        <ele>95.5</ele>
        <time>2016-01-01T00:00:00Z</time>
      </trkpt>
      <trkpt lat="47.16117" lon="1.16507">
        <ele>95.5</ele>
        <time>2016-01-01T00:00:00Z</time>
      </trkpt>
      <trkpt lat="47.16117" lon="1.16507">
        <ele>95.5</ele>
        <time>2016-01-01T00:00:00Z</time>
      </trkpt>
      <trkpt lat="47.16117" lon="1.16507">
        <ele>95.5</ele>
        <time>2016-01-01T00:00:00Z</time>
      </trkpt>
      <trkpt lat="47.16117" lon="1.16503">
        <ele>95.6</ele>
        <time>2016-01-01T00:00:00Z</time>
      </trkpt>
      <trkpt lat="47.16117" lon="1.16503">
        <ele>95.6</ele>
        <time>2016-01-01T00:00:00Z</time>
      </trkpt>
      <trkpt lat="47.16117" lon="1.16503">
        <ele>95.6</ele>
        <time>2016-01-01T00:00:00Z</time>
      </trkpt>
      <trkpt lat="47.16117" lon="1.16503">
        <ele>95.6</ele>
        <time>2016-01-01T00:00:00Z</time>
      </trkpt>
      <trkpt lat="47.16116" lon="1.16499">
        <ele>95.6</ele>
        <time>2016-01-01T00:00:00Z</time>
      </trkpt>
      <trkpt lat="47.16116" lon="1.16499">
        <ele>95.6</ele>
        <time>2016-01-01T00:00:00Z</time>
      </trkpt>
      <trkpt lat="47.16116" lon="1.16499">
        <ele>95.6</ele>
        <time>2016-01-01T00:00:00Z</time>
      </trkpt>
      <trkpt lat="47.16116" lon="1.16499">
        <ele>95.6</ele>
        <time>2016-01-01T00:00:00Z</time>
      </trkpt>
      <trkpt lat="47.16115" lon="1.16495">
        <ele>95.6</ele>
        <time>2016-01-01T00:00:00Z</time>
      </trkpt>
      <trkpt lat="47.16115" lon="1.16495">
        <ele>95.6</ele>
        <time>2016-01-01T00:00:00Z</time>
      </trkpt>
      <trkpt lat="47.16115" lon="1.16495">
        <ele>95.6</ele>
        <time>2016-01-01T00:00:00Z</time>
      </trkpt>
      <trkpt lat="47.16115" lon="1.16495">
        <ele>95.6</ele>
        <time>2016-01-01T00:00:00Z</time>
      </trkpt>
      <trkpt lat="47.16104" lon="1.16473">
        <ele>95.7</ele>
        <time>2016-01-01T00:00:00Z</time>
      </trkpt>
      <trkpt lat="47.16104" lon="1.16473">
        <ele>95.7</ele>
        <time>2016-01-01T00:00:00Z</time>
      </trkpt>
      <trkpt lat="47.16104" lon="1.16473">
        <ele>95.7</ele>
        <time>2016-01-01T00:00:00Z</time>
      </trkpt>
      <trkpt lat="47.16104" lon="1.16473">
        <ele>95.7</ele>
        <time>2016-01-01T00:00:00Z</time>
      </trkpt>
      <trkpt lat="47.16092" lon="1.1645">
        <ele>95.9</ele>
        <time>2016-01-01T00:00:00Z</time>
      </trkpt>
      <trkpt lat="47.16092" lon="1.1645">
        <ele>95.9</ele>
        <time>2016-01-01T00:00:00Z</time>
      </trkpt>
      <trkpt lat="47.16092" lon="1.1645">
        <ele>95.9</ele>
        <time>2016-01-01T00:00:00Z</time>
      </trkpt>
      <trkpt lat="47.16092" lon="1.1645">
        <ele>95.9</ele>
        <time>2016-01-01T00:00:00Z</time>
      </trkpt>
      <trkpt lat="47.1608" lon="1.16426">
        <ele>96</ele>
        <time>2016-01-01T00:00:00Z</time>
      </trkpt>
      <trkpt lat="47.1608" lon="1.16426">
        <ele>96</ele>
        <time>2016-01-01T00:00:00Z</time>
      </trkpt>
      <trkpt lat="47.1608" lon="1.16426">
        <ele>96</ele>
        <time>2016-01-01T00:00:00Z</time>
      </trkpt>
      <trkpt lat="47.1608" lon="1.16426">
        <ele>96</ele>
        <time>2016-01-01T00:00:00Z</time>
      </trkpt>
      <trkpt lat="47.16053" lon="1.16373">
        <ele>96.2</ele>
        <time>2016-01-01T00:00:00Z</time>
      </trkpt>
      <trkpt lat="47.16053" lon="1.16373">
        <ele>96.2</ele>
        <time>2016-01-01T00:00:00Z</time>
      </trkpt>
      <trkpt lat="47.16053" lon="1.16373">
        <ele>96.2</ele>
        <time>2016-01-01T00:00:00Z</time>
      </trkpt>
      <trkpt lat="47.16053" lon="1.16373">
        <ele>96.2</ele>
        <time>2016-01-01T00:00:00Z</time>
      </trkpt>
      <trkpt lat="47.16045" lon="1.16357">
        <ele>96.1</ele>
        <time>2016-01-01T00:00:00Z</time>
      </trkpt>
      <trkpt lat="47.16045" lon="1.16357">
        <ele>96.1</ele>
        <time>2016-01-01T00:00:00Z</time>
      </trkpt>
      <trkpt lat="47.16045" lon="1.16357">
        <ele>96.1</ele>
        <time>2016-01-01T00:00:00Z</time>
      </trkpt>
      <trkpt lat="47.16045" lon="1.16357">
        <ele>96.1</ele>
        <time>2016-01-01T00:00:00Z</time>
      </trkpt>
      <trkpt lat="47.16029" lon="1.16317">
        <ele>95.8</ele>
        <time>2016-01-01T00:00:00Z</time>
      </trkpt>
      <trkpt lat="47.16029" lon="1.16317">
        <ele>95.8</ele>
        <time>2016-01-01T00:00:00Z</time>
      </trkpt>
      <trkpt lat="47.16029" lon="1.16317">
        <ele>95.8</ele>
        <time>2016-01-01T00:00:00Z</time>
      </trkpt>
      <trkpt lat="47.16029" lon="1.16317">
        <ele>95.8</ele>
        <time>2016-01-01T00:00:00Z</time>
      </trkpt>
      <trkpt lat="47.16018" lon="1.1629">
        <ele>95.5</ele>
        <time>2016-01-01T00:00:00Z</time>
      </trkpt>
      <trkpt lat="47.16018" lon="1.1629">
        <ele>95.5</ele>
        <time>2016-01-01T00:00:00Z</time>
      </trkpt>
      <trkpt lat="47.16018" lon="1.1629">
        <ele>95.5</ele>
        <time>2016-01-01T00:00:00Z</time>
      </trkpt>
      <trkpt lat="47.16018" lon="1.1629">
        <ele>95.5</ele>
        <time>2016-01-01T00:00:00Z</time>
      </trkpt>
      <trkpt lat="47.16008" lon="1.16266">
        <ele>95.2</ele>
        <time>2016-01-01T00:00:00Z</time>
      </trkpt>
      <trkpt lat="47.16008" lon="1.16266">
        <ele>95.2</ele>
        <time>2016-01-01T00:00:00Z</time>
      </trkpt>
      <trkpt lat="47.16008" lon="1.16266">
        <ele>95.2</ele>
        <time>2016-01-01T00:00:00Z</time>
      </trkpt>
      <trkpt lat="47.16008" lon="1.16266">
        <ele>95.2</ele>
        <time>2016-01-01T00:00:00Z</time>
      </trkpt>
      <trkpt lat="47.15999" lon="1.16247">
        <ele>94.9</ele>
        <time>2016-01-01T00:00:00Z</time>
      </trkpt>
      <trkpt lat="47.15999" lon="1.16247">
        <ele>94.9</ele>
        <time>2016-01-01T00:00:00Z</time>
      </trkpt>
      <trkpt lat="47.15999" lon="1.16247">
        <ele>94.9</ele>
        <time>2016-01-01T00:00:00Z</time>
      </trkpt>
      <trkpt lat="47.15999" lon="1.16247">
        <ele>94.9</ele>
        <time>2016-01-01T00:00:00Z</time>
      </trkpt>
      <trkpt lat="47.15995" lon="1.16238">
        <ele>94.8</ele>
        <time>2016-01-01T00:00:00Z</time>
      </trkpt>
      <trkpt lat="47.15995" lon="1.16238">
        <ele>94.8</ele>
        <time>2016-01-01T00:00:00Z</time>
      </trkpt>
      <trkpt lat="47.15995" lon="1.16238">
        <ele>94.8</ele>
        <time>2016-01-01T00:00:00Z</time>
      </trkpt>
      <trkpt lat="47.15995" lon="1.16238">
        <ele>94.8</ele>
        <time>2016-01-01T00:00:00Z</time>
      </trkpt>
      <trkpt lat="47.15982" lon="1.16219">
        <ele>94.6</ele>
        <time>2016-01-01T00:00:00Z</time>
      </trkpt>
      <trkpt lat="47.15982" lon="1.16219">
        <ele>94.6</ele>
        <time>2016-01-01T00:00:00Z</time>
      </trkpt>
      <trkpt lat="47.15982" lon="1.16219">
        <ele>94.6</ele>
        <time>2016-01-01T00:00:00Z</time>
      </trkpt>
      <trkpt lat="47.15982" lon="1.16219">
        <ele>94.6</ele>
        <time>2016-01-01T00:00:00Z</time>
      </trkpt>
      <trkpt lat="47.15971" lon="1.16203">
        <ele>94.4</ele>
        <time>2016-01-01T00:00:00Z</time>
      </trkpt>
      <trkpt lat="47.15971" lon="1.16203">
        <ele>94.4</ele>
        <time>2016-01-01T00:00:00Z</time>
      </trkpt>
      <trkpt lat="47.15971" lon="1.16203">
        <ele>94.4</ele>
        <time>2016-01-01T00:00:00Z</time>
      </trkpt>
      <trkpt lat="47.15971" lon="1.16203">
        <ele>94.4</ele>
        <time>2016-01-01T00:00:00Z</time>
      </trkpt>
      <trkpt lat="47.15959" lon="1.1619">
        <ele>94.4</ele>
        <time>2016-01-01T00:00:00Z</time>
      </trkpt>
      <trkpt lat="47.15959" lon="1.1619">
        <ele>94.4</ele>
        <time>2016-01-01T00:00:00Z</time>
      </trkpt>
      <trkpt lat="47.15959" lon="1.1619">
        <ele>94.4</ele>
        <time>2016-01-01T00:00:00Z</time>
      </trkpt>
      <trkpt lat="47.15959" lon="1.1619">
        <ele>94.4</ele>
        <time>2016-01-01T00:00:00Z</time>
      </trkpt>
      <trkpt lat="47.15952" lon="1.16184">
        <ele>94.4</ele>
        <time>2016-01-01T00:00:00Z</time>
      </trkpt>
      <trkpt lat="47.15952" lon="1.16184">
        <ele>94.4</ele>
        <time>2016-01-01T00:00:00Z</time>
      </trkpt>
      <trkpt lat="47.15952" lon="1.16184">
        <ele>94.4</ele>
        <time>2016-01-01T00:00:00Z</time>
      </trkpt>
      <trkpt lat="47.15952" lon="1.16184">
        <ele>94.4</ele>
        <time>2016-01-01T00:00:00Z</time>
      </trkpt>
      <trkpt lat="47.15925" lon="1.16159">
        <ele>94.6</ele>
        <time>2016-01-01T00:00:00Z</time>
      </trkpt>
      <trkpt lat="47.15925" lon="1.16159">
        <ele>94.6</ele>
        <time>2016-01-01T00:00:00Z</time>
      </trkpt>
      <trkpt lat="47.15925" lon="1.16159">
        <ele>94.6</ele>
        <time>2016-01-01T00:00:00Z</time>
      </trkpt>
      <trkpt lat="47.15925" lon="1.16159">
        <ele>94.6</ele>
        <time>2016-01-01T00:00:00Z</time>
      </trkpt>
      <trkpt lat="47.15921" lon="1.16156">
        <ele>94.6</ele>
        <time>2016-01-01T00:00:00Z</time>
      </trkpt>
      <trkpt lat="47.15921" lon="1.16156">
        <ele>94.6</ele>
        <time>2016-01-01T00:00:00Z</time>
      </trkpt>
      <trkpt lat="47.15921" lon="1.16156">
        <ele>94.6</ele>
        <time>2016-01-01T00:00:00Z</time>
      </trkpt>
      <trkpt lat="47.15921" lon="1.16156">
        <ele>94.6</ele>
        <time>2016-01-01T00:00:00Z</time>
      </trkpt>
      <trkpt lat="47.15889" lon="1.16126">
        <ele>94.5</ele>
        <time>2016-01-01T00:00:00Z</time>
      </trkpt>
      <trkpt lat="47.15889" lon="1.16126">
        <ele>94.5</ele>
        <time>2016-01-01T00:00:00Z</time>
      </trkpt>
      <trkpt lat="47.15889" lon="1.16126">
        <ele>94.5</ele>
        <time>2016-01-01T00:00:00Z</time>
      </trkpt>
      <trkpt lat="47.15889" lon="1.16126">
        <ele>94.5</ele>
        <time>2016-01-01T00:00:00Z</time>
      </trkpt>
      <trkpt lat="47.15848" lon="1.1609">
        <ele>94</ele>
        <time>2016-01-01T00:00:00Z</time>
      </trkpt>
      <trkpt lat="47.15848" lon="1.1609">
        <ele>94</ele>
        <time>2016-01-01T00:00:00Z</time>
      </trkpt>
      <trkpt lat="47.15848" lon="1.1609">
        <ele>94</ele>
        <time>2016-01-01T00:00:00Z</time>
      </trkpt>
      <trkpt lat="47.15848" lon="1.1609">
        <ele>94</ele>
        <time>2016-01-01T00:00:00Z</time>
      </trkpt>
      <trkpt lat="47.1581" lon="1.16056">
        <ele>93.9</ele>
        <time>2016-01-01T00:00:00Z</time>
      </trkpt>
      <trkpt lat="47.1581" lon="1.16056">
        <ele>93.9</ele>
        <time>2016-01-01T00:00:00Z</time>
      </trkpt>
      <trkpt lat="47.1581" lon="1.16056">
        <ele>93.9</ele>
        <time>2016-01-01T00:00:00Z</time>
      </trkpt>
      <trkpt lat="47.1581" lon="1.16056">
        <ele>93.9</ele>
        <time>2016-01-01T00:00:00Z</time>
      </trkpt>
      <trkpt lat="47.1579" lon="1.16035">
        <ele>94.1</ele>
        <time>2016-01-01T00:00:00Z</time>
      </trkpt>
      <trkpt lat="47.1579" lon="1.16035">
        <ele>94.1</ele>
        <time>2016-01-01T00:00:00Z</time>
      </trkpt>
      <trkpt lat="47.1579" lon="1.16035">
        <ele>94.1</ele>
        <time>2016-01-01T00:00:00Z</time>
      </trkpt>
      <trkpt lat="47.1579" lon="1.16035">
        <ele>94.1</ele>
        <time>2016-01-01T00:00:00Z</time>
      </trkpt>
      <trkpt lat="47.15786" lon="1.16032">
        <ele>94.1</ele>
        <time>2016-01-01T00:00:00Z</time>
      </trkpt>
      <trkpt lat="47.15786" lon="1.16032">
        <ele>94.1</ele>
        <time>2016-01-01T00:00:00Z</time>
      </trkpt>
      <trkpt lat="47.15786" lon="1.16032">
        <ele>94.1</ele>
        <time>2016-01-01T00:00:00Z</time>
      </trkpt>
      <trkpt lat="47.15786" lon="1.16032">
        <ele>94.1</ele>
        <time>2016-01-01T00:00:00Z</time>
      </trkpt>
      <trkpt lat="47.15776" lon="1.16021">
        <ele>94.2</ele>
        <time>2016-01-01T00:00:00Z</time>
      </trkpt>
      <trkpt lat="47.15776" lon="1.16021">
        <ele>94.2</ele>
        <time>2016-01-01T00:00:00Z</time>
      </trkpt>
      <trkpt lat="47.15776" lon="1.16021">
        <ele>94.2</ele>
        <time>2016-01-01T00:00:00Z</time>
      </trkpt>
      <trkpt lat="47.15776" lon="1.16021">
        <ele>94.2</ele>
        <time>2016-01-01T00:00:00Z</time>
      </trkpt>
      <trkpt lat="47.15762" lon="1.16006">
        <ele>94.4</ele>
        <time>2016-01-01T00:00:00Z</time>
      </trkpt>
      <trkpt lat="47.15762" lon="1.16006">
        <ele>94.4</ele>
        <time>2016-01-01T00:00:00Z</time>
      </trkpt>
      <trkpt lat="47.15762" lon="1.16006">
        <ele>94.4</ele>
        <time>2016-01-01T00:00:00Z</time>
      </trkpt>
      <trkpt lat="47.15762" lon="1.16006">
        <ele>94.4</ele>
        <time>2016-01-01T00:00:00Z</time>
      </trkpt>
      <trkpt lat="47.15741" lon="1.15982">
        <ele>94.9</ele>
        <time>2016-01-01T00:00:00Z</time>
      </trkpt>
      <trkpt lat="47.15741" lon="1.15982">
        <ele>94.9</ele>
        <time>2016-01-01T00:00:00Z</time>
      </trkpt>
      <trkpt lat="47.15741" lon="1.15982">
        <ele>94.9</ele>
        <time>2016-01-01T00:00:00Z</time>
      </trkpt>
      <trkpt lat="47.15741" lon="1.15982">
        <ele>94.9</ele>
        <time>2016-01-01T00:00:00Z</time>
      </trkpt>
      <trkpt lat="47.15692" lon="1.15929">
        <ele>96.6</ele>
        <time>2016-01-01T00:00:00Z</time>
      </trkpt>
      <trkpt lat="47.15692" lon="1.15929">
        <ele>96.6</ele>
        <time>2016-01-01T00:00:00Z</time>
      </trkpt>
      <trkpt lat="47.15692" lon="1.15929">
        <ele>96.6</ele>
        <time>2016-01-01T00:00:00Z</time>
      </trkpt>
      <trkpt lat="47.15692" lon="1.15929">
        <ele>96.6</ele>
        <time>2016-01-01T00:00:00Z</time>
      </trkpt>
      <trkpt lat="47.15653" lon="1.15884">
        <ele>97.7</ele>
        <time>2016-01-01T00:00:00Z</time>
      </trkpt>
      <trkpt lat="47.15653" lon="1.15884">
        <ele>97.7</ele>
        <time>2016-01-01T00:00:00Z</time>
      </trkpt>
      <trkpt lat="47.15653" lon="1.15884">
        <ele>97.7</ele>
        <time>2016-01-01T00:00:00Z</time>
      </trkpt>
      <trkpt lat="47.15653" lon="1.15884">
        <ele>97.7</ele>
        <time>2016-01-01T00:00:00Z</time>
      </trkpt>
      <trkpt lat="47.15617" lon="1.15843">
        <ele>98.9</ele>
        <time>2016-01-01T00:00:00Z</time>
      </trkpt>
      <trkpt lat="47.15617" lon="1.15843">
        <ele>98.9</ele>
        <time>2016-01-01T00:00:00Z</time>
      </trkpt>
      <trkpt lat="47.15617" lon="1.15843">
        <ele>98.9</ele>
        <time>2016-01-01T00:00:00Z</time>
      </trkpt>
      <trkpt lat="47.15617" lon="1.15843">
        <ele>98.9</ele>
        <time>2016-01-01T00:00:00Z</time>
      </trkpt>
      <trkpt lat="47.156" lon="1.15829">
        <ele>99.6</ele>
        <time>2016-01-01T00:00:00Z</time>
      </trkpt>
      <trkpt lat="47.156" lon="1.15829">
        <ele>99.6</ele>
        <time>2016-01-01T00:00:00Z</time>
      </trkpt>
      <trkpt lat="47.156" lon="1.15829">
        <ele>99.6</ele>
        <time>2016-01-01T00:00:00Z</time>
      </trkpt>
      <trkpt lat="47.156" lon="1.15829">
        <ele>99.6</ele>
        <time>2016-01-01T00:00:00Z</time>
      </trkpt>
      <trkpt lat="47.15591" lon="1.15822">
        <ele>100.1</ele>
        <time>2016-01-01T00:00:00Z</time>
      </trkpt>
      <trkpt lat="47.15591" lon="1.15822">
        <ele>100.1</ele>
        <time>2016-01-01T00:00:00Z</time>
      </trkpt>
      <trkpt lat="47.15591" lon="1.15822">
        <ele>100.1</ele>
        <time>2016-01-01T00:00:00Z</time>
      </trkpt>
      <trkpt lat="47.15591" lon="1.15822">
        <ele>100.1</ele>
        <time>2016-01-01T00:00:00Z</time>
      </trkpt>
      <trkpt lat="47.15594" lon="1.15774">
        <ele>98.2</ele>
        <time>2016-01-01T00:00:00Z</time>
      </trkpt>
      <trkpt lat="47.15594" lon="1.15774">
        <ele>98.2</ele>
        <time>2016-01-01T00:00:00Z</time>
      </trkpt>
      <trkpt lat="47.15594" lon="1.15774">
        <ele>98.2</ele>
        <time>2016-01-01T00:00:00Z</time>
      </trkpt>
      <trkpt lat="47.15594" lon="1.15774">
        <ele>98.2</ele>
        <time>2016-01-01T00:00:00Z</time>
      </trkpt>
      <trkpt lat="47.15597" lon="1.1574">
        <ele>97</ele>
        <time>2016-01-01T00:00:00Z</time>
      </trkpt>
      <trkpt lat="47.15597" lon="1.1574">
        <ele>97</ele>
        <time>2016-01-01T00:00:00Z</time>
      </trkpt>
      <trkpt lat="47.15597" lon="1.1574">
        <ele>97</ele>
        <time>2016-01-01T00:00:00Z</time>
      </trkpt>
      <trkpt lat="47.15597" lon="1.1574">
        <ele>97</ele>
        <time>2016-01-01T00:00:00Z</time>
      </trkpt>
      <trkpt lat="47.15599" lon="1.15705">
        <ele>96.4</ele>
        <time>2016-01-01T00:00:00Z</time>
      </trkpt>
      <trkpt lat="47.15599" lon="1.15705">
        <ele>96.4</ele>
        <time>2016-01-01T00:00:00Z</time>
      </trkpt>
      <trkpt lat="47.15599" lon="1.15705">
        <ele>96.4</ele>
        <time>2016-01-01T00:00:00Z</time>
      </trkpt>
      <trkpt lat="47.15599" lon="1.15705">
        <ele>96.4</ele>
        <time>2016-01-01T00:00:00Z</time>
      </trkpt>
      <trkpt lat="47.15601" lon="1.15662">
        <ele>95.6</ele>
        <time>2016-01-01T00:00:00Z</time>
      </trkpt>
      <trkpt lat="47.15601" lon="1.15662">
        <ele>95.6</ele>
        <time>2016-01-01T00:00:00Z</time>
      </trkpt>
      <trkpt lat="47.15601" lon="1.15662">
        <ele>95.6</ele>
        <time>2016-01-01T00:00:00Z</time>
      </trkpt>
      <trkpt lat="47.15601" lon="1.15662">
        <ele>95.6</ele>
        <time>2016-01-01T00:00:00Z</time>
      </trkpt>
      <trkpt lat="47.15605" lon="1.15619">
        <ele>94.3</ele>
        <time>2016-01-01T00:00:00Z</time>
      </trkpt>
      <trkpt lat="47.15605" lon="1.15619">
        <ele>94.3</ele>
        <time>2016-01-01T00:00:00Z</time>
      </trkpt>
      <trkpt lat="47.15605" lon="1.15619">
        <ele>94.3</ele>
        <time>2016-01-01T00:00:00Z</time>
      </trkpt>
      <trkpt lat="47.15605" lon="1.15619">
        <ele>94.3</ele>
        <time>2016-01-01T00:00:00Z</time>
      </trkpt>
      <trkpt lat="47.15607" lon="1.15592">
        <ele>93.6</ele>
        <time>2016-01-01T00:00:00Z</time>
      </trkpt>
      <trkpt lat="47.15607" lon="1.15592">
        <ele>93.6</ele>
        <time>2016-01-01T00:00:00Z</time>
      </trkpt>
      <trkpt lat="47.15607" lon="1.15592">
        <ele>93.6</ele>
        <time>2016-01-01T00:00:00Z</time>
      </trkpt>
      <trkpt lat="47.15607" lon="1.15592">
        <ele>93.6</ele>
        <time>2016-01-01T00:00:00Z</time>
      </trkpt>
      <trkpt lat="47.15608" lon="1.15576">
        <ele>93.3</ele>
        <time>2016-01-01T00:00:00Z</time>
      </trkpt>
      <trkpt lat="47.15608" lon="1.15576">
        <ele>93.3</ele>
        <time>2016-01-01T00:00:00Z</time>
      </trkpt>
      <trkpt lat="47.15608" lon="1.15576">
        <ele>93.3</ele>
        <time>2016-01-01T00:00:00Z</time>
      </trkpt>
      <trkpt lat="47.15608" lon="1.15576">
        <ele>93.3</ele>
        <time>2016-01-01T00:00:00Z</time>
      </trkpt>
      <trkpt lat="47.15608" lon="1.15569">
        <ele>93.3</ele>
        <time>2016-01-01T00:00:00Z</time>
      </trkpt>
      <trkpt lat="47.15608" lon="1.15569">
        <ele>93.3</ele>
        <time>2016-01-01T00:00:00Z</time>
      </trkpt>
      <trkpt lat="47.15608" lon="1.15569">
        <ele>93.3</ele>
        <time>2016-01-01T00:00:00Z</time>
      </trkpt>
      <trkpt lat="47.15608" lon="1.15569">
        <ele>93.3</ele>
        <time>2016-01-01T00:00:00Z</time>
      </trkpt>
      <trkpt lat="47.15608" lon="1.1556">
        <ele>93.2</ele>
        <time>2016-01-01T00:00:00Z</time>
      </trkpt>
      <trkpt lat="47.15608" lon="1.1556">
        <ele>93.2</ele>
        <time>2016-01-01T00:00:00Z</time>
      </trkpt>
      <trkpt lat="47.15608" lon="1.1556">
        <ele>93.2</ele>
        <time>2016-01-01T00:00:00Z</time>
      </trkpt>
      <trkpt lat="47.15608" lon="1.1556">
        <ele>93.2</ele>
        <time>2016-01-01T00:00:00Z</time>
      </trkpt>
      <trkpt lat="47.15606" lon="1.15547">
        <ele>93.2</ele>
        <time>2016-01-01T00:00:00Z</time>
      </trkpt>
      <trkpt lat="47.15606" lon="1.15547">
        <ele>93.2</ele>
        <time>2016-01-01T00:00:00Z</time>
      </trkpt>
      <trkpt lat="47.15606" lon="1.15547">
        <ele>93.2</ele>
        <time>2016-01-01T00:00:00Z</time>
      </trkpt>
      <trkpt lat="47.15606" lon="1.15547">
        <ele>93.2</ele>
        <time>2016-01-01T00:00:00Z</time>
      </trkpt>
      <trkpt lat="47.15602" lon="1.15516">
        <ele>93.3</ele>
        <time>2016-01-01T00:00:00Z</time>
      </trkpt>
      <trkpt lat="47.15602" lon="1.15516">
        <ele>93.3</ele>
        <time>2016-01-01T00:00:00Z</time>
      </trkpt>
      <trkpt lat="47.15602" lon="1.15516">
        <ele>93.3</ele>
        <time>2016-01-01T00:00:00Z</time>
      </trkpt>
      <trkpt lat="47.15602" lon="1.15516">
        <ele>93.3</ele>
        <time>2016-01-01T00:00:00Z</time>
      </trkpt>
      <trkpt lat="47.15596" lon="1.15467">
        <ele>94.8</ele>
        <time>2016-01-01T00:00:00Z</time>
      </trkpt>
      <trkpt lat="47.15596" lon="1.15467">
        <ele>94.8</ele>
        <time>2016-01-01T00:00:00Z</time>
      </trkpt>
      <trkpt lat="47.15596" lon="1.15467">
        <ele>94.8</ele>
        <time>2016-01-01T00:00:00Z</time>
      </trkpt>
      <trkpt lat="47.15596" lon="1.15467">
        <ele>94.8</ele>
        <time>2016-01-01T00:00:00Z</time>
      </trkpt>
      <trkpt lat="47.15595" lon="1.15451">
        <ele>95.4</ele>
        <time>2016-01-01T00:00:00Z</time>
      </trkpt>
      <trkpt lat="47.15595" lon="1.15451">
        <ele>95.4</ele>
        <time>2016-01-01T00:00:00Z</time>
      </trkpt>
      <trkpt lat="47.15595" lon="1.15451">
        <ele>95.4</ele>
        <time>2016-01-01T00:00:00Z</time>
      </trkpt>
      <trkpt lat="47.15595" lon="1.15451">
        <ele>95.4</ele>
        <time>2016-01-01T00:00:00Z</time>
      </trkpt>
      <trkpt lat="47.15582" lon="1.15429">
        <ele>97.6</ele>
        <time>2016-01-01T00:00:00Z</time>
      </trkpt>
      <trkpt lat="47.15582" lon="1.15429">
        <ele>97.6</ele>
        <time>2016-01-01T00:00:00Z</time>
      </trkpt>
      <trkpt lat="47.15582" lon="1.15429">
        <ele>97.6</ele>
        <time>2016-01-01T00:00:00Z</time>
      </trkpt>
      <trkpt lat="47.15582" lon="1.15429">
        <ele>97.6</ele>
        <time>2016-01-01T00:00:00Z</time>
      </trkpt>
      <trkpt lat="47.1557" lon="1.15409">
        <ele>99.2</ele>
        <time>2016-01-01T00:00:00Z</time>
      </trkpt>
      <trkpt lat="47.1557" lon="1.15409">
        <ele>99.2</ele>
        <time>2016-01-01T00:00:00Z</time>
      </trkpt>
      <trkpt lat="47.1557" lon="1.15409">
        <ele>99.2</ele>
        <time>2016-01-01T00:00:00Z</time>
      </trkpt>
      <trkpt lat="47.1557" lon="1.15409">
        <ele>99.2</ele>
        <time>2016-01-01T00:00:00Z</time>
      </trkpt>
      <trkpt lat="47.15563" lon="1.15396">
        <ele>100.1</ele>
        <time>2016-01-01T00:00:00Z</time>
      </trkpt>
      <trkpt lat="47.15563" lon="1.15396">
        <ele>100.1</ele>
        <time>2016-01-01T00:00:00Z</time>
      </trkpt>
      <trkpt lat="47.15563" lon="1.15396">
        <ele>100.1</ele>
        <time>2016-01-01T00:00:00Z</time>
      </trkpt>
      <trkpt lat="47.15563" lon="1.15396">
        <ele>100.1</ele>
        <time>2016-01-01T00:00:00Z</time>
      </trkpt>
      <trkpt lat="47.15555" lon="1.15384">
        <ele>101</ele>
        <time>2016-01-01T00:00:00Z</time>
      </trkpt>
      <trkpt lat="47.15555" lon="1.15384">
        <ele>101</ele>
        <time>2016-01-01T00:00:00Z</time>
      </trkpt>
      <trkpt lat="47.15555" lon="1.15384">
        <ele>101</ele>
        <time>2016-01-01T00:00:00Z</time>
      </trkpt>
      <trkpt lat="47.15555" lon="1.15384">
        <ele>101</ele>
        <time>2016-01-01T00:00:00Z</time>
      </trkpt>
      <trkpt lat="47.15546" lon="1.15369">
        <ele>101.9</ele>
        <time>2016-01-01T00:00:00Z</time>
      </trkpt>
      <trkpt lat="47.15546" lon="1.15369">
        <ele>101.9</ele>
        <time>2016-01-01T00:00:00Z</time>
      </trkpt>
      <trkpt lat="47.15546" lon="1.15369">
        <ele>101.9</ele>
        <time>2016-01-01T00:00:00Z</time>
      </trkpt>
      <trkpt lat="47.15546" lon="1.15369">
        <ele>101.9</ele>
        <time>2016-01-01T00:00:00Z</time>
      </trkpt>
      <trkpt lat="47.15536" lon="1.15354">
        <ele>102.8</ele>
        <time>2016-01-01T00:00:00Z</time>
      </trkpt>
      <trkpt lat="47.15536" lon="1.15354">
        <ele>102.8</ele>
        <time>2016-01-01T00:00:00Z</time>
      </trkpt>
      <trkpt lat="47.15536" lon="1.15354">
        <ele>102.8</ele>
        <time>2016-01-01T00:00:00Z</time>
      </trkpt>
      <trkpt lat="47.15536" lon="1.15354">
        <ele>102.8</ele>
        <time>2016-01-01T00:00:00Z</time>
      </trkpt>
      <trkpt lat="47.15523" lon="1.15339">
        <ele>103.8</ele>
        <time>2016-01-01T00:00:00Z</time>
      </trkpt>
      <trkpt lat="47.15523" lon="1.15339">
        <ele>103.8</ele>
        <time>2016-01-01T00:00:00Z</time>
      </trkpt>
      <trkpt lat="47.15523" lon="1.15339">
        <ele>103.8</ele>
        <time>2016-01-01T00:00:00Z</time>
      </trkpt>
      <trkpt lat="47.15523" lon="1.15339">
        <ele>103.8</ele>
        <time>2016-01-01T00:00:00Z</time>
      </trkpt>
      <trkpt lat="47.15513" lon="1.15321">
        <ele>104.9</ele>
        <time>2016-01-01T00:00:00Z</time>
      </trkpt>
      <trkpt lat="47.15513" lon="1.15321">
        <ele>104.9</ele>
        <time>2016-01-01T00:00:00Z</time>
      </trkpt>
      <trkpt lat="47.15513" lon="1.15321">
        <ele>104.9</ele>
        <time>2016-01-01T00:00:00Z</time>
      </trkpt>
      <trkpt lat="47.15513" lon="1.15321">
        <ele>104.9</ele>
        <time>2016-01-01T00:00:00Z</time>
      </trkpt>
      <trkpt lat="47.15505" lon="1.15311">
        <ele>105.8</ele>
        <time>2016-01-01T00:00:00Z</time>
      </trkpt>
      <trkpt lat="47.15505" lon="1.15311">
        <ele>105.8</ele>
        <time>2016-01-01T00:00:00Z</time>
      </trkpt>
      <trkpt lat="47.15505" lon="1.15311">
        <ele>105.8</ele>
        <time>2016-01-01T00:00:00Z</time>
      </trkpt>
      <trkpt lat="47.15505" lon="1.15311">
        <ele>105.8</ele>
        <time>2016-01-01T00:00:00Z</time>
      </trkpt>
      <trkpt lat="47.15499" lon="1.15299">
        <ele>106.8</ele>
        <time>2016-01-01T00:00:00Z</time>
      </trkpt>
      <trkpt lat="47.15499" lon="1.15299">
        <ele>106.8</ele>
        <time>2016-01-01T00:00:00Z</time>
      </trkpt>
      <trkpt lat="47.15499" lon="1.15299">
        <ele>106.8</ele>
        <time>2016-01-01T00:00:00Z</time>
      </trkpt>
      <trkpt lat="47.15499" lon="1.15299">
        <ele>106.8</ele>
        <time>2016-01-01T00:00:00Z</time>
      </trkpt>
      <trkpt lat="47.15496" lon="1.15287">
        <ele>107.5</ele>
        <time>2016-01-01T00:00:00Z</time>
      </trkpt>
      <trkpt lat="47.15496" lon="1.15287">
        <ele>107.5</ele>
        <time>2016-01-01T00:00:00Z</time>
      </trkpt>
      <trkpt lat="47.15496" lon="1.15287">
        <ele>107.5</ele>
        <time>2016-01-01T00:00:00Z</time>
      </trkpt>
      <trkpt lat="47.15496" lon="1.15287">
        <ele>107.5</ele>
        <time>2016-01-01T00:00:00Z</time>
      </trkpt>
      <trkpt lat="47.15496" lon="1.15261">
        <ele>108.7</ele>
        <time>2016-01-01T00:00:00Z</time>
      </trkpt>
      <trkpt lat="47.15496" lon="1.15261">
        <ele>108.7</ele>
        <time>2016-01-01T00:00:00Z</time>
      </trkpt>
      <trkpt lat="47.15496" lon="1.15261">
        <ele>108.7</ele>
        <time>2016-01-01T00:00:00Z</time>
      </trkpt>
      <trkpt lat="47.15496" lon="1.15261">
        <ele>108.7</ele>
        <time>2016-01-01T00:00:00Z</time>
      </trkpt>
      <trkpt lat="47.15499" lon="1.15227">
        <ele>110.5</ele>
        <time>2016-01-01T00:00:00Z</time>
      </trkpt>
      <trkpt lat="47.15499" lon="1.15227">
        <ele>110.5</ele>
        <time>2016-01-01T00:00:00Z</time>
      </trkpt>
      <trkpt lat="47.15499" lon="1.15227">
        <ele>110.5</ele>
        <time>2016-01-01T00:00:00Z</time>
      </trkpt>
      <trkpt lat="47.15499" lon="1.15227">
        <ele>110.5</ele>
        <time>2016-01-01T00:00:00Z</time>
      </trkpt>
      <trkpt lat="47.155" lon="1.15215">
        <ele>111.1</ele>
        <time>2016-01-01T00:00:00Z</time>
      </trkpt>
      <trkpt lat="47.155" lon="1.15215">
        <ele>111.1</ele>
        <time>2016-01-01T00:00:00Z</time>
      </trkpt>
      <trkpt lat="47.155" lon="1.15215">
        <ele>111.1</ele>
        <time>2016-01-01T00:00:00Z</time>
      </trkpt>
      <trkpt lat="47.155" lon="1.15215">
        <ele>111.1</ele>
        <time>2016-01-01T00:00:00Z</time>
      </trkpt>
      <trkpt lat="47.15499" lon="1.15202">
        <ele>111.9</ele>
        <time>2016-01-01T00:00:00Z</time>
      </trkpt>
      <trkpt lat="47.15499" lon="1.15202">
        <ele>111.9</ele>
        <time>2016-01-01T00:00:00Z</time>
      </trkpt>
      <trkpt lat="47.15499" lon="1.15202">
        <ele>111.9</ele>
        <time>2016-01-01T00:00:00Z</time>
      </trkpt>
      <trkpt lat="47.15499" lon="1.15202">
        <ele>111.9</ele>
        <time>2016-01-01T00:00:00Z</time>
      </trkpt>
      <trkpt lat="47.15498" lon="1.15187">
        <ele>112.9</ele>
        <time>2016-01-01T00:00:00Z</time>
      </trkpt>
      <trkpt lat="47.15498" lon="1.15187">
        <ele>112.9</ele>
        <time>2016-01-01T00:00:00Z</time>
      </trkpt>
      <trkpt lat="47.15498" lon="1.15187">
        <ele>112.9</ele>
        <time>2016-01-01T00:00:00Z</time>
      </trkpt>
      <trkpt lat="47.15498" lon="1.15187">
        <ele>112.9</ele>
        <time>2016-01-01T00:00:00Z</time>
      </trkpt>
      <trkpt lat="47.15495" lon="1.15173">
        <ele>113.8</ele>
        <time>2016-01-01T00:00:00Z</time>
      </trkpt>
      <trkpt lat="47.15495" lon="1.15173">
        <ele>113.8</ele>
        <time>2016-01-01T00:00:00Z</time>
      </trkpt>
      <trkpt lat="47.15495" lon="1.15173">
        <ele>113.8</ele>
        <time>2016-01-01T00:00:00Z</time>
      </trkpt>
      <trkpt lat="47.15495" lon="1.15173">
        <ele>113.8</ele>
        <time>2016-01-01T00:00:00Z</time>
      </trkpt>
      <trkpt lat="47.15489" lon="1.15152">
        <ele>114.6</ele>
        <time>2016-01-01T00:00:00Z</time>
      </trkpt>
      <trkpt lat="47.15489" lon="1.15152">
        <ele>114.6</ele>
        <time>2016-01-01T00:00:00Z</time>
      </trkpt>
      <trkpt lat="47.15489" lon="1.15152">
        <ele>114.6</ele>
        <time>2016-01-01T00:00:00Z</time>
      </trkpt>
      <trkpt lat="47.15489" lon="1.15152">
        <ele>114.6</ele>
        <time>2016-01-01T00:00:00Z</time>
      </trkpt>
      <trkpt lat="47.15475" lon="1.15114">
        <ele>115.6</ele>
        <time>2016-01-01T00:00:00Z</time>
      </trkpt>
      <trkpt lat="47.15475" lon="1.15114">
        <ele>115.6</ele>
        <time>2016-01-01T00:00:00Z</time>
      </trkpt>
      <trkpt lat="47.15475" lon="1.15114">
        <ele>115.6</ele>
        <time>2016-01-01T00:00:00Z</time>
      </trkpt>
      <trkpt lat="47.15475" lon="1.15114">
        <ele>115.6</ele>
        <time>2016-01-01T00:00:00Z</time>
      </trkpt>
      <trkpt lat="47.15457" lon="1.15076">
        <ele>117.1</ele>
        <time>2016-01-01T00:00:00Z</time>
      </trkpt>
      <trkpt lat="47.15457" lon="1.15076">
        <ele>117.1</ele>
        <time>2016-01-01T00:00:00Z</time>
      </trkpt>
      <trkpt lat="47.15457" lon="1.15076">
        <ele>117.1</ele>
        <time>2016-01-01T00:00:00Z</time>
      </trkpt>
      <trkpt lat="47.15457" lon="1.15076">
        <ele>117.1</ele>
        <time>2016-01-01T00:00:00Z</time>
      </trkpt>
      <trkpt lat="47.15451" lon="1.15063">
        <ele>117.6</ele>
        <time>2016-01-01T00:00:00Z</time>
      </trkpt>
      <trkpt lat="47.15451" lon="1.15063">
        <ele>117.6</ele>
        <time>2016-01-01T00:00:00Z</time>
      </trkpt>
      <trkpt lat="47.15451" lon="1.15063">
        <ele>117.6</ele>
        <time>2016-01-01T00:00:00Z</time>
      </trkpt>
      <trkpt lat="47.15451" lon="1.15063">
        <ele>117.6</ele>
        <time>2016-01-01T00:00:00Z</time>
      </trkpt>
      <trkpt lat="47.1546" lon="1.15026">
        <ele>117.2</ele>
        <time>2016-01-01T00:00:00Z</time>
      </trkpt>
      <trkpt lat="47.1546" lon="1.15026">
        <ele>117.2</ele>
        <time>2016-01-01T00:00:00Z</time>
      </trkpt>
      <trkpt lat="47.1546" lon="1.15026">
        <ele>117.2</ele>
        <time>2016-01-01T00:00:00Z</time>
      </trkpt>
      <trkpt lat="47.1546" lon="1.15026">
        <ele>117.2</ele>
        <time>2016-01-01T00:00:00Z</time>
      </trkpt>
      <trkpt lat="47.15471" lon="1.14989">
        <ele>116.9</ele>
        <time>2016-01-01T00:00:00Z</time>
      </trkpt>
      <trkpt lat="47.15471" lon="1.14989">
        <ele>116.9</ele>
        <time>2016-01-01T00:00:00Z</time>
      </trkpt>
      <trkpt lat="47.15471" lon="1.14989">
        <ele>116.9</ele>
        <time>2016-01-01T00:00:00Z</time>
      </trkpt>
      <trkpt lat="47.15471" lon="1.14989">
        <ele>116.9</ele>
        <time>2016-01-01T00:00:00Z</time>
      </trkpt>
      <trkpt lat="47.15488" lon="1.14931">
        <ele>116.5</ele>
        <time>2016-01-01T00:00:00Z</time>
      </trkpt>
      <trkpt lat="47.15488" lon="1.14931">
        <ele>116.5</ele>
        <time>2016-01-01T00:00:00Z</time>
      </trkpt>
      <trkpt lat="47.15488" lon="1.14931">
        <ele>116.5</ele>
        <time>2016-01-01T00:00:00Z</time>
      </trkpt>
      <trkpt lat="47.15488" lon="1.14931">
        <ele>116.5</ele>
        <time>2016-01-01T00:00:00Z</time>
      </trkpt>
      <trkpt lat="47.15501" lon="1.14889">
        <ele>117.3</ele>
        <time>2016-01-01T00:00:00Z</time>
      </trkpt>
      <trkpt lat="47.15501" lon="1.14889">
        <ele>117.3</ele>
        <time>2016-01-01T00:00:00Z</time>
      </trkpt>
      <trkpt lat="47.15501" lon="1.14889">
        <ele>117.3</ele>
        <time>2016-01-01T00:00:00Z</time>
      </trkpt>
      <trkpt lat="47.15501" lon="1.14889">
        <ele>117.3</ele>
        <time>2016-01-01T00:00:00Z</time>
      </trkpt>
      <trkpt lat="47.1551" lon="1.14865">
        <ele>117.8</ele>
        <time>2016-01-01T00:00:00Z</time>
      </trkpt>
      <trkpt lat="47.1551" lon="1.14865">
        <ele>117.8</ele>
        <time>2016-01-01T00:00:00Z</time>
      </trkpt>
      <trkpt lat="47.1551" lon="1.14865">
        <ele>117.8</ele>
        <time>2016-01-01T00:00:00Z</time>
      </trkpt>
      <trkpt lat="47.1551" lon="1.14865">
        <ele>117.8</ele>
        <time>2016-01-01T00:00:00Z</time>
      </trkpt>
      <trkpt lat="47.15519" lon="1.14844">
        <ele>118.3</ele>
        <time>2016-01-01T00:00:00Z</time>
      </trkpt>
      <trkpt lat="47.15519" lon="1.14844">
        <ele>118.3</ele>
        <time>2016-01-01T00:00:00Z</time>
      </trkpt>
      <trkpt lat="47.15519" lon="1.14844">
        <ele>118.3</ele>
        <time>2016-01-01T00:00:00Z</time>
      </trkpt>
      <trkpt lat="47.15519" lon="1.14844">
        <ele>118.3</ele>
        <time>2016-01-01T00:00:00Z</time>
      </trkpt>
      <trkpt lat="47.15549" lon="1.14793">
        <ele>118.4</ele>
        <time>2016-01-01T00:00:00Z</time>
      </trkpt>
      <trkpt lat="47.15549" lon="1.14793">
        <ele>118.4</ele>
        <time>2016-01-01T00:00:00Z</time>
      </trkpt>
      <trkpt lat="47.15549" lon="1.14793">
        <ele>118.4</ele>
        <time>2016-01-01T00:00:00Z</time>
      </trkpt>
      <trkpt lat="47.15549" lon="1.14793">
        <ele>118.4</ele>
        <time>2016-01-01T00:00:00Z</time>
      </trkpt>
      <trkpt lat="47.15575" lon="1.14743">
        <ele>119.5</ele>
        <time>2016-01-01T00:00:00Z</time>
      </trkpt>
      <trkpt lat="47.15575" lon="1.14743">
        <ele>119.5</ele>
        <time>2016-01-01T00:00:00Z</time>
      </trkpt>
      <trkpt lat="47.15575" lon="1.14743">
        <ele>119.5</ele>
        <time>2016-01-01T00:00:00Z</time>
      </trkpt>
      <trkpt lat="47.15575" lon="1.14743">
        <ele>119.5</ele>
        <time>2016-01-01T00:00:00Z</time>
      </trkpt>
      <trkpt lat="47.15544" lon="1.14735">
        <ele>120.4</ele>
        <time>2016-01-01T00:00:00Z</time>
      </trkpt>
      <trkpt lat="47.15544" lon="1.14735">
        <ele>120.4</ele>
        <time>2016-01-01T00:00:00Z</time>
      </trkpt>
      <trkpt lat="47.15544" lon="1.14735">
        <ele>120.4</ele>
        <time>2016-01-01T00:00:00Z</time>
      </trkpt>
      <trkpt lat="47.15544" lon="1.14735">
        <ele>120.4</ele>
        <time>2016-01-01T00:00:00Z</time>
      </trkpt>
      <trkpt lat="47.15522" lon="1.14729">
        <ele>120.9</ele>
        <time>2016-01-01T00:00:00Z</time>
      </trkpt>
      <trkpt lat="47.15522" lon="1.14729">
        <ele>120.9</ele>
        <time>2016-01-01T00:00:00Z</time>
      </trkpt>
      <trkpt lat="47.15522" lon="1.14729">
        <ele>120.9</ele>
        <time>2016-01-01T00:00:00Z</time>
      </trkpt>
      <trkpt lat="47.15522" lon="1.14729">
        <ele>120.9</ele>
        <time>2016-01-01T00:00:00Z</time>
      </trkpt>
      <trkpt lat="47.15493" lon="1.14722">
        <ele>121.6</ele>
        <time>2016-01-01T00:00:00Z</time>
      </trkpt>
      <trkpt lat="47.15493" lon="1.14722">
        <ele>121.6</ele>
        <time>2016-01-01T00:00:00Z</time>
      </trkpt>
      <trkpt lat="47.15493" lon="1.14722">
        <ele>121.6</ele>
        <time>2016-01-01T00:00:00Z</time>
      </trkpt>
      <trkpt lat="47.15493" lon="1.14722">
        <ele>121.6</ele>
        <time>2016-01-01T00:00:00Z</time>
      </trkpt>
      <trkpt lat="47.15472" lon="1.14713">
        <ele>122.3</ele>
        <time>2016-01-01T00:00:00Z</time>
      </trkpt>
      <trkpt lat="47.15472" lon="1.14713">
        <ele>122.3</ele>
        <time>2016-01-01T00:00:00Z</time>
      </trkpt>
      <trkpt lat="47.15472" lon="1.14713">
        <ele>122.3</ele>
        <time>2016-01-01T00:00:00Z</time>
      </trkpt>
      <trkpt lat="47.15472" lon="1.14713">
        <ele>122.3</ele>
        <time>2016-01-01T00:00:00Z</time>
      </trkpt>
      <trkpt lat="47.15462" lon="1.14711">
        <ele>122.6</ele>
        <time>2016-01-01T00:00:00Z</time>
      </trkpt>
      <trkpt lat="47.15462" lon="1.14711">
        <ele>122.6</ele>
        <time>2016-01-01T00:00:00Z</time>
      </trkpt>
      <trkpt lat="47.15462" lon="1.14711">
        <ele>122.6</ele>
        <time>2016-01-01T00:00:00Z</time>
      </trkpt>
      <trkpt lat="47.15462" lon="1.14711">
        <ele>122.6</ele>
        <time>2016-01-01T00:00:00Z</time>
      </trkpt>
      <trkpt lat="47.15453" lon="1.14711">
        <ele>122.9</ele>
        <time>2016-01-01T00:00:00Z</time>
      </trkpt>
      <trkpt lat="47.15453" lon="1.14711">
        <ele>122.9</ele>
        <time>2016-01-01T00:00:00Z</time>
      </trkpt>
      <trkpt lat="47.15453" lon="1.14711">
        <ele>122.9</ele>
        <time>2016-01-01T00:00:00Z</time>
      </trkpt>
      <trkpt lat="47.15453" lon="1.14711">
        <ele>122.9</ele>
        <time>2016-01-01T00:00:00Z</time>
      </trkpt>
      <trkpt lat="47.15439" lon="1.14714">
        <ele>123.3</ele>
        <time>2016-01-01T00:00:00Z</time>
      </trkpt>
      <trkpt lat="47.15439" lon="1.14714">
        <ele>123.3</ele>
        <time>2016-01-01T00:00:00Z</time>
      </trkpt>
      <trkpt lat="47.15439" lon="1.14714">
        <ele>123.3</ele>
        <time>2016-01-01T00:00:00Z</time>
      </trkpt>
      <trkpt lat="47.15439" lon="1.14714">
        <ele>123.3</ele>
        <time>2016-01-01T00:00:00Z</time>
      </trkpt>
      <trkpt lat="47.15418" lon="1.14723">
        <ele>124</ele>
        <time>2016-01-01T00:00:00Z</time>
      </trkpt>
      <trkpt lat="47.15418" lon="1.14723">
        <ele>124</ele>
        <time>2016-01-01T00:00:00Z</time>
      </trkpt>
      <trkpt lat="47.15418" lon="1.14723">
        <ele>124</ele>
        <time>2016-01-01T00:00:00Z</time>
      </trkpt>
      <trkpt lat="47.15418" lon="1.14723">
        <ele>124</ele>
        <time>2016-01-01T00:00:00Z</time>
      </trkpt>
      <trkpt lat="47.15401" lon="1.14728">
        <ele>124.1</ele>
        <time>2016-01-01T00:00:00Z</time>
      </trkpt>
      <trkpt lat="47.15401" lon="1.14728">
        <ele>124.1</ele>
        <time>2016-01-01T00:00:00Z</time>
      </trkpt>
      <trkpt lat="47.15401" lon="1.14728">
        <ele>124.1</ele>
        <time>2016-01-01T00:00:00Z</time>
      </trkpt>
      <trkpt lat="47.15401" lon="1.14728">
        <ele>124.1</ele>
        <time>2016-01-01T00:00:00Z</time>
      </trkpt>
      <trkpt lat="47.15388" lon="1.14733">
        <ele>124.1</ele>
        <time>2016-01-01T00:00:00Z</time>
      </trkpt>
      <trkpt lat="47.15388" lon="1.14733">
        <ele>124.1</ele>
        <time>2016-01-01T00:00:00Z</time>
      </trkpt>
      <trkpt lat="47.15388" lon="1.14733">
        <ele>124.1</ele>
        <time>2016-01-01T00:00:00Z</time>
      </trkpt>
      <trkpt lat="47.15388" lon="1.14733">
        <ele>124.1</ele>
        <time>2016-01-01T00:00:00Z</time>
      </trkpt>
      <trkpt lat="47.1535" lon="1.14743">
        <ele>124.1</ele>
        <time>2016-01-01T00:00:00Z</time>
      </trkpt>
      <trkpt lat="47.1535" lon="1.14743">
        <ele>124.1</ele>
        <time>2016-01-01T00:00:00Z</time>
      </trkpt>
      <trkpt lat="47.1535" lon="1.14743">
        <ele>124.1</ele>
        <time>2016-01-01T00:00:00Z</time>
      </trkpt>
      <trkpt lat="47.1535" lon="1.14743">
        <ele>124.1</ele>
        <time>2016-01-01T00:00:00Z</time>
      </trkpt>
      <trkpt lat="47.15324" lon="1.14748">
        <ele>124.1</ele>
        <time>2016-01-01T00:00:00Z</time>
      </trkpt>
      <trkpt lat="47.15324" lon="1.14748">
        <ele>124.1</ele>
        <time>2016-01-01T00:00:00Z</time>
      </trkpt>
      <trkpt lat="47.15324" lon="1.14748">
        <ele>124.1</ele>
        <time>2016-01-01T00:00:00Z</time>
      </trkpt>
      <trkpt lat="47.15324" lon="1.14748">
        <ele>124.1</ele>
        <time>2016-01-01T00:00:00Z</time>
      </trkpt>
      <trkpt lat="47.1532" lon="1.14748">
        <ele>124.2</ele>
        <time>2016-01-01T00:00:00Z</time>
      </trkpt>
      <trkpt lat="47.1532" lon="1.14748">
        <ele>124.2</ele>
        <time>2016-01-01T00:00:00Z</time>
      </trkpt>
      <trkpt lat="47.1532" lon="1.14748">
        <ele>124.2</ele>
        <time>2016-01-01T00:00:00Z</time>
      </trkpt>
      <trkpt lat="47.1532" lon="1.14748">
        <ele>124.2</ele>
        <time>2016-01-01T00:00:00Z</time>
      </trkpt>
      <trkpt lat="47.15317" lon="1.1476">
        <ele>124.2</ele>
        <time>2016-01-01T00:00:00Z</time>
      </trkpt>
      <trkpt lat="47.15317" lon="1.1476">
        <ele>124.2</ele>
        <time>2016-01-01T00:00:00Z</time>
      </trkpt>
      <trkpt lat="47.15317" lon="1.1476">
        <ele>124.2</ele>
        <time>2016-01-01T00:00:00Z</time>
      </trkpt>
      <trkpt lat="47.15317" lon="1.1476">
        <ele>124.2</ele>
        <time>2016-01-01T00:00:00Z</time>
      </trkpt>
      <trkpt lat="47.15298" lon="1.1479">
        <ele>124.2</ele>
        <time>2016-01-01T00:00:00Z</time>
      </trkpt>
      <trkpt lat="47.15298" lon="1.1479">
        <ele>124.2</ele>
        <time>2016-01-01T00:00:00Z</time>
      </trkpt>
      <trkpt lat="47.15298" lon="1.1479">
        <ele>124.2</ele>
        <time>2016-01-01T00:00:00Z</time>
      </trkpt>
      <trkpt lat="47.15298" lon="1.1479">
        <ele>124.2</ele>
        <time>2016-01-01T00:00:00Z</time>
      </trkpt>
      <trkpt lat="47.15061" lon="1.15164">
        <ele>123</ele>
        <time>2016-01-01T00:00:00Z</time>
      </trkpt>
      <trkpt lat="47.15061" lon="1.15164">
        <ele>123</ele>
        <time>2016-01-01T00:00:00Z</time>
      </trkpt>
      <trkpt lat="47.15061" lon="1.15164">
        <ele>123</ele>
        <time>2016-01-01T00:00:00Z</time>
      </trkpt>
      <trkpt lat="47.15061" lon="1.15164">
        <ele>123</ele>
        <time>2016-01-01T00:00:00Z</time>
      </trkpt>
      <trkpt lat="47.14967" lon="1.15311">
        <ele>121.6</ele>
        <time>2016-01-01T00:00:00Z</time>
      </trkpt>
      <trkpt lat="47.14967" lon="1.15311">
        <ele>121.6</ele>
        <time>2016-01-01T00:00:00Z</time>
      </trkpt>
      <trkpt lat="47.14967" lon="1.15311">
        <ele>121.6</ele>
        <time>2016-01-01T00:00:00Z</time>
      </trkpt>
      <trkpt lat="47.14967" lon="1.15311">
        <ele>121.6</ele>
        <time>2016-01-01T00:00:00Z</time>
      </trkpt>
      <trkpt lat="47.14934" lon="1.15255">
        <ele>119.2</ele>
        <time>2016-01-01T00:00:00Z</time>
      </trkpt>
      <trkpt lat="47.14934" lon="1.15255">
        <ele>119.2</ele>
        <time>2016-01-01T00:00:00Z</time>
      </trkpt>
      <trkpt lat="47.14934" lon="1.15255">
        <ele>119.2</ele>
        <time>2016-01-01T00:00:00Z</time>
      </trkpt>
      <trkpt lat="47.14934" lon="1.15255">
        <ele>119.2</ele>
        <time>2016-01-01T00:00:00Z</time>
      </trkpt>
      <trkpt lat="47.14886" lon="1.15175">
        <ele>116.3</ele>
        <time>2016-01-01T00:00:00Z</time>
      </trkpt>
      <trkpt lat="47.14886" lon="1.15175">
        <ele>116.3</ele>
        <time>2016-01-01T00:00:00Z</time>
      </trkpt>
      <trkpt lat="47.14886" lon="1.15175">
        <ele>116.3</ele>
        <time>2016-01-01T00:00:00Z</time>
      </trkpt>
      <trkpt lat="47.14886" lon="1.15175">
        <ele>116.3</ele>
        <time>2016-01-01T00:00:00Z</time>
      </trkpt>
      <trkpt lat="47.14839" lon="1.15098">
        <ele>114.6</ele>
        <time>2016-01-01T00:00:00Z</time>
      </trkpt>
      <trkpt lat="47.14839" lon="1.15098">
        <ele>114.6</ele>
        <time>2016-01-01T00:00:00Z</time>
      </trkpt>
      <trkpt lat="47.14839" lon="1.15098">
        <ele>114.6</ele>
        <time>2016-01-01T00:00:00Z</time>
      </trkpt>
      <trkpt lat="47.14839" lon="1.15098">
        <ele>114.6</ele>
        <time>2016-01-01T00:00:00Z</time>
      </trkpt>
      <trkpt lat="47.14819" lon="1.1507">
        <ele>115.7</ele>
        <time>2016-01-01T00:00:00Z</time>
      </trkpt>
      <trkpt lat="47.14819" lon="1.1507">
        <ele>115.7</ele>
        <time>2016-01-01T00:00:00Z</time>
      </trkpt>
      <trkpt lat="47.14819" lon="1.1507">
        <ele>115.7</ele>
        <time>2016-01-01T00:00:00Z</time>
      </trkpt>
      <trkpt lat="47.14819" lon="1.1507">
        <ele>115.7</ele>
        <time>2016-01-01T00:00:00Z</time>
      </trkpt>
      <trkpt lat="47.14804" lon="1.15049">
        <ele>117.2</ele>
        <time>2016-01-01T00:00:00Z</time>
      </trkpt>
      <trkpt lat="47.14804" lon="1.15049">
        <ele>117.2</ele>
        <time>2016-01-01T00:00:00Z</time>
      </trkpt>
      <trkpt lat="47.14804" lon="1.15049">
        <ele>117.2</ele>
        <time>2016-01-01T00:00:00Z</time>
      </trkpt>
      <trkpt lat="47.14804" lon="1.15049">
        <ele>117.2</ele>
        <time>2016-01-01T00:00:00Z</time>
      </trkpt>
      <trkpt lat="47.14787" lon="1.15007">
        <ele>118.6</ele>
        <time>2016-01-01T00:00:00Z</time>
      </trkpt>
      <trkpt lat="47.14787" lon="1.15007">
        <ele>118.6</ele>
        <time>2016-01-01T00:00:00Z</time>
      </trkpt>
      <trkpt lat="47.14787" lon="1.15007">
        <ele>118.6</ele>
        <time>2016-01-01T00:00:00Z</time>
      </trkpt>
      <trkpt lat="47.14787" lon="1.15007">
        <ele>118.6</ele>
        <time>2016-01-01T00:00:00Z</time>
      </trkpt>
      <trkpt lat="47.14775" lon="1.14965">
        <ele>118.4</ele>
        <time>2016-01-01T00:00:00Z</time>
      </trkpt>
      <trkpt lat="47.14775" lon="1.14965">
        <ele>118.4</ele>
        <time>2016-01-01T00:00:00Z</time>
      </trkpt>
      <trkpt lat="47.14775" lon="1.14965">
        <ele>118.4</ele>
        <time>2016-01-01T00:00:00Z</time>
      </trkpt>
      <trkpt lat="47.14775" lon="1.14965">
        <ele>118.4</ele>
        <time>2016-01-01T00:00:00Z</time>
      </trkpt>
      <trkpt lat="47.14764" lon="1.14922">
        <ele>117.6</ele>
        <time>2016-01-01T00:00:00Z</time>
      </trkpt>
      <trkpt lat="47.14764" lon="1.14922">
        <ele>117.6</ele>
        <time>2016-01-01T00:00:00Z</time>
      </trkpt>
      <trkpt lat="47.14764" lon="1.14922">
        <ele>117.6</ele>
        <time>2016-01-01T00:00:00Z</time>
      </trkpt>
      <trkpt lat="47.14764" lon="1.14922">
        <ele>117.6</ele>
        <time>2016-01-01T00:00:00Z</time>
      </trkpt>
      <trkpt lat="47.14757" lon="1.14885">
        <ele>116.3</ele>
        <time>2016-01-01T00:00:00Z</time>
      </trkpt>
      <trkpt lat="47.14757" lon="1.14885">
        <ele>116.3</ele>
        <time>2016-01-01T00:00:00Z</time>
      </trkpt>
      <trkpt lat="47.14757" lon="1.14885">
        <ele>116.3</ele>
        <time>2016-01-01T00:00:00Z</time>
      </trkpt>
      <trkpt lat="47.14757" lon="1.14885">
        <ele>116.3</ele>
        <time>2016-01-01T00:00:00Z</time>
      </trkpt>
      <trkpt lat="47.14753" lon="1.14848">
        <ele>114.7</ele>
        <time>2016-01-01T00:00:00Z</time>
      </trkpt>
      <trkpt lat="47.14753" lon="1.14848">
        <ele>114.7</ele>
        <time>2016-01-01T00:00:00Z</time>
      </trkpt>
      <trkpt lat="47.14753" lon="1.14848">
        <ele>114.7</ele>
        <time>2016-01-01T00:00:00Z</time>
      </trkpt>
      <trkpt lat="47.14753" lon="1.14848">
        <ele>114.7</ele>
        <time>2016-01-01T00:00:00Z</time>
      </trkpt>
      <trkpt lat="47.1475" lon="1.14816">
        <ele>113.2</ele>
        <time>2016-01-01T00:00:00Z</time>
      </trkpt>
      <trkpt lat="47.1475" lon="1.14816">
        <ele>113.2</ele>
        <time>2016-01-01T00:00:00Z</time>
      </trkpt>
      <trkpt lat="47.1475" lon="1.14816">
        <ele>113.2</ele>
        <time>2016-01-01T00:00:00Z</time>
      </trkpt>
      <trkpt lat="47.1475" lon="1.14816">
        <ele>113.2</ele>
        <time>2016-01-01T00:00:00Z</time>
      </trkpt>
      <trkpt lat="47.1475" lon="1.14781">
        <ele>111.5</ele>
        <time>2016-01-01T00:00:00Z</time>
      </trkpt>
      <trkpt lat="47.1475" lon="1.14781">
        <ele>111.5</ele>
        <time>2016-01-01T00:00:00Z</time>
      </trkpt>
      <trkpt lat="47.1475" lon="1.14781">
        <ele>111.5</ele>
        <time>2016-01-01T00:00:00Z</time>
      </trkpt>
      <trkpt lat="47.1475" lon="1.14781">
        <ele>111.5</ele>
        <time>2016-01-01T00:00:00Z</time>
      </trkpt>
      <trkpt lat="47.14747" lon="1.14717">
        <ele>108.1</ele>
        <time>2016-01-01T00:00:00Z</time>
      </trkpt>
      <trkpt lat="47.14747" lon="1.14717">
        <ele>108.1</ele>
        <time>2016-01-01T00:00:00Z</time>
      </trkpt>
      <trkpt lat="47.14747" lon="1.14717">
        <ele>108.1</ele>
        <time>2016-01-01T00:00:00Z</time>
      </trkpt>
      <trkpt lat="47.14747" lon="1.14717">
        <ele>108.1</ele>
        <time>2016-01-01T00:00:00Z</time>
      </trkpt>
      <trkpt lat="47.14742" lon="1.14691">
        <ele>106.4</ele>
        <time>2016-01-01T00:00:00Z</time>
      </trkpt>
      <trkpt lat="47.14742" lon="1.14691">
        <ele>106.4</ele>
        <time>2016-01-01T00:00:00Z</time>
      </trkpt>
      <trkpt lat="47.14742" lon="1.14691">
        <ele>106.4</ele>
        <time>2016-01-01T00:00:00Z</time>
      </trkpt>
      <trkpt lat="47.14742" lon="1.14691">
        <ele>106.4</ele>
        <time>2016-01-01T00:00:00Z</time>
      </trkpt>
      <trkpt lat="47.14735" lon="1.14676">
        <ele>104.9</ele>
        <time>2016-01-01T00:00:00Z</time>
      </trkpt>
      <trkpt lat="47.14735" lon="1.14676">
        <ele>104.9</ele>
        <time>2016-01-01T00:00:00Z</time>
      </trkpt>
      <trkpt lat="47.14735" lon="1.14676">
        <ele>104.9</ele>
        <time>2016-01-01T00:00:00Z</time>
      </trkpt>
      <trkpt lat="47.14735" lon="1.14676">
        <ele>104.9</ele>
        <time>2016-01-01T00:00:00Z</time>
      </trkpt>
      <trkpt lat="47.14728" lon="1.14664">
        <ele>103.5</ele>
        <time>2016-01-01T00:00:00Z</time>
      </trkpt>
      <trkpt lat="47.14728" lon="1.14664">
        <ele>103.5</ele>
        <time>2016-01-01T00:00:00Z</time>
      </trkpt>
      <trkpt lat="47.14728" lon="1.14664">
        <ele>103.5</ele>
        <time>2016-01-01T00:00:00Z</time>
      </trkpt>
      <trkpt lat="47.14728" lon="1.14664">
        <ele>103.5</ele>
        <time>2016-01-01T00:00:00Z</time>
      </trkpt>
      <trkpt lat="47.14714" lon="1.14653">
        <ele>101.7</ele>
        <time>2016-01-01T00:00:00Z</time>
      </trkpt>
      <trkpt lat="47.14714" lon="1.14653">
        <ele>101.7</ele>
        <time>2016-01-01T00:00:00Z</time>
      </trkpt>
      <trkpt lat="47.14714" lon="1.14653">
        <ele>101.7</ele>
        <time>2016-01-01T00:00:00Z</time>
      </trkpt>
      <trkpt lat="47.14714" lon="1.14653">
        <ele>101.7</ele>
        <time>2016-01-01T00:00:00Z</time>
      </trkpt>
      <trkpt lat="47.1469" lon="1.14617">
        <ele>98.8</ele>
        <time>2016-01-01T00:00:00Z</time>
      </trkpt>
      <trkpt lat="47.1469" lon="1.14617">
        <ele>98.8</ele>
        <time>2016-01-01T00:00:00Z</time>
      </trkpt>
      <trkpt lat="47.1469" lon="1.14617">
        <ele>98.8</ele>
        <time>2016-01-01T00:00:00Z</time>
      </trkpt>
      <trkpt lat="47.1469" lon="1.14617">
        <ele>98.8</ele>
        <time>2016-01-01T00:00:00Z</time>
      </trkpt>
      <trkpt lat="47.14679" lon="1.14599">
        <ele>97.8</ele>
        <time>2016-01-01T00:00:00Z</time>
      </trkpt>
      <trkpt lat="47.14679" lon="1.14599">
        <ele>97.8</ele>
        <time>2016-01-01T00:00:00Z</time>
      </trkpt>
      <trkpt lat="47.14679" lon="1.14599">
        <ele>97.8</ele>
        <time>2016-01-01T00:00:00Z</time>
      </trkpt>
      <trkpt lat="47.14679" lon="1.14599">
        <ele>97.8</ele>
        <time>2016-01-01T00:00:00Z</time>
      </trkpt>
      <trkpt lat="47.14632" lon="1.14523">
        <ele>98.4</ele>
        <time>2016-01-01T00:00:00Z</time>
      </trkpt>
      <trkpt lat="47.14632" lon="1.14523">
        <ele>98.4</ele>
        <time>2016-01-01T00:00:00Z</time>
      </trkpt>
      <trkpt lat="47.14632" lon="1.14523">
        <ele>98.4</ele>
        <time>2016-01-01T00:00:00Z</time>
      </trkpt>
      <trkpt lat="47.14632" lon="1.14523">
        <ele>98.4</ele>
        <time>2016-01-01T00:00:00Z</time>
      </trkpt>
      <trkpt lat="47.146" lon="1.14482">
        <ele>99.5</ele>
        <time>2016-01-01T00:00:00Z</time>
      </trkpt>
      <trkpt lat="47.146" lon="1.14482">
        <ele>99.5</ele>
        <time>2016-01-01T00:00:00Z</time>
      </trkpt>
      <trkpt lat="47.146" lon="1.14482">
        <ele>99.5</ele>
        <time>2016-01-01T00:00:00Z</time>
      </trkpt>
      <trkpt lat="47.146" lon="1.14482">
        <ele>99.5</ele>
        <time>2016-01-01T00:00:00Z</time>
      </trkpt>
      <trkpt lat="47.14581" lon="1.14459">
        <ele>100.6</ele>
        <time>2016-01-01T00:00:00Z</time>
      </trkpt>
      <trkpt lat="47.14581" lon="1.14459">
        <ele>100.6</ele>
        <time>2016-01-01T00:00:00Z</time>
      </trkpt>
      <trkpt lat="47.14581" lon="1.14459">
        <ele>100.6</ele>
        <time>2016-01-01T00:00:00Z</time>
      </trkpt>
      <trkpt lat="47.14581" lon="1.14459">
        <ele>100.6</ele>
        <time>2016-01-01T00:00:00Z</time>
      </trkpt>
      <trkpt lat="47.14561" lon="1.14442">
        <ele>101.9</ele>
        <time>2016-01-01T00:00:00Z</time>
      </trkpt>
      <trkpt lat="47.14561" lon="1.14442">
        <ele>101.9</ele>
        <time>2016-01-01T00:00:00Z</time>
      </trkpt>
      <trkpt lat="47.14561" lon="1.14442">
        <ele>101.9</ele>
        <time>2016-01-01T00:00:00Z</time>
      </trkpt>
      <trkpt lat="47.14561" lon="1.14442">
        <ele>101.9</ele>
        <time>2016-01-01T00:00:00Z</time>
      </trkpt>
      <trkpt lat="47.14548" lon="1.14435">
        <ele>102.8</ele>
        <time>2016-01-01T00:00:00Z</time>
      </trkpt>
      <trkpt lat="47.14548" lon="1.14435">
        <ele>102.8</ele>
        <time>2016-01-01T00:00:00Z</time>
      </trkpt>
      <trkpt lat="47.14548" lon="1.14435">
        <ele>102.8</ele>
        <time>2016-01-01T00:00:00Z</time>
      </trkpt>
      <trkpt lat="47.14548" lon="1.14435">
        <ele>102.8</ele>
        <time>2016-01-01T00:00:00Z</time>
      </trkpt>
      <trkpt lat="47.14536" lon="1.14436">
        <ele>103.6</ele>
        <time>2016-01-01T00:00:00Z</time>
      </trkpt>
      <trkpt lat="47.14536" lon="1.14436">
        <ele>103.6</ele>
        <time>2016-01-01T00:00:00Z</time>
      </trkpt>
      <trkpt lat="47.14536" lon="1.14436">
        <ele>103.6</ele>
        <time>2016-01-01T00:00:00Z</time>
      </trkpt>
      <trkpt lat="47.14536" lon="1.14436">
        <ele>103.6</ele>
        <time>2016-01-01T00:00:00Z</time>
      </trkpt>
      <trkpt lat="47.14526" lon="1.1444">
        <ele>103.9</ele>
        <time>2016-01-01T00:00:00Z</time>
      </trkpt>
      <trkpt lat="47.14526" lon="1.1444">
        <ele>103.9</ele>
        <time>2016-01-01T00:00:00Z</time>
      </trkpt>
      <trkpt lat="47.14526" lon="1.1444">
        <ele>103.9</ele>
        <time>2016-01-01T00:00:00Z</time>
      </trkpt>
      <trkpt lat="47.14526" lon="1.1444">
        <ele>103.9</ele>
        <time>2016-01-01T00:00:00Z</time>
      </trkpt>
      <trkpt lat="47.14519" lon="1.14448">
        <ele>103.8</ele>
        <time>2016-01-01T00:00:00Z</time>
      </trkpt>
      <trkpt lat="47.14519" lon="1.14448">
        <ele>103.8</ele>
        <time>2016-01-01T00:00:00Z</time>
      </trkpt>
      <trkpt lat="47.14519" lon="1.14448">
        <ele>103.8</ele>
        <time>2016-01-01T00:00:00Z</time>
      </trkpt>
      <trkpt lat="47.14519" lon="1.14448">
        <ele>103.8</ele>
        <time>2016-01-01T00:00:00Z</time>
      </trkpt>
      <trkpt lat="47.14511" lon="1.1446">
        <ele>103.4</ele>
        <time>2016-01-01T00:00:00Z</time>
      </trkpt>
      <trkpt lat="47.14511" lon="1.1446">
        <ele>103.4</ele>
        <time>2016-01-01T00:00:00Z</time>
      </trkpt>
      <trkpt lat="47.14511" lon="1.1446">
        <ele>103.4</ele>
        <time>2016-01-01T00:00:00Z</time>
      </trkpt>
      <trkpt lat="47.14511" lon="1.1446">
        <ele>103.4</ele>
        <time>2016-01-01T00:00:00Z</time>
      </trkpt>
      <trkpt lat="47.14501" lon="1.14477">
        <ele>102.6</ele>
        <time>2016-01-01T00:00:00Z</time>
      </trkpt>
      <trkpt lat="47.14501" lon="1.14477">
        <ele>102.6</ele>
        <time>2016-01-01T00:00:00Z</time>
      </trkpt>
      <trkpt lat="47.14501" lon="1.14477">
        <ele>102.6</ele>
        <time>2016-01-01T00:00:00Z</time>
      </trkpt>
      <trkpt lat="47.14501" lon="1.14477">
        <ele>102.6</ele>
        <time>2016-01-01T00:00:00Z</time>
      </trkpt>
      <trkpt lat="47.14485" lon="1.14492">
        <ele>104.2</ele>
        <time>2016-01-01T00:00:00Z</time>
      </trkpt>
      <trkpt lat="47.14485" lon="1.14492">
        <ele>104.2</ele>
        <time>2016-01-01T00:00:00Z</time>
      </trkpt>
      <trkpt lat="47.14485" lon="1.14492">
        <ele>104.2</ele>
        <time>2016-01-01T00:00:00Z</time>
      </trkpt>
      <trkpt lat="47.14485" lon="1.14492">
        <ele>104.2</ele>
        <time>2016-01-01T00:00:00Z</time>
      </trkpt>
      <trkpt lat="47.14455" lon="1.14521">
        <ele>107.6</ele>
        <time>2016-01-01T00:00:00Z</time>
      </trkpt>
      <trkpt lat="47.14455" lon="1.14521">
        <ele>107.6</ele>
        <time>2016-01-01T00:00:00Z</time>
      </trkpt>
      <trkpt lat="47.14455" lon="1.14521">
        <ele>107.6</ele>
        <time>2016-01-01T00:00:00Z</time>
      </trkpt>
      <trkpt lat="47.14455" lon="1.14521">
        <ele>107.6</ele>
        <time>2016-01-01T00:00:00Z</time>
      </trkpt>
      <trkpt lat="47.14394" lon="1.14583">
        <ele>111.3</ele>
        <time>2016-01-01T00:00:00Z</time>
      </trkpt>
      <trkpt lat="47.14394" lon="1.14583">
        <ele>111.3</ele>
        <time>2016-01-01T00:00:00Z</time>
      </trkpt>
      <trkpt lat="47.14394" lon="1.14583">
        <ele>111.3</ele>
        <time>2016-01-01T00:00:00Z</time>
      </trkpt>
      <trkpt lat="47.14394" lon="1.14583">
        <ele>111.3</ele>
        <time>2016-01-01T00:00:00Z</time>
      </trkpt>
      <trkpt lat="47.14339" lon="1.14649">
        <ele>112.5</ele>
        <time>2016-01-01T00:00:00Z</time>
      </trkpt>
      <trkpt lat="47.14339" lon="1.14649">
        <ele>112.5</ele>
        <time>2016-01-01T00:00:00Z</time>
      </trkpt>
      <trkpt lat="47.14339" lon="1.14649">
        <ele>112.5</ele>
        <time>2016-01-01T00:00:00Z</time>
      </trkpt>
      <trkpt lat="47.14339" lon="1.14649">
        <ele>112.5</ele>
        <time>2016-01-01T00:00:00Z</time>
      </trkpt>
      <trkpt lat="47.14027" lon="1.14374">
        <ele>138.9</ele>
        <time>2016-01-01T00:00:00Z</time>
      </trkpt>
      <trkpt lat="47.14027" lon="1.14374">
        <ele>138.9</ele>
        <time>2016-01-01T00:00:00Z</time>
      </trkpt>
      <trkpt lat="47.14027" lon="1.14374">
        <ele>138.9</ele>
        <time>2016-01-01T00:00:00Z</time>
      </trkpt>
      <trkpt lat="47.14027" lon="1.14374">
        <ele>138.9</ele>
        <time>2016-01-01T00:00:00Z</time>
      </trkpt>
      <trkpt lat="47.13567" lon="1.1397">
        <ele>145.5</ele>
        <time>2016-01-01T00:00:00Z</time>
      </trkpt>
      <trkpt lat="47.13567" lon="1.1397">
        <ele>145.5</ele>
        <time>2016-01-01T00:00:00Z</time>
      </trkpt>
      <trkpt lat="47.13567" lon="1.1397">
        <ele>145.5</ele>
        <time>2016-01-01T00:00:00Z</time>
      </trkpt>
      <trkpt lat="47.13567" lon="1.1397">
        <ele>145.5</ele>
        <time>2016-01-01T00:00:00Z</time>
      </trkpt>
      <trkpt lat="47.13605" lon="1.13918">
        <ele>142.3</ele>
        <time>2016-01-01T00:00:00Z</time>
      </trkpt>
      <trkpt lat="47.13605" lon="1.13918">
        <ele>142.3</ele>
        <time>2016-01-01T00:00:00Z</time>
      </trkpt>
      <trkpt lat="47.13605" lon="1.13918">
        <ele>142.3</ele>
        <time>2016-01-01T00:00:00Z</time>
      </trkpt>
      <trkpt lat="47.13605" lon="1.13918">
        <ele>142.3</ele>
        <time>2016-01-01T00:00:00Z</time>
      </trkpt>
      <trkpt lat="47.13698" lon="1.13783">
        <ele>125.9</ele>
        <time>2016-01-01T00:00:00Z</time>
      </trkpt>
      <trkpt lat="47.13698" lon="1.13783">
        <ele>125.9</ele>
        <time>2016-01-01T00:00:00Z</time>
      </trkpt>
      <trkpt lat="47.13698" lon="1.13783">
        <ele>125.9</ele>
        <time>2016-01-01T00:00:00Z</time>
      </trkpt>
      <trkpt lat="47.13698" lon="1.13783">
        <ele>125.9</ele>
        <time>2016-01-01T00:00:00Z</time>
      </trkpt>
      <trkpt lat="47.1374" lon="1.13712">
        <ele>122.1</ele>
        <time>2016-01-01T00:00:00Z</time>
      </trkpt>
      <trkpt lat="47.1374" lon="1.13712">
        <ele>122.1</ele>
        <time>2016-01-01T00:00:00Z</time>
      </trkpt>
      <trkpt lat="47.1374" lon="1.13712">
        <ele>122.1</ele>
        <time>2016-01-01T00:00:00Z</time>
      </trkpt>
      <trkpt lat="47.1374" lon="1.13712">
        <ele>122.1</ele>
        <time>2016-01-01T00:00:00Z</time>
      </trkpt>
      <trkpt lat="47.13782" lon="1.13655">
        <ele>124.4</ele>
        <time>2016-01-01T00:00:00Z</time>
      </trkpt>
      <trkpt lat="47.13782" lon="1.13655">
        <ele>124.4</ele>
        <time>2016-01-01T00:00:00Z</time>
      </trkpt>
      <trkpt lat="47.13782" lon="1.13655">
        <ele>124.4</ele>
        <time>2016-01-01T00:00:00Z</time>
      </trkpt>
      <trkpt lat="47.13782" lon="1.13655">
        <ele>124.4</ele>
        <time>2016-01-01T00:00:00Z</time>
      </trkpt>
      <trkpt lat="47.13901" lon="1.13484">
        <ele>137.6</ele>
        <time>2016-01-01T00:00:00Z</time>
      </trkpt>
      <trkpt lat="47.13901" lon="1.13484">
        <ele>137.6</ele>
        <time>2016-01-01T00:00:00Z</time>
      </trkpt>
      <trkpt lat="47.13901" lon="1.13484">
        <ele>137.6</ele>
        <time>2016-01-01T00:00:00Z</time>
      </trkpt>
      <trkpt lat="47.13901" lon="1.13484">
        <ele>137.6</ele>
        <time>2016-01-01T00:00:00Z</time>
      </trkpt>
      <trkpt lat="47.13959" lon="1.13392">
        <ele>139.3</ele>
        <time>2016-01-01T00:00:00Z</time>
      </trkpt>
      <trkpt lat="47.13959" lon="1.13392">
        <ele>139.3</ele>
        <time>2016-01-01T00:00:00Z</time>
      </trkpt>
      <trkpt lat="47.13959" lon="1.13392">
        <ele>139.3</ele>
        <time>2016-01-01T00:00:00Z</time>
      </trkpt>
      <trkpt lat="47.13959" lon="1.13392">
        <ele>139.3</ele>
        <time>2016-01-01T00:00:00Z</time>
      </trkpt>
      <trkpt lat="47.14067" lon="1.13234">
        <ele>134.1</ele>
        <time>2016-01-01T00:00:00Z</time>
      </trkpt>
      <trkpt lat="47.14067" lon="1.13234">
        <ele>134.1</ele>
        <time>2016-01-01T00:00:00Z</time>
      </trkpt>
      <trkpt lat="47.14067" lon="1.13234">
        <ele>134.1</ele>
        <time>2016-01-01T00:00:00Z</time>
      </trkpt>
      <trkpt lat="47.14067" lon="1.13234">
        <ele>134.1</ele>
        <time>2016-01-01T00:00:00Z</time>
      </trkpt>
      <trkpt lat="47.14173" lon="1.13074">
        <ele>114.7</ele>
        <time>2016-01-01T00:00:00Z</time>
      </trkpt>
      <trkpt lat="47.14173" lon="1.13074">
        <ele>114.7</ele>
        <time>2016-01-01T00:00:00Z</time>
      </trkpt>
      <trkpt lat="47.14173" lon="1.13074">
        <ele>114.7</ele>
        <time>2016-01-01T00:00:00Z</time>
      </trkpt>
      <trkpt lat="47.14173" lon="1.13074">
        <ele>114.7</ele>
        <time>2016-01-01T00:00:00Z</time>
      </trkpt>
      <trkpt lat="47.14183" lon="1.13069">
        <ele>113.6</ele>
        <time>2016-01-01T00:00:00Z</time>
      </trkpt>
      <trkpt lat="47.14176" lon="1.13074">
        <ele>115</ele>
        <time>2020-01-10T08:27:35Z</time>
      </trkpt>
      <trkpt lat="47.14135" lon="1.13072">
        <ele>119</ele>
        <time>2020-01-10T08:28:08Z</time>
      </trkpt>
      <trkpt lat="47.14072" lon="1.13041">
        <ele>122</ele>
        <time>2020-01-10T08:29:01Z</time>
      </trkpt>
      <trkpt lat="47.13736" lon="1.12908">
        <ele>129</ele>
        <time>2020-01-10T08:33:40Z</time>
      </trkpt>
      <trkpt lat="47.13652" lon="1.12883">
        <ele>129</ele>
        <time>2020-01-10T08:34:48Z</time>
      </trkpt>
      <trkpt lat="47.1356" lon="1.12829">
        <ele>131</ele>
        <time>2020-01-10T08:36:08Z</time>
      </trkpt>
      <trkpt lat="47.13488" lon="1.12707">
        <ele>140</ele>
        <time>2020-01-10T08:37:36Z</time>
      </trkpt>
      <trkpt lat="47.13364" lon="1.12537">
        <ele>143</ele>
        <time>2020-01-10T08:39:51Z</time>
      </trkpt>
      <trkpt lat="47.13256" lon="1.12385">
        <ele>144</ele>
        <time>2020-01-10T08:41:51Z</time>
      </trkpt>
      <trkpt lat="47.13221" lon="1.1234">
        <ele>149</ele>
        <time>2020-01-10T08:42:28Z</time>
      </trkpt>
      <trkpt lat="47.12971" lon="1.12493">
        <ele>137</ele>
        <time>2020-01-10T08:46:05Z</time>
      </trkpt>
      <trkpt lat="47.12966" lon="1.12531">
        <ele>135</ele>
        <time>2020-01-10T08:46:26Z</time>
      </trkpt>
      <trkpt lat="47.12941" lon="1.1255">
        <ele>136</ele>
        <time>2020-01-10T08:46:49Z</time>
      </trkpt>
      <trkpt lat="47.12919" lon="1.12582">
        <ele>137</ele>
        <time>2020-01-10T08:47:13Z</time>
      </trkpt>
      <trkpt lat="47.12923" lon="1.12625">
        <ele>139</ele>
        <time>2020-01-10T08:47:37Z</time>
      </trkpt>
      <trkpt lat="47.12941" lon="1.12702">
        <ele>140</ele>
        <time>2020-01-10T08:48:21Z</time>
      </trkpt>
      <trkpt lat="47.12938" lon="1.12745">
        <ele>143</ele>
        <time>2020-01-10T08:48:45Z</time>
      </trkpt>
      <trkpt lat="47.1298" lon="1.12785">
        <ele>140</ele>
        <time>2020-01-10T08:49:25Z</time>
      </trkpt>
      <trkpt lat="47.1301" lon="1.12872">
        <ele>139</ele>
        <time>2020-01-10T08:50:18Z</time>
      </trkpt>
      <trkpt lat="47.13057" lon="1.12939">
        <ele>134</ele>
        <time>2020-01-10T08:51:11Z</time>
      </trkpt>
      <trkpt lat="47.13117" lon="1.13004">
        <ele>131</ele>
        <time>2020-01-10T08:52:10Z</time>
      </trkpt>
      <trkpt lat="47.13143" lon="1.13065">
        <ele>130</ele>
        <time>2020-01-10T08:52:50Z</time>
      </trkpt>
      <trkpt lat="47.13168" lon="1.13141">
        <ele>131</ele>
        <time>2020-01-10T08:53:36Z</time>
      </trkpt>
      <trkpt lat="47.13214" lon="1.132">
        <ele>127</ele>
        <time>2020-01-10T08:54:24Z</time>
      </trkpt>
      <trkpt lat="47.13046" lon="1.13509">
        <ele>150</ele>
        <time>2020-01-10T08:58:00Z</time>
      </trkpt>
      <trkpt lat="47.12818" lon="1.13722">
        <ele>136</ele>
        <time>2020-01-10T09:01:36Z</time>
      </trkpt>
      <trkpt lat="47.12777" lon="1.14022">
        <ele>119</ele>
        <time>2020-01-10T09:04:23Z</time>
      </trkpt>
      <trkpt lat="47.12757" lon="1.14065">
        <ele>121</ele>
        <time>2020-01-10T09:04:51Z</time>
      </trkpt>
      <trkpt lat="47.12766" lon="1.14132">
        <ele>128</ele>
        <time>2020-01-10T09:05:28Z</time>
      </trkpt>
      <trkpt lat="47.12761" lon="1.14179">
        <ele>133</ele>
        <time>2020-01-10T09:05:54Z</time>
      </trkpt>
      <trkpt lat="47.12709" lon="1.14559">
        <ele>139</ele>
        <time>2020-01-10T09:09:26Z</time>
      </trkpt>
      <trkpt lat="47.12037" lon="1.14134">
        <ele>143</ele>
        <time>2020-01-10T09:19:11Z</time>
      </trkpt>
      <trkpt lat="47.11931" lon="1.14968">
        <ele>142</ele>
        <time>2020-01-10T09:26:54Z</time>
      </trkpt>
      <trkpt lat="47.12014" lon="1.15389">
        <ele>130</ele>
        <time>2020-01-10T09:30:52Z</time>
      </trkpt>
      <trkpt lat="47.11928" lon="1.15509">
        <ele>132</ele>
        <time>2020-01-10T09:32:27Z</time>
      </trkpt>
      <trkpt lat="47.11916" lon="1.15539">
        <ele>132</ele>
        <time>2020-01-10T09:32:46Z</time>
      </trkpt>
      <trkpt lat="47.11884" lon="1.1558">
        <ele>132</ele>
        <time>2020-01-10T09:33:20Z</time>
      </trkpt>
      <trkpt lat="47.1186" lon="1.15612">
        <ele>133</ele>
        <time>2020-01-10T09:33:46Z</time>
      </trkpt>
      <trkpt lat="47.11733" lon="1.15556">
        <ele>134</ele>
        <time>2020-01-10T09:35:32Z</time>
      </trkpt>
      <trkpt lat="47.11713" lon="1.15698">
        <ele>132</ele>
        <time>2020-01-10T09:36:51Z</time>
      </trkpt>
      <trkpt lat="47.1163" lon="1.1582">
        <ele>124</ele>
        <time>2020-01-10T09:38:25Z</time>
      </trkpt>
      <trkpt lat="47.11574" lon="1.15895">
        <ele>120</ele>
        <time>2020-01-10T09:39:26Z</time>
      </trkpt>
      <trkpt lat="47.11525" lon="1.15947">
        <ele>120</ele>
        <time>2020-01-10T09:40:14Z</time>
      </trkpt>
      <trkpt lat="47.11485" lon="1.16013">
        <ele>121</ele>
        <time>2020-01-10T09:41:03Z</time>
      </trkpt>
      <trkpt lat="47.11311" lon="1.16254">
        <ele>122</ele>
        <time>2020-01-10T09:44:14Z</time>
      </trkpt>
      <trkpt lat="47.11167" lon="1.16432">
        <ele>126</ele>
        <time>2020-01-10T09:46:45Z</time>
      </trkpt>
      <trkpt lat="47.11137" lon="1.16456">
        <ele>123</ele>
        <time>2020-01-10T09:47:12Z</time>
      </trkpt>
      <trkpt lat="47.11145" lon="1.16592">
        <ele>116</ele>
        <time>2020-01-10T09:48:26Z</time>
      </trkpt>
      <trkpt lat="47.11164" lon="1.16644">
        <ele>117</ele>
        <time>2020-01-10T09:48:59Z</time>
      </trkpt>
      <trkpt lat="47.11179" lon="1.16669">
        <ele>118</ele>
        <time>2020-01-10T09:49:17Z</time>
      </trkpt>
      <trkpt lat="47.11136" lon="1.16677">
        <ele>117</ele>
        <time>2020-01-10T09:49:51Z</time>
      </trkpt>
      <trkpt lat="47.11093" lon="1.16676">
        <ele>115</ele>
        <time>2020-01-10T09:50:26Z</time>
      </trkpt>
      <trkpt lat="47.11048" lon="1.16682">
        <ele>115</ele>
        <time>2020-01-10T09:51:02Z</time>
      </trkpt>
      <trkpt lat="47.11011" lon="1.16715">
        <ele>115</ele>
        <time>2020-01-10T09:51:37Z</time>
      </trkpt>
      <trkpt lat="47.10965" lon="1.16759">
        <ele>116</ele>
        <time>2020-01-10T09:52:21Z</time>
      </trkpt>
      <trkpt lat="47.109" lon="1.16745">
        <ele>115</ele>
        <time>2020-01-10T09:53:13Z</time>
      </trkpt>
      <trkpt lat="47.1087" lon="1.16752">
        <ele>115</ele>
        <time>2020-01-10T09:53:38Z</time>
      </trkpt>
      <trkpt lat="47.10849" lon="1.16734">
        <ele>114</ele>
        <time>2020-01-10T09:53:57Z</time>
      </trkpt>
      <trkpt lat="47.10841" lon="1.16714">
        <ele>114</ele>
        <time>2020-01-10T09:54:10Z</time>
      </trkpt>
      <trkpt lat="47.10841" lon="1.16554">
        <ele>121</ele>
        <time>2020-01-10T09:55:37Z</time>
      </trkpt>
      <trkpt lat="47.10764" lon="1.16601">
        <ele>120</ele>
        <time>2020-01-10T09:56:44Z</time>
      </trkpt>
      <trkpt lat="47.10727" lon="1.16621">
        <ele>118</ele>
        <time>2020-01-10T09:57:15Z</time>
      </trkpt>
      <trkpt lat="47.10659" lon="1.16646">
        <ele>117</ele>
        <time>2020-01-10T09:58:11Z</time>
      </trkpt>
      <trkpt lat="47.10632" lon="1.16698">
        <ele>117</ele>
        <time>2020-01-10T09:58:47Z</time>
      </trkpt>
      <trkpt lat="47.10629" lon="1.16747">
        <ele>117</ele>
        <time>2020-01-10T09:59:14Z</time>
      </trkpt>
      <trkpt lat="47.10615" lon="1.16721">
        <ele>117</ele>
        <time>2020-01-10T09:59:32Z</time>
      </trkpt>
      <trkpt lat="47.10599" lon="1.16691">
        <ele>116</ele>
        <time>2020-01-10T09:59:53Z</time>
      </trkpt>
      <trkpt lat="47.10586" lon="1.16666">
        <ele>116</ele>
        <time>2020-01-10T10:00:10Z</time>
      </trkpt>
      <trkpt lat="47.10574" lon="1.16623">
        <ele>115</ele>
        <time>2020-01-10T10:00:35Z</time>
      </trkpt>
      <trkpt lat="47.10542" lon="1.16597">
        <ele>115</ele>
        <time>2020-01-10T10:01:04Z</time>
      </trkpt>
      <trkpt lat="47.10513" lon="1.16558">
        <ele>115</ele>
        <time>2020-01-10T10:01:36Z</time>
      </trkpt>
      <trkpt lat="47.10485" lon="1.16522">
        <ele>116</ele>
        <time>2020-01-10T10:02:06Z</time>
      </trkpt>
      <trkpt lat="47.1045" lon="1.16473">
        <ele>116</ele>
        <time>2020-01-10T10:02:44Z</time>
      </trkpt>
      <trkpt lat="47.10428" lon="1.16432">
        <ele>115</ele>
        <time>2020-01-10T10:03:13Z</time>
      </trkpt>
      <trkpt lat="47.10385" lon="1.1643">
        <ele>115</ele>
        <time>2020-01-10T10:03:47Z</time>
      </trkpt>
      <trkpt lat="47.10352" lon="1.16449">
        <ele>115</ele>
        <time>2020-01-10T10:04:16Z</time>
      </trkpt>
      <trkpt lat="47.10304" lon="1.16477">
        <ele>115</ele>
        <time>2020-01-10T10:04:57Z</time>
      </trkpt>
      <trkpt lat="47.10261" lon="1.165">
        <ele>115</ele>
        <time>2020-01-10T10:05:34Z</time>
      </trkpt>
      <trkpt lat="47.10226" lon="1.16509">
        <ele>116</ele>
        <time>2020-01-10T10:06:02Z</time>
      </trkpt>
      <trkpt lat="47.10185" lon="1.16505">
        <ele>117</ele>
        <time>2020-01-10T10:06:35Z</time>
      </trkpt>
      <trkpt lat="47.10143" lon="1.16507">
        <ele>118</ele>
        <time>2020-01-10T10:07:09Z</time>
      </trkpt>
      <trkpt lat="47.10121" lon="1.1653">
        <ele>117</ele>
        <time>2020-01-10T10:07:30Z</time>
      </trkpt>
      <trkpt lat="47.10102" lon="1.16526">
        <ele>117</ele>
        <time>2020-01-10T10:07:46Z</time>
      </trkpt>
      <trkpt lat="47.10079" lon="1.16507">
        <ele>117</ele>
        <time>2020-01-10T10:08:07Z</time>
      </trkpt>
      <trkpt lat="47.10036" lon="1.16494">
        <ele>117</ele>
        <time>2020-01-10T10:08:42Z</time>
      </trkpt>
      <trkpt lat="47.09995" lon="1.16503">
        <ele>117</ele>
        <time>2020-01-10T10:09:15Z</time>
      </trkpt>
      <trkpt lat="47.09952" lon="1.1652">
        <ele>118</ele>
        <time>2020-01-10T10:09:51Z</time>
      </trkpt>
      <trkpt lat="47.09896" lon="1.16546">
        <ele>119</ele>
        <time>2020-01-10T10:10:38Z</time>
      </trkpt>
      <trkpt lat="47.09855" lon="1.16556">
        <ele>118</ele>
        <time>2020-01-10T10:11:11Z</time>
      </trkpt>
      <trkpt lat="47.09828" lon="1.16636">
        <ele>119</ele>
        <time>2020-01-10T10:12:00Z</time>
      </trkpt>
      <trkpt lat="47.09794" lon="1.16702">
        <ele>120</ele>
        <time>2020-01-10T10:12:45Z</time>
      </trkpt>
      <trkpt lat="47.09747" lon="1.16807">
        <ele>121</ele>
        <time>2020-01-10T10:13:53Z</time>
      </trkpt>
      <trkpt lat="47.09702" lon="1.1688">
        <ele>122</ele>
        <time>2020-01-10T10:14:47Z</time>
      </trkpt>
      <trkpt lat="47.09671" lon="1.16912">
        <ele>122</ele>
        <time>2020-01-10T10:15:17Z</time>
      </trkpt>
      <trkpt lat="47.09551" lon="1.16814">
        <ele>130</ele>
        <time>2020-01-10T10:17:07Z</time>
      </trkpt>
      <trkpt lat="47.09408" lon="1.16689">
        <ele>131</ele>
        <time>2020-01-10T10:19:21Z</time>
      </trkpt>
      <trkpt lat="47.09078" lon="1.16698">
        <ele>133</ele>
        <time>2020-01-10T10:23:45Z</time>
      </trkpt>
      <trkpt lat="47.09037" lon="1.16691">
        <ele>133</ele>
        <time>2020-01-10T10:24:18Z</time>
      </trkpt>
      <trkpt lat="47.08768" lon="1.16698">
        <ele>138</ele>
        <time>2020-01-10T10:27:53Z</time>
      </trkpt>
      <trkpt lat="47.08716" lon="1.16734">
        <ele>137</ele>
        <time>2020-01-10T10:28:39Z</time>
      </trkpt>
      <trkpt lat="47.08631" lon="1.16782">
        <ele>138</ele>
        <time>2020-01-10T10:29:52Z</time>
      </trkpt>
      <trkpt lat="47.08675" lon="1.16887">
        <ele>141</ele>
        <time>2020-01-10T10:30:59Z</time>
      </trkpt>
      <trkpt lat="47.08678" lon="1.1693">
        <ele>141</ele>
        <time>2020-01-10T10:31:23Z</time>
      </trkpt>
      <trkpt lat="47.0866" lon="1.17022">
        <ele>140</ele>
        <time>2020-01-10T10:32:15Z</time>
      </trkpt>
      <trkpt lat="47.08649" lon="1.1708">
        <ele>140</ele>
        <time>2020-01-10T10:32:48Z</time>
      </trkpt>
      <trkpt lat="47.08624" lon="1.17163">
        <ele>140</ele>
        <time>2020-01-10T10:33:37Z</time>
      </trkpt>
      <trkpt lat="47.08589" lon="1.1723">
        <ele>139</ele>
        <time>2020-01-10T10:34:24Z</time>
      </trkpt>
      <trkpt lat="47.08586" lon="1.1729">
        <ele>139</ele>
        <time>2020-01-10T10:34:56Z</time>
      </trkpt>
      <trkpt lat="47.08538" lon="1.1741">
        <ele>138</ele>
        <time>2020-01-10T10:36:12Z</time>
      </trkpt>
      <trkpt lat="47.08527" lon="1.17447">
        <ele>138</ele>
        <time>2020-01-10T10:36:34Z</time>
      </trkpt>
      <trkpt lat="47.08504" lon="1.17801">
        <ele>145</ele>
        <time>2020-01-10T10:39:48Z</time>
      </trkpt>
      <trkpt lat="47.08538" lon="1.17837">
        <ele>145</ele>
        <time>2020-01-10T10:40:22Z</time>
      </trkpt>
      <trkpt lat="47.08567" lon="1.17857">
        <ele>145</ele>
        <time>2020-01-10T10:40:47Z</time>
      </trkpt>
      <trkpt lat="47.08608" lon="1.1791">
        <ele>147</ele>
        <time>2020-01-10T10:41:31Z</time>
      </trkpt>
      <trkpt lat="47.08694" lon="1.17945">
        <ele>148</ele>
        <time>2020-01-10T10:42:42Z</time>
      </trkpt>
      <trkpt lat="47.08757" lon="1.1797">
        <ele>148</ele>
        <time>2020-01-10T10:43:35Z</time>
      </trkpt>
      <trkpt lat="47.08799" lon="1.1797">
        <ele>148</ele>
        <time>2020-01-10T10:44:08Z</time>
      </trkpt>
      <trkpt lat="47.08847" lon="1.17992">
        <ele>147</ele>
        <time>2020-01-10T10:44:49Z</time>
      </trkpt>
      <trkpt lat="47.08879" lon="1.18067">
        <ele>147</ele>
        <time>2020-01-10T10:45:37Z</time>
      </trkpt>
      <trkpt lat="47.08893" lon="1.18116">
        <ele>146</ele>
        <time>2020-01-10T10:46:06Z</time>
      </trkpt>
      <trkpt lat="47.08853" lon="1.18138">
        <ele>148</ele>
        <time>2020-01-10T10:46:40Z</time>
      </trkpt>
      <trkpt lat="47.08808" lon="1.18153">
        <ele>149</ele>
        <time>2020-01-10T10:47:17Z</time>
      </trkpt>
      <trkpt lat="47.08746" lon="1.18163">
        <ele>150</ele>
        <time>2020-01-10T10:48:07Z</time>
      </trkpt>
      <trkpt lat="47.0871" lon="1.18172">
        <ele>150</ele>
        <time>2020-01-10T10:48:36Z</time>
      </trkpt>
      <trkpt lat="47.0864" lon="1.18208">
        <ele>151</ele>
        <time>2020-01-10T10:49:36Z</time>
      </trkpt>
      <trkpt lat="47.08577" lon="1.18226">
        <ele>152</ele>
        <time>2020-01-10T10:50:27Z</time>
      </trkpt>
      <trkpt lat="47.08536" lon="1.18215">
        <ele>151</ele>
        <time>2020-01-10T10:51:00Z</time>
      </trkpt>
      <trkpt lat="47.08491" lon="1.18198">
        <ele>151</ele>
        <time>2020-01-10T10:51:38Z</time>
      </trkpt>
      <trkpt lat="47.08431" lon="1.18174">
        <ele>151</ele>
        <time>2020-01-10T10:52:27Z</time>
      </trkpt>
      <trkpt lat="47.08412" lon="1.18189">
        <ele>151</ele>
        <time>2020-01-10T10:52:45Z</time>
      </trkpt>
      <trkpt lat="47.08371" lon="1.18264">
        <ele>151</ele>
        <time>2020-01-10T10:53:37Z</time>
      </trkpt>
      <trkpt lat="47.08356" lon="1.18299">
        <ele>151</ele>
        <time>2020-01-10T10:54:00Z</time>
      </trkpt>
      <trkpt lat="47.08343" lon="1.18331">
        <ele>151</ele>
        <time>2020-01-10T10:54:20Z</time>
      </trkpt>
      <trkpt lat="47.0831" lon="1.18395">
        <ele>151</ele>
        <time>2020-01-10T10:55:04Z</time>
      </trkpt>
      <trkpt lat="47.0826" lon="1.18567">
        <ele>151</ele>
        <time>2020-01-10T10:56:46Z</time>
      </trkpt>
      <trkpt lat="47.08245" lon="1.18612">
        <ele>151</ele>
        <time>2020-01-10T10:57:13Z</time>
      </trkpt>
      <trkpt lat="47.08109" lon="1.18796">
        <ele>151</ele>
        <time>2020-01-10T10:59:41Z</time>
      </trkpt>
      <trkpt lat="47.08014" lon="1.18906">
        <ele>150</ele>
        <time>2020-01-10T11:01:18Z</time>
      </trkpt>
      <trkpt lat="47.07898" lon="1.18994">
        <ele>151</ele>
        <time>2020-01-10T11:03:02Z</time>
      </trkpt>
      <trkpt lat="47.078" lon="1.1909">
        <ele>149</ele>
        <time>2020-01-10T11:04:37Z</time>
      </trkpt>
      <trkpt lat="47.07754" lon="1.19105">
        <ele>150</ele>
        <time>2020-01-10T11:05:14Z</time>
      </trkpt>
      <trkpt lat="47.07712" lon="1.1912">
        <ele>150</ele>
        <time>2020-01-10T11:05:49Z</time>
      </trkpt>
      <trkpt lat="47.07623" lon="1.19131">
        <ele>150</ele>
        <time>2020-01-10T11:07:01Z</time>
      </trkpt>
      <trkpt lat="47.07578" lon="1.19176">
        <ele>146</ele>
        <time>2020-01-10T11:07:44Z</time>
      </trkpt>
      <trkpt lat="47.07554" lon="1.19198">
        <ele>145</ele>
        <time>2020-01-10T11:08:07Z</time>
      </trkpt>
      <trkpt lat="47.07529" lon="1.19174">
        <ele>146</ele>
        <time>2020-01-10T11:08:31Z</time>
      </trkpt>
      <trkpt lat="47.07475" lon="1.19161">
        <ele>147</ele>
        <time>2020-01-10T11:09:15Z</time>
      </trkpt>
      <trkpt lat="47.07433" lon="1.19157">
        <ele>149</ele>
        <time>2020-01-10T11:09:48Z</time>
      </trkpt>
      <trkpt lat="47.07393" lon="1.19165">
        <ele>149</ele>
        <time>2020-01-10T11:10:21Z</time>
      </trkpt>
      <trkpt lat="47.07328" lon="1.19193">
        <ele>148</ele>
        <time>2020-01-10T11:11:15Z</time>
      </trkpt>
      <trkpt lat="47.07088" lon="1.19459">
        <ele>140</ele>
        <time>2020-01-10T11:15:16Z</time>
      </trkpt>
      <trkpt lat="47.07063" lon="1.19496">
        <ele>138</ele>
        <time>2020-01-10T11:15:44Z</time>
      </trkpt>
      <trkpt lat="47.07013" lon="1.19492">
        <ele>138</ele>
        <time>2020-01-10T11:16:24Z</time>
      </trkpt>
      <trkpt lat="47.06935" lon="1.19451">
        <ele>140</ele>
        <time>2020-01-10T11:17:30Z</time>
      </trkpt>
      <trkpt lat="47.06939" lon="1.19395">
        <ele>139</ele>
        <time>2020-01-10T11:18:01Z</time>
      </trkpt>
      <trkpt lat="47.06914" lon="1.19414">
        <ele>140</ele>
        <time>2020-01-10T11:18:24Z</time>
      </trkpt>
      <trkpt lat="47.06882" lon="1.19432">
        <ele>140</ele>
        <time>2020-01-10T11:18:51Z</time>
      </trkpt>
      <trkpt lat="47.06857" lon="1.19448">
        <ele>141</ele>
        <time>2020-01-10T11:19:13Z</time>
      </trkpt>
      <trkpt lat="47.0682" lon="1.1942">
        <ele>141</ele>
        <time>2020-01-10T11:19:46Z</time>
      </trkpt>
      <trkpt lat="47.06767" lon="1.1937">
        <ele>143</ele>
        <time>2020-01-10T11:20:37Z</time>
      </trkpt>
      <trkpt lat="47.06751" lon="1.19294">
        <ele>144</ele>
        <time>2020-01-10T11:21:20Z</time>
      </trkpt>
      <trkpt lat="47.06741" lon="1.19196">
        <ele>146</ele>
        <time>2020-01-10T11:22:14Z</time>
      </trkpt>
      <trkpt lat="47.06725" lon="1.19131">
        <ele>147</ele>
        <time>2020-01-10T11:22:52Z</time>
      </trkpt>
      <trkpt lat="47.06675" lon="1.19026">
        <ele>147</ele>
        <time>2020-01-10T11:24:02Z</time>
      </trkpt>
      <trkpt lat="47.06628" lon="1.18965">
        <ele>148</ele>
        <time>2020-01-10T11:24:52Z</time>
      </trkpt>
      <trkpt lat="47.06562" lon="1.18889">
        <ele>148</ele>
        <time>2020-01-10T11:25:59Z</time>
      </trkpt>
      <trkpt lat="47.06534" lon="1.18819">
        <ele>146</ele>
        <time>2020-01-10T11:26:43Z</time>
      </trkpt>
      <trkpt lat="47.06491" lon="1.18771">
        <ele>145</ele>
        <time>2020-01-10T11:27:27Z</time>
      </trkpt>
      <trkpt lat="47.06452" lon="1.18703">
        <ele>146</ele>
        <time>2020-01-10T11:28:15Z</time>
      </trkpt>
      <trkpt lat="47.06418" lon="1.18643">
        <ele>147</ele>
        <time>2020-01-10T11:28:58Z</time>
      </trkpt>
      <trkpt lat="47.06386" lon="1.18621">
        <ele>149</ele>
        <time>2020-01-10T11:29:26Z</time>
      </trkpt>
      <trkpt lat="47.06359" lon="1.18602">
        <ele>150</ele>
        <time>2020-01-10T11:29:50Z</time>
      </trkpt>
      <trkpt lat="47.06279" lon="1.18447">
        <ele>156</ele>
        <time>2020-01-10T11:31:36Z</time>
      </trkpt>
      <trkpt lat="47.06263" lon="1.18368">
        <ele>157</ele>
        <time>2020-01-10T11:32:21Z</time>
      </trkpt>
      <trkpt lat="47.06236" lon="1.18262">
        <ele>158</ele>
        <time>2020-01-10T11:33:23Z</time>
      </trkpt>
      <trkpt lat="47.06203" lon="1.18198">
        <ele>157</ele>
        <time>2020-01-10T11:34:06Z</time>
      </trkpt>
      <trkpt lat="47.0615" lon="1.18135">
        <ele>154</ele>
        <time>2020-01-10T11:35:01Z</time>
      </trkpt>
      <trkpt lat="47.06113" lon="1.18176">
        <ele>154</ele>
        <time>2020-01-10T11:35:38Z</time>
      </trkpt>
      <trkpt lat="47.06011" lon="1.18142">
        <ele>153</ele>
        <time>2020-01-10T11:37:02Z</time>
      </trkpt>
      <trkpt lat="47.05958" lon="1.18125">
        <ele>152</ele>
        <time>2020-01-10T11:37:45Z</time>
      </trkpt>
      <trkpt lat="47.05787" lon="1.1808">
        <ele>152</ele>
        <time>2020-01-10T11:40:04Z</time>
      </trkpt>
      <trkpt lat="47.05783" lon="1.18163">
        <ele>153</ele>
        <time>2020-01-10T11:40:50Z</time>
      </trkpt>
      <trkpt lat="47.05765" lon="1.18264">
        <ele>152</ele>
        <time>2020-01-10T11:41:47Z</time>
      </trkpt>
      <trkpt lat="47.05767" lon="1.18406">
        <ele>149</ele>
        <time>2020-01-10T11:43:04Z</time>
      </trkpt>
      <trkpt lat="47.05736" lon="1.18509">
        <ele>148</ele>
        <time>2020-01-10T11:44:06Z</time>
      </trkpt>
      <trkpt lat="47.05729" lon="1.18633">
        <ele>149</ele>
        <time>2020-01-10T11:45:14Z</time>
      </trkpt>
      <trkpt lat="47.05682" lon="1.1873">
        <ele>149</ele>
        <time>2020-01-10T11:46:18Z</time>
      </trkpt>
      <trkpt lat="47.05673" lon="1.18769">
        <ele>148</ele>
        <time>2020-01-10T11:46:41Z</time>
      </trkpt>
      <trkpt lat="47.05666" lon="1.18824">
        <ele>148</ele>
        <time>2020-01-10T11:47:11Z</time>
      </trkpt>
      <trkpt lat="47.0566" lon="1.18917">
        <ele>149</ele>
        <time>2020-01-10T11:48:02Z</time>
      </trkpt>
      <trkpt lat="47.05657" lon="1.19056">
        <ele>145</ele>
        <time>2020-01-10T11:49:18Z</time>
      </trkpt>
      <trkpt lat="47.05536" lon="1.19181">
        <ele>139</ele>
        <time>2020-01-10T11:51:17Z</time>
      </trkpt>
      <trkpt lat="47.0524" lon="1.19479">
        <ele>124</ele>
        <time>2020-01-10T11:56:04Z</time>
      </trkpt>
      <trkpt lat="47.05235" lon="1.19537">
        <ele>124</ele>
        <time>2020-01-10T11:56:36Z</time>
      </trkpt>
      <trkpt lat="47.05268" lon="1.19631">
        <ele>122</ele>
        <time>2020-01-10T11:57:34Z</time>
      </trkpt>
      <trkpt lat="47.05297" lon="1.19723">
        <ele>120</ele>
        <time>2020-01-10T11:58:29Z</time>
      </trkpt>
      <trkpt lat="47.05315" lon="1.19794">
        <ele>119</ele>
        <time>2020-01-10T11:59:10Z</time>
      </trkpt>
      <trkpt lat="47.05343" lon="1.19811">
        <ele>120</ele>
        <time>2020-01-10T11:59:35Z</time>
      </trkpt>
      <trkpt lat="47.05375" lon="1.19824">
        <ele>121</ele>
        <time>2020-01-10T12:00:01Z</time>
      </trkpt>
      <trkpt lat="47.05401" lon="1.19889">
        <ele>120</ele>
        <time>2020-01-10T12:00:42Z</time>
      </trkpt>
      <trkpt lat="47.05449" lon="1.19934">
        <ele>120</ele>
        <time>2020-01-10T12:01:28Z</time>
      </trkpt>
      <trkpt lat="47.0549" lon="1.19981">
        <ele>119</ele>
        <time>2020-01-10T12:02:10Z</time>
      </trkpt>
      <trkpt lat="47.0552" lon="1.19996">
        <ele>119</ele>
        <time>2020-01-10T12:02:35Z</time>
      </trkpt>
      <trkpt lat="47.05683" lon="1.19891">
        <ele>132</ele>
        <time>2020-01-10T12:04:57Z</time>
      </trkpt>
      <trkpt lat="47.05683" lon="1.19927">
        <ele>130</ele>
        <time>2020-01-10T12:05:17Z</time>
      </trkpt>
      <trkpt lat="47.05666" lon="1.20015">
        <ele>124</ele>
        <time>2020-01-10T12:06:07Z</time>
      </trkpt>
      <trkpt lat="47.05805" lon="1.19944">
        <ele>131</ele>
        <time>2020-01-10T12:08:05Z</time>
      </trkpt>
      <trkpt lat="47.05879" lon="1.19889">
        <ele>133</ele>
        <time>2020-01-10T12:09:11Z</time>
      </trkpt>
      <trkpt lat="47.05948" lon="1.19837">
        <ele>134</ele>
        <time>2020-01-10T12:10:13Z</time>
      </trkpt>
      <trkpt lat="47.05984" lon="1.19826">
        <ele>135</ele>
        <time>2020-01-10T12:10:43Z</time>
      </trkpt>
      <trkpt lat="47.06024" lon="1.19826">
        <ele>135</ele>
        <time>2020-01-10T12:11:15Z</time>
      </trkpt>
      <trkpt lat="47.06104" lon="1.19859">
        <ele>136</ele>
        <time>2020-01-10T12:12:21Z</time>
      </trkpt>
      <trkpt lat="47.06163" lon="1.19874">
        <ele>136</ele>
        <time>2020-01-10T12:13:09Z</time>
      </trkpt>
      <trkpt lat="47.06234" lon="1.19917">
        <ele>135</ele>
        <time>2020-01-10T12:14:11Z</time>
      </trkpt>
      <trkpt lat="47.06348" lon="1.19959">
        <ele>134</ele>
        <time>2020-01-10T12:15:45Z</time>
      </trkpt>
      <trkpt lat="47.06455" lon="1.19979">
        <ele>133</ele>
        <time>2020-01-10T12:17:11Z</time>
      </trkpt>
      <trkpt lat="47.06593" lon="1.20002">
        <ele>132</ele>
        <time>2020-01-10T12:19:02Z</time>
      </trkpt>
      <trkpt lat="47.06638" lon="1.20009">
        <ele>134</ele>
        <time>2020-01-10T12:19:39Z</time>
      </trkpt>
      <trkpt lat="47.06693" lon="1.20045">
        <ele>133</ele>
        <time>2020-01-10T12:20:27Z</time>
      </trkpt>
      <trkpt lat="47.06987" lon="1.20238">
        <ele>142</ele>
        <time>2020-01-10T12:24:45Z</time>
      </trkpt>
      <trkpt lat="47.07068" lon="1.20296">
        <ele>142</ele>
        <time>2020-01-10T12:25:57Z</time>
      </trkpt>
      <trkpt lat="47.07225" lon="1.20399">
        <ele>144</ele>
        <time>2020-01-10T12:28:15Z</time>
      </trkpt>
      <trkpt lat="47.07244" lon="1.20444">
        <ele>144</ele>
        <time>2020-01-10T12:28:44Z</time>
      </trkpt>
      <trkpt lat="47.07236" lon="1.20489">
        <ele>145</ele>
        <time>2020-01-10T12:29:09Z</time>
      </trkpt>
      <trkpt lat="47.0724" lon="1.20534">
        <ele>144</ele>
        <time>2020-01-10T12:29:34Z</time>
      </trkpt>
      <trkpt lat="47.0725" lon="1.20573">
        <ele>143</ele>
        <time>2020-01-10T12:29:56Z</time>
      </trkpt>
      <trkpt lat="47.073" lon="1.20582">
        <ele>143</ele>
        <time>2020-01-10T12:30:37Z</time>
      </trkpt>
      <trkpt lat="47.07358" lon="1.20597">
        <ele>142</ele>
        <time>2020-01-10T12:31:24Z</time>
      </trkpt>
      <trkpt lat="47.07385" lon="1.20629">
        <ele>141</ele>
        <time>2020-01-10T12:31:52Z</time>
      </trkpt>
      <trkpt lat="47.07409" lon="1.20704">
        <ele>139</ele>
        <time>2020-01-10T12:32:37Z</time>
      </trkpt>
      <trkpt lat="47.07439" lon="1.2074">
        <ele>138</ele>
        <time>2020-01-10T12:33:08Z</time>
      </trkpt>
      <trkpt lat="47.07478" lon="1.20816">
        <ele>138</ele>
        <time>2020-01-10T12:34:00Z</time>
      </trkpt>
      <trkpt lat="47.07531" lon="1.20901">
        <ele>136</ele>
        <time>2020-01-10T12:35:03Z</time>
      </trkpt>
      <trkpt lat="47.07551" lon="1.20946">
        <ele>136</ele>
        <time>2020-01-10T12:35:32Z</time>
      </trkpt>
      <trkpt lat="47.07589" lon="1.20987">
        <ele>135</ele>
        <time>2020-01-10T12:36:10Z</time>
      </trkpt>
      <trkpt lat="47.07618" lon="1.21037">
        <ele>133</ele>
        <time>2020-01-10T12:36:45Z</time>
      </trkpt>
      <trkpt lat="47.07664" lon="1.21073">
        <ele>132</ele>
        <time>2020-01-10T12:37:27Z</time>
      </trkpt>
      <trkpt lat="47.07687" lon="1.21105">
        <ele>131</ele>
        <time>2020-01-10T12:37:53Z</time>
      </trkpt>
      <trkpt lat="47.07741" lon="1.21131">
        <ele>129</ele>
        <time>2020-01-10T12:38:38Z</time>
      </trkpt>
      <trkpt lat="47.07773" lon="1.21152">
        <ele>128</ele>
        <time>2020-01-10T12:39:06Z</time>
      </trkpt>
      <trkpt lat="47.07811" lon="1.21208">
        <ele>126</ele>
        <time>2020-01-10T12:39:49Z</time>
      </trkpt>
      <trkpt lat="47.07887" lon="1.21292">
        <ele>122</ele>
        <time>2020-01-10T12:41:05Z</time>
      </trkpt>
      <trkpt lat="47.07979" lon="1.2141">
        <ele>117</ele>
        <time>2020-01-10T12:42:43Z</time>
      </trkpt>
      <trkpt lat="47.08016" lon="1.21468">
        <ele>118</ele>
        <time>2020-01-10T12:43:26Z</time>
      </trkpt>
      <trkpt lat="47.08136" lon="1.21715">
        <ele>123</ele>
        <time>2020-01-10T12:46:12Z</time>
      </trkpt>
      <trkpt lat="47.08191" lon="1.21745">
        <ele>122</ele>
        <time>2020-01-10T12:46:59Z</time>
      </trkpt>
      <trkpt lat="47.0833" lon="1.21792">
        <ele>116</ele>
        <time>2020-01-10T12:48:53Z</time>
      </trkpt>
      <trkpt lat="47.0841" lon="1.21824">
        <ele>113</ele>
        <time>2020-01-10T12:50:00Z</time>
      </trkpt>
      <trkpt lat="47.0846" lon="1.21846">
        <ele>112</ele>
        <time>2020-01-10T12:50:41Z</time>
      </trkpt>
      <trkpt lat="47.08562" lon="1.21837">
        <ele>110</ele>
        <time>2020-01-10T12:52:03Z</time>
      </trkpt>
      <trkpt lat="47.08652" lon="1.21828">
        <ele>112</ele>
        <time>2020-01-10T12:53:15Z</time>
      </trkpt>
      <trkpt lat="47.08716" lon="1.21811">
        <ele>115</ele>
        <time>2020-01-10T12:54:07Z</time>
      </trkpt>
      <trkpt lat="47.08771" lon="1.21783">
        <ele>120</ele>
        <time>2020-01-10T12:54:54Z</time>
      </trkpt>
      <trkpt lat="47.08863" lon="1.21743">
        <ele>124</ele>
        <time>2020-01-10T12:56:11Z</time>
      </trkpt>
      <trkpt lat="47.08955" lon="1.217">
        <ele>124</ele>
        <time>2020-01-10T12:57:28Z</time>
      </trkpt>
      <trkpt lat="47.08926" lon="1.21713">
        <ele>124</ele>
        <time>2020-01-10T12:57:52Z</time>
      </trkpt>
      <trkpt lat="47.08988" lon="1.21682">
        <ele>125</ele>
        <time>2020-01-10T12:58:45Z</time>
      </trkpt>
      <trkpt lat="47.08957" lon="1.21616">
        <ele>126</ele>
        <time>2020-01-10T12:59:29Z</time>
      </trkpt>
      <trkpt lat="47.08917" lon="1.21522">
        <ele>129</ele>
        <time>2020-01-10T13:00:29Z</time>
      </trkpt>
      <trkpt lat="47.08895" lon="1.21431">
        <ele>130</ele>
        <time>2020-01-10T13:01:22Z</time>
      </trkpt>
      <trkpt lat="47.09075" lon="1.21339">
        <ele>134</ele>
        <time>2020-01-10T13:03:54Z</time>
      </trkpt>
      <trkpt lat="47.09062" lon="1.21247">
        <ele>137</ele>
        <time>2020-01-10T13:04:45Z</time>
      </trkpt>
      <trkpt lat="47.09074" lon="1.21137">
        <ele>138</ele>
        <time>2020-01-10T13:05:46Z</time>
      </trkpt>
      <trkpt lat="47.091" lon="1.21125">
        <ele>139</ele>
        <time>2020-01-10T13:06:08Z</time>
      </trkpt>
      <trkpt lat="47.09306" lon="1.21015">
        <ele>139</ele>
        <time>2020-01-10T13:09:04Z</time>
      </trkpt>
      <trkpt lat="47.09337" lon="1.21013">
        <ele>140</ele>
        <time>2020-01-10T13:09:28Z</time>
      </trkpt>
      <trkpt lat="47.09375" lon="1.21028">
        <ele>140</ele>
        <time>2020-01-10T13:10:00Z</time>
      </trkpt>
      <trkpt lat="47.094" lon="1.21007">
        <ele>140</ele>
        <time>2020-01-10T13:10:23Z</time>
      </trkpt>
      <trkpt lat="47.09417" lon="1.20987">
        <ele>140</ele>
        <time>2020-01-10T13:10:40Z</time>
      </trkpt>
      <trkpt lat="47.09429" lon="1.20959">
        <ele>140</ele>
        <time>2020-01-10T13:10:58Z</time>
      </trkpt>
      <trkpt lat="47.0943" lon="1.20912">
        <ele>139</ele>
        <time>2020-01-10T13:11:24Z</time>
      </trkpt>
      <trkpt lat="47.09475" lon="1.20897">
        <ele>137</ele>
        <time>2020-01-10T13:12:01Z</time>
      </trkpt>
      <trkpt lat="47.09516" lon="1.20882">
        <ele>135</ele>
        <time>2020-01-10T13:12:35Z</time>
      </trkpt>
      <trkpt lat="47.09556" lon="1.20843">
        <ele>133</ele>
        <time>2020-01-10T13:13:13Z</time>
      </trkpt>
      <trkpt lat="47.09582" lon="1.20801">
        <ele>130</ele>
        <time>2020-01-10T13:13:44Z</time>
      </trkpt>
      <trkpt lat="47.09605" lon="1.20715">
        <ele>127</ele>
        <time>2020-01-10T13:14:35Z</time>
      </trkpt>
      <trkpt lat="47.09627" lon="1.20672">
        <ele>125</ele>
        <time>2020-01-10T13:15:04Z</time>
      </trkpt>
      <trkpt lat="47.09658" lon="1.20644">
        <ele>123</ele>
        <time>2020-01-10T13:15:33Z</time>
      </trkpt>
      <trkpt lat="47.09711" lon="1.20614">
        <ele>125</ele>
        <time>2020-01-10T13:16:18Z</time>
      </trkpt>
      <trkpt lat="47.09737" lon="1.20599">
        <ele>127</ele>
        <time>2020-01-10T13:16:41Z</time>
      </trkpt>
      <trkpt lat="47.0976" lon="1.20567">
        <ele>129</ele>
        <time>2020-01-10T13:17:06Z</time>
      </trkpt>
      <trkpt lat="47.0979" lon="1.2055">
        <ele>132</ele>
        <time>2020-01-10T13:17:32Z</time>
      </trkpt>
      <trkpt lat="47.09829" lon="1.20513">
        <ele>135</ele>
        <time>2020-01-10T13:18:09Z</time>
      </trkpt>
      <trkpt lat="47.09868" lon="1.20481">
        <ele>136</ele>
        <time>2020-01-10T13:18:45Z</time>
      </trkpt>
      <trkpt lat="47.09901" lon="1.20449">
        <ele>137</ele>
        <time>2020-01-10T13:19:17Z</time>
      </trkpt>
      <trkpt lat="47.09933" lon="1.20412">
        <ele>138</ele>
        <time>2020-01-10T13:19:49Z</time>
      </trkpt>
      <trkpt lat="47.09928" lon="1.20344">
        <ele>139</ele>
        <time>2020-01-10T13:20:26Z</time>
      </trkpt>
      <trkpt lat="47.09959" lon="1.2032">
        <ele>138</ele>
        <time>2020-01-10T13:20:55Z</time>
      </trkpt>
      <trkpt lat="47.10009" lon="1.20303">
        <ele>136</ele>
        <time>2020-01-10T13:21:36Z</time>
      </trkpt>
      <trkpt lat="47.10067" lon="1.20286">
        <ele>133</ele>
        <time>2020-01-10T13:22:23Z</time>
      </trkpt>
      <trkpt lat="47.10107" lon="1.20279">
        <ele>131</ele>
        <time>2020-01-10T13:22:55Z</time>
      </trkpt>
      <trkpt lat="47.10147" lon="1.20268">
        <ele>129</ele>
        <time>2020-01-10T13:23:28Z</time>
      </trkpt>
      <trkpt lat="47.10193" lon="1.20247">
        <ele>128</ele>
        <time>2020-01-10T13:24:06Z</time>
      </trkpt>
      <trkpt lat="47.10223" lon="1.20234">
        <ele>127</ele>
        <time>2020-01-10T13:24:31Z</time>
      </trkpt>
      <trkpt lat="47.10254" lon="1.20219">
        <ele>127</ele>
        <time>2020-01-10T13:24:58Z</time>
      </trkpt>
      <trkpt lat="47.10288" lon="1.20221">
        <ele>125</ele>
        <time>2020-01-10T13:25:25Z</time>
      </trkpt>
      <trkpt lat="47.1032" lon="1.20223">
        <ele>123</ele>
        <time>2020-01-10T13:25:50Z</time>
      </trkpt>
      <trkpt lat="47.10352" lon="1.20213">
        <ele>123</ele>
        <time>2020-01-10T13:26:17Z</time>
      </trkpt>
      <trkpt lat="47.10383" lon="1.20195">
        <ele>123</ele>
        <time>2020-01-10T13:26:43Z</time>
      </trkpt>
      <trkpt lat="47.10429" lon="1.20174">
        <ele>123</ele>
        <time>2020-01-10T13:27:22Z</time>
      </trkpt>
      <trkpt lat="47.10472" lon="1.20148">
        <ele>124</ele>
        <time>2020-01-10T13:27:59Z</time>
      </trkpt>
      <trkpt lat="47.10533" lon="1.20146">
        <ele>124</ele>
        <time>2020-01-10T13:28:48Z</time>
      </trkpt>
      <trkpt lat="47.10556" lon="1.20174">
        <ele>125</ele>
        <time>2020-01-10T13:29:12Z</time>
      </trkpt>
      <trkpt lat="47.10602" lon="1.20183">
        <ele>126</ele>
        <time>2020-01-10T13:29:49Z</time>
      </trkpt>
      <trkpt lat="47.10635" lon="1.20193">
        <ele>127</ele>
        <time>2020-01-10T13:30:16Z</time>
      </trkpt>
      <trkpt lat="47.10688" lon="1.20221">
        <ele>129</ele>
        <time>2020-01-10T13:31:01Z</time>
      </trkpt>
      <trkpt lat="47.10736" lon="1.20245">
        <ele>130</ele>
        <time>2020-01-10T13:31:42Z</time>
      </trkpt>
      <trkpt lat="47.10783" lon="1.20258">
        <ele>131</ele>
        <time>2020-01-10T13:32:20Z</time>
      </trkpt>
      <trkpt lat="47.10894" lon="1.20305">
        <ele>134</ele>
        <time>2020-01-10T13:33:53Z</time>
      </trkpt>
      <trkpt lat="47.10897" lon="1.20236">
        <ele>134</ele>
        <time>2020-01-10T13:34:30Z</time>
      </trkpt>
      <trkpt lat="47.10905" lon="1.20193">
        <ele>135</ele>
        <time>2020-01-10T13:34:54Z</time>
      </trkpt>
      <trkpt lat="47.10924" lon="1.20118">
        <ele>136</ele>
        <time>2020-01-10T13:35:38Z</time>
      </trkpt>
      <trkpt lat="47.1093" lon="1.20062">
        <ele>136</ele>
        <time>2020-01-10T13:36:09Z</time>
      </trkpt>
      <trkpt lat="47.10939" lon="1.20017">
        <ele>137</ele>
        <time>2020-01-10T13:36:35Z</time>
      </trkpt>
      <trkpt lat="47.10939" lon="1.19955">
        <ele>137</ele>
        <time>2020-01-10T13:37:08Z</time>
      </trkpt>
      <trkpt lat="47.10943" lon="1.19882">
        <ele>138</ele>
        <time>2020-01-10T13:37:48Z</time>
      </trkpt>
      <trkpt lat="47.10948" lon="1.19792">
        <ele>140</ele>
        <time>2020-01-10T13:38:37Z</time>
      </trkpt>
      <trkpt lat="47.10958" lon="1.19689">
        <ele>141</ele>
        <time>2020-01-10T13:39:34Z</time>
      </trkpt>
      <trkpt lat="47.10984" lon="1.19682">
        <ele>140</ele>
        <time>2020-01-10T13:39:55Z</time>
      </trkpt>
      <trkpt lat="47.1102" lon="1.19675">
        <ele>140</ele>
        <time>2020-01-10T13:40:24Z</time>
      </trkpt>
      <trkpt lat="47.11061" lon="1.19666">
        <ele>140</ele>
        <time>2020-01-10T13:40:58Z</time>
      </trkpt>
      <trkpt lat="47.11107" lon="1.19661">
        <ele>140</ele>
        <time>2020-01-10T13:41:34Z</time>
      </trkpt>
      <trkpt lat="47.11143" lon="1.19655">
        <ele>141</ele>
        <time>2020-01-10T13:42:04Z</time>
      </trkpt>
      <trkpt lat="47.11246" lon="1.1985">
        <ele>141</ele>
        <time>2020-01-10T13:44:18Z</time>
      </trkpt>
      <trkpt lat="47.11272" lon="1.19856">
        <ele>141</ele>
        <time>2020-01-10T13:44:39Z</time>
      </trkpt>
      <trkpt lat="47.11341" lon="1.19949">
        <ele>142</ele>
        <time>2020-01-10T13:45:54Z</time>
      </trkpt>
      <trkpt lat="47.11383" lon="1.19953">
        <ele>142</ele>
        <time>2020-01-10T13:46:28Z</time>
      </trkpt>
      <trkpt lat="47.11457" lon="1.19996">
        <ele>141</ele>
        <time>2020-01-10T13:47:31Z</time>
      </trkpt>
      <trkpt lat="47.11561" lon="1.2006">
        <ele>140</ele>
        <time>2020-01-10T13:49:02Z</time>
      </trkpt>
      <trkpt lat="47.11593" lon="1.20071">
        <ele>140</ele>
        <time>2020-01-10T13:49:28Z</time>
      </trkpt>
      <trkpt lat="47.11631" lon="1.20037">
        <ele>140</ele>
        <time>2020-01-10T13:50:04Z</time>
      </trkpt>
      <trkpt lat="47.11668" lon="1.20011">
        <ele>140</ele>
        <time>2020-01-10T13:50:37Z</time>
      </trkpt>
      <trkpt lat="47.11719" lon="1.19985">
        <ele>140</ele>
        <time>2020-01-10T13:51:20Z</time>
      </trkpt>
      <trkpt lat="47.11811" lon="1.20277">
        <ele>137</ele>
        <time>2020-01-10T13:54:15Z</time>
      </trkpt>
      <trkpt lat="47.11942" lon="1.20277">
        <ele>137</ele>
        <time>2020-01-10T13:56:00Z</time>
      </trkpt>
      <trkpt lat="47.12011" lon="1.20281">
        <ele>134</ele>
        <time>2020-01-10T13:56:55Z</time>
      </trkpt>
      <trkpt lat="47.12065" lon="1.20277">
        <ele>133</ele>
        <time>2020-01-10T13:57:39Z</time>
      </trkpt>
      <trkpt lat="47.12287" lon="1.2026">
        <ele>136</ele>
        <time>2020-01-10T14:00:37Z</time>
      </trkpt>
      <trkpt lat="47.12437" lon="1.20245">
        <ele>137</ele>
        <time>2020-01-10T14:02:37Z</time>
      </trkpt>
      <trkpt lat="47.12569" lon="1.20311">
        <ele>137</ele>
        <time>2020-01-10T14:04:29Z</time>
      </trkpt>
      <trkpt lat="47.12655" lon="1.20346">
        <ele>139</ele>
        <time>2020-01-10T14:05:40Z</time>
      </trkpt>
      <trkpt lat="47.12904" lon="1.20273">
        <ele>134</ele>
        <time>2020-01-10T14:09:03Z</time>
      </trkpt>
      <trkpt lat="47.13011" lon="1.20271">
        <ele>135</ele>
        <time>2020-01-10T14:10:29Z</time>
      </trkpt>
      <trkpt lat="47.13068" lon="1.20271">
        <ele>135</ele>
        <time>2020-01-10T14:11:15Z</time>
      </trkpt>
      <trkpt lat="47.13142" lon="1.20249">
        <ele>133</ele>
        <time>2020-01-10T14:12:15Z</time>
      </trkpt>
      <trkpt lat="47.13215" lon="1.20225">
        <ele>134</ele>
        <time>2020-01-10T14:13:15Z</time>
      </trkpt>
      <trkpt lat="47.13291" lon="1.20208">
        <ele>134</ele>
        <time>2020-01-10T14:14:17Z</time>
      </trkpt>
      <trkpt lat="47.1348" lon="1.20217">
        <ele>130</ele>
        <time>2020-01-10T14:16:48Z</time>
      </trkpt>
      <trkpt lat="47.13544" lon="1.2021">
        <ele>128</ele>
        <time>2020-01-10T14:17:39Z</time>
      </trkpt>
      <trkpt lat="47.13722" lon="1.20198">
        <ele>123</ele>
        <time>2020-01-10T14:20:02Z</time>
      </trkpt>
      <trkpt lat="47.13726" lon="1.20133">
        <ele>124</ele>
        <time>2020-01-10T14:20:38Z</time>
      </trkpt>
      <trkpt lat="47.13744" lon="1.20043">
        <ele>126</ele>
        <time>2020-01-10T14:21:29Z</time>
      </trkpt>
      <trkpt lat="47.13763" lon="1.19955">
        <ele>128</ele>
        <time>2020-01-10T14:22:19Z</time>
      </trkpt>
      <trkpt lat="47.13774" lon="1.19882">
        <ele>130</ele>
        <time>2020-01-10T14:23:00Z</time>
      </trkpt>
      <trkpt lat="47.13781" lon="1.19812">
        <ele>131</ele>
        <time>2020-01-10T14:23:38Z</time>
      </trkpt>
      <trkpt lat="47.13846" lon="1.19832">
        <ele>131</ele>
        <time>2020-01-10T14:24:31Z</time>
      </trkpt>
      <trkpt lat="47.13902" lon="1.19844">
        <ele>130</ele>
        <time>2020-01-10T14:25:17Z</time>
      </trkpt>
      <trkpt lat="47.13977" lon="1.19865">
        <ele>128</ele>
        <time>2020-01-10T14:26:18Z</time>
      </trkpt>
      <trkpt lat="47.14043" lon="1.19883">
        <ele>126</ele>
        <time>2020-01-10T14:27:12Z</time>
      </trkpt>
      <trkpt lat="47.14154" lon="1.19883">
        <ele>123</ele>
        <time>2020-01-10T14:28:40Z</time>
      </trkpt>
      <trkpt lat="47.14338" lon="1.19879">
        <ele>118</ele>
        <time>2020-01-10T14:31:08Z</time>
      </trkpt>
      <trkpt lat="47.14543" lon="1.19878">
        <ele>112</ele>
        <time>2020-01-10T14:33:52Z</time>
      </trkpt>
      <trkpt lat="47.14635" lon="1.19878">
        <ele>107</ele>
        <time>2020-01-10T14:35:06Z</time>
      </trkpt>
      <trkpt lat="47.14701" lon="1.19893">
        <ele>104</ele>
        <time>2020-01-10T14:35:59Z</time>
      </trkpt>
      <trkpt lat="47.14786" lon="1.19919">
        <ele>100</ele>
        <time>2020-01-10T14:37:09Z</time>
      </trkpt>
      <trkpt lat="47.14824" lon="1.19932">
        <ele>99</ele>
        <time>2020-01-10T14:37:40Z</time>
      </trkpt>
      <trkpt lat="47.14886" lon="1.19974">
        <ele>100</ele>
        <time>2020-01-10T14:38:34Z</time>
      </trkpt>
      <trkpt lat="47.14951" lon="1.19994">
        <ele>101</ele>
        <time>2020-01-10T14:39:28Z</time>
      </trkpt>
      <trkpt lat="47.15019" lon="1.20015">
        <ele>103</ele>
        <time>2020-01-10T14:40:23Z</time>
      </trkpt>
      <trkpt lat="47.15048" lon="1.19893">
        <ele>105</ele>
        <time>2020-01-10T14:41:34Z</time>
      </trkpt>
      <trkpt lat="47.15091" lon="1.1973">
        <ele>106</ele>
        <time>2020-01-10T14:43:09Z</time>
      </trkpt>
      <trkpt lat="47.15112" lon="1.19683">
        <ele>105</ele>
        <time>2020-01-10T14:43:39Z</time>
      </trkpt>
      <trkpt lat="47.15121" lon="1.19651">
        <ele>104</ele>
        <time>2020-01-10T14:43:58Z</time>
      </trkpt>
      <trkpt lat="47.15126" lon="1.19648">
        <ele>104</ele>
        <time>2020-01-10T14:44:03Z</time>
      </trkpt>
      <trkpt lat="47.15156" lon="1.19647">
        <ele>103</ele>
        <time>2020-01-10T14:44:27Z</time>
      </trkpt>
      <trkpt lat="47.15164" lon="1.19635">
        <ele>102</ele>
        <time>2020-01-10T14:44:36Z</time>
      </trkpt>
      <trkpt lat="47.15175" lon="1.19629">
        <ele>101</ele>
        <time>2020-01-10T14:44:45Z</time>
      </trkpt>
      <trkpt lat="47.1519" lon="1.19629">
        <ele>99</ele>
        <time>2020-01-10T14:44:57Z</time>
      </trkpt>
      <trkpt lat="47.15203" lon="1.19646">
        <ele>98</ele>
        <time>2020-01-10T14:45:11Z</time>
      </trkpt>
      <trkpt lat="47.15224" lon="1.19676">
        <ele>95</ele>
        <time>2020-01-10T14:45:35Z</time>
      </trkpt>
      <trkpt lat="47.1525" lon="1.19703">
        <ele>92</ele>
        <time>2020-01-10T14:46:00Z</time>
      </trkpt>
      <trkpt lat="47.15261" lon="1.19705">
        <ele>92</ele>
        <time>2020-01-10T14:46:09Z</time>
      </trkpt>
    </trkseg>
  </trk>
</gpx>